Wetterdaten: Freitag, 04.05.2018
Datum Zeit Temp. A. Feuchte A. Luftdruck Regen Wind Richtung Richtung Sonnenschein ET UV Solar Taupunkt Windchill Windböen
04.05.2018 00:00 11,8 °C 93 % 1012,4 hPa 0,0 mm 0,0 km/h (0 Bft) O 88 ° 0 min 0,000 mm 0,0 UV-I 0 W/m² 10,7 °C 11,8 °C 0,0 km/h (0 Bft)
04.05.2018 00:01 11,8 °C 93 % 1012,4 hPa 0,0 mm 0,0 km/h (0 Bft) O 88 ° 0 min 0,000 mm 0,0 UV-I 0 W/m² 10,7 °C 11,8 °C 0,0 km/h (0 Bft)
04.05.2018 00:02 11,8 °C 93 % 1012,3 hPa 0,0 mm 0,0 km/h (0 Bft) O 88 ° 0 min 0,000 mm 0,0 UV-I 0 W/m² 10,7 °C 11,8 °C 0,0 km/h (0 Bft)
04.05.2018 00:03 11,8 °C 93 % 1012,4 hPa 0,0 mm 0,0 km/h (0 Bft) O 88 ° 0 min 0,000 mm 0,0 UV-I 0 W/m² 10,7 °C 11,8 °C 0,0 km/h (0 Bft)
04.05.2018 00:04 11,8 °C 93 % 1012,4 hPa 0,0 mm 0,0 km/h (0 Bft) O 88 ° 0 min 0,000 mm 0,0 UV-I 0 W/m² 10,7 °C 11,8 °C 0,0 km/h (0 Bft)
04.05.2018 00:05 11,8 °C 93 % 1012,4 hPa 0,0 mm 0,0 km/h (0 Bft) O 88 ° 0 min 0,000 mm 0,0 UV-I 0 W/m² 10,7 °C 11,8 °C 0,0 km/h (0 Bft)
04.05.2018 00:06 11,8 °C 93 % 1012,4 hPa 0,0 mm 0,0 km/h (0 Bft) O 88 ° 0 min 0,000 mm 0,0 UV-I 0 W/m² 10,7 °C 11,8 °C 0,0 km/h (0 Bft)
04.05.2018 00:07 11,8 °C 93 % 1012,4 hPa 0,0 mm 0,0 km/h (0 Bft) O 88 ° 0 min 0,000 mm 0,0 UV-I 0 W/m² 10,7 °C 11,8 °C 0,0 km/h (0 Bft)
04.05.2018 00:08 11,8 °C 93 % 1012,4 hPa 0,0 mm 0,0 km/h (0 Bft) O 88 ° 0 min 0,000 mm 0,0 UV-I 0 W/m² 10,7 °C 11,8 °C 0,0 km/h (0 Bft)
04.05.2018 00:09 11,8 °C 93 % 1012,4 hPa 0,0 mm 0,0 km/h (0 Bft) O 88 ° 0 min 0,000 mm 0,0 UV-I 0 W/m² 10,7 °C 11,8 °C 0,0 km/h (0 Bft)
04.05.2018 00:10 11,8 °C 93 % 1012,4 hPa 0,0 mm 0,0 km/h (0 Bft) O 88 ° 0 min 0,000 mm 0,0 UV-I 0 W/m² 10,7 °C 11,8 °C 0,0 km/h (0 Bft)
04.05.2018 00:11 11,8 °C 93 % 1012,5 hPa 0,0 mm 0,0 km/h (0 Bft) O 88 ° 0 min 0,000 mm 0,0 UV-I 0 W/m² 10,7 °C 11,8 °C 0,0 km/h (0 Bft)
04.05.2018 00:12 11,8 °C 93 % 1012,5 hPa 0,0 mm 0,0 km/h (0 Bft) O 88 ° 0 min 0,000 mm 0,0 UV-I 0 W/m² 10,7 °C 11,8 °C 0,0 km/h (0 Bft)
04.05.2018 00:13 11,8 °C 93 % 1012,5 hPa 0,0 mm 0,0 km/h (0 Bft) O 88 ° 0 min 0,000 mm 0,0 UV-I 0 W/m² 10,7 °C 11,8 °C 0,0 km/h (0 Bft)
04.05.2018 00:14 11,8 °C 93 % 1012,6 hPa 0,2 mm 0,0 km/h (0 Bft) O 88 ° 0 min 0,000 mm 0,0 UV-I 0 W/m² 10,7 °C 11,8 °C 0,0 km/h (0 Bft)
04.05.2018 00:15 11,8 °C 93 % 1012,6 hPa 0,0 mm 0,0 km/h (0 Bft) O 88 ° 0 min 0,000 mm 0,0 UV-I 0 W/m² 10,7 °C 11,8 °C 0,0 km/h (0 Bft)
04.05.2018 00:16 11,8 °C 93 % 1012,6 hPa 0,0 mm 0,0 km/h (0 Bft) O 88 ° 0 min 0,000 mm 0,0 UV-I 0 W/m² 10,7 °C 11,8 °C 0,0 km/h (0 Bft)
04.05.2018 00:17 11,8 °C 93 % 1012,6 hPa 0,0 mm 0,0 km/h (0 Bft) O 88 ° 0 min 0,000 mm 0,0 UV-I 0 W/m² 10,7 °C 11,8 °C 0,0 km/h (0 Bft)
04.05.2018 00:18 11,8 °C 93 % 1012,6 hPa 0,0 mm 0,0 km/h (0 Bft) O 88 ° 0 min 0,000 mm 0,0 UV-I 0 W/m² 10,7 °C 11,8 °C 0,0 km/h (0 Bft)
04.05.2018 00:19 11,8 °C 93 % 1012,6 hPa 0,0 mm 0,0 km/h (0 Bft) O 88 ° 0 min 0,000 mm 0,0 UV-I 0 W/m² 10,7 °C 11,8 °C 0,0 km/h (0 Bft)
04.05.2018 00:20 11,8 °C 93 % 1012,6 hPa 0,0 mm 0,0 km/h (0 Bft) O 88 ° 0 min 0,000 mm 0,0 UV-I 0 W/m² 10,7 °C 11,8 °C 0,0 km/h (0 Bft)
04.05.2018 00:21 11,8 °C 93 % 1012,6 hPa 0,0 mm 0,0 km/h (0 Bft) O 88 ° 0 min 0,000 mm 0,0 UV-I 0 W/m² 10,7 °C 11,8 °C 0,0 km/h (0 Bft)
04.05.2018 00:22 11,8 °C 94 % 1012,6 hPa 0,2 mm 0,1 km/h (0 Bft) O 88 ° 0 min 0,000 mm 0,0 UV-I 0 W/m² 10,9 °C 11,8 °C 1,6 km/h (1 Bft)
04.05.2018 00:23 11,8 °C 94 % 1012,6 hPa 0,0 mm 0,3 km/h (0 Bft) O 88 ° 0 min 0,000 mm 0,0 UV-I 0 W/m² 10,9 °C 11,8 °C 1,6 km/h (1 Bft)
04.05.2018 00:24 11,8 °C 94 % 1012,6 hPa 0,0 mm 0,0 km/h (0 Bft) O 88 ° 0 min 0,000 mm 0,0 UV-I 0 W/m² 10,9 °C 11,8 °C 0,0 km/h (0 Bft)
04.05.2018 00:25 11,8 °C 93 % 1012,6 hPa 0,0 mm 0,0 km/h (0 Bft) O 88 ° 0 min 0,000 mm 0,0 UV-I 0 W/m² 10,7 °C 11,8 °C 0,0 km/h (0 Bft)
04.05.2018 00:26 11,7 °C 93 % 1012,6 hPa 0,0 mm 0,3 km/h (0 Bft) O 86 ° 0 min 0,000 mm 0,0 UV-I 0 W/m² 10,6 °C 11,7 °C 1,6 km/h (1 Bft)
04.05.2018 00:27 11,8 °C 93 % 1012,6 hPa 0,0 mm 1,5 km/h (1 Bft) O 86 ° 0 min 0,000 mm 0,0 UV-I 0 W/m² 10,7 °C 11,8 °C 3,2 km/h (1 Bft)
04.05.2018 00:28 11,7 °C 93 % 1012,6 hPa 0,0 mm 2,9 km/h (1 Bft) N-NO 24 ° 0 min 0,000 mm 0,0 UV-I 0 W/m² 10,6 °C 11,7 °C 4,8 km/h (1 Bft)
04.05.2018 00:29 11,7 °C 93 % 1012,6 hPa 0,2 mm 1,4 km/h (1 Bft) N-NO 24 ° 0 min 0,000 mm 0,0 UV-I 0 W/m² 10,6 °C 11,7 °C 3,2 km/h (1 Bft)
04.05.2018 00:30 11,7 °C 93 % 1012,6 hPa 0,0 mm 0,0 km/h (0 Bft) N-NO 24 ° 0 min 0,000 mm 0,0 UV-I 0 W/m² 10,6 °C 11,7 °C 0,0 km/h (0 Bft)
04.05.2018 00:31 11,7 °C 93 % 1012,6 hPa 0,0 mm 0,0 km/h (0 Bft) N-NO 24 ° 0 min 0,000 mm 0,0 UV-I 0 W/m² 10,6 °C 11,7 °C 0,0 km/h (0 Bft)
04.05.2018 00:32 11,7 °C 93 % 1012,6 hPa 0,0 mm 0,0 km/h (0 Bft) N-NO 24 ° 0 min 0,000 mm 0,0 UV-I 0 W/m² 10,6 °C 11,7 °C 0,0 km/h (0 Bft)
04.05.2018 00:33 11,7 °C 93 % 1012,6 hPa 0,0 mm 0,0 km/h (0 Bft) N-NO 24 ° 0 min 0,000 mm 0,0 UV-I 0 W/m² 10,6 °C 11,7 °C 0,0 km/h (0 Bft)
04.05.2018 00:34 11,7 °C 93 % 1012,5 hPa 0,0 mm 0,0 km/h (0 Bft) N-NO 24 ° 0 min 0,000 mm 0,0 UV-I 0 W/m² 10,6 °C 11,7 °C 0,0 km/h (0 Bft)
04.05.2018 00:35 11,7 °C 93 % 1012,5 hPa 0,0 mm 0,0 km/h (0 Bft) N-NO 24 ° 0 min 0,000 mm 0,0 UV-I 0 W/m² 10,6 °C 11,7 °C 0,0 km/h (0 Bft)
04.05.2018 00:36 11,7 °C 93 % 1012,5 hPa 0,0 mm 0,0 km/h (0 Bft) N-NO 24 ° 0 min 0,000 mm 0,0 UV-I 0 W/m² 10,6 °C 11,7 °C 0,0 km/h (0 Bft)
04.05.2018 00:37 11,7 °C 93 % 1012,5 hPa 0,0 mm 0,0 km/h (0 Bft) N-NO 24 ° 0 min 0,000 mm 0,0 UV-I 0 W/m² 10,6 °C 11,7 °C 0,0 km/h (0 Bft)
04.05.2018 00:38 11,7 °C 93 % 1012,5 hPa 0,0 mm 0,1 km/h (0 Bft) N-NO 24 ° 0 min 0,000 mm 0,0 UV-I 0 W/m² 10,6 °C 11,7 °C 1,6 km/h (1 Bft)
04.05.2018 00:39 11,6 °C 93 % 1012,5 hPa 0,0 mm 0,3 km/h (0 Bft) N-NO 24 ° 0 min 0,000 mm 0,0 UV-I 0 W/m² 10,5 °C 11,6 °C 1,6 km/h (1 Bft)
04.05.2018 00:40 11,6 °C 93 % 1012,5 hPa 0,0 mm 0,1 km/h (0 Bft) N-NO 24 ° 0 min 0,000 mm 0,0 UV-I 0 W/m² 10,5 °C 11,6 °C 1,6 km/h (1 Bft)
04.05.2018 00:41 11,6 °C 93 % 1012,4 hPa 0,0 mm 1,4 km/h (1 Bft) O-SO 118 ° 0 min 0,000 mm 0,0 UV-I 0 W/m² 10,5 °C 11,6 °C 3,2 km/h (1 Bft)
04.05.2018 00:42 11,6 °C 93 % 1012,4 hPa 0,0 mm 1,7 km/h (1 Bft) O-SO 118 ° 0 min 0,000 mm 0,0 UV-I 0 W/m² 10,5 °C 11,6 °C 3,2 km/h (1 Bft)
04.05.2018 00:43 11,6 °C 93 % 1012,3 hPa 0,0 mm 0,0 km/h (0 Bft) O-SO 118 ° 0 min 0,000 mm 0,0 UV-I 0 W/m² 10,5 °C 11,6 °C 0,0 km/h (0 Bft)
04.05.2018 00:44 11,6 °C 93 % 1012,3 hPa 0,2 mm 0,0 km/h (0 Bft) O-SO 118 ° 0 min 0,000 mm 0,0 UV-I 0 W/m² 10,5 °C 11,6 °C 0,0 km/h (0 Bft)
04.05.2018 00:45 11,6 °C 93 % 1012,3 hPa 0,0 mm 0,0 km/h (0 Bft) O-SO 118 ° 0 min 0,000 mm 0,0 UV-I 0 W/m² 10,5 °C 11,6 °C 0,0 km/h (0 Bft)
04.05.2018 00:46 11,7 °C 93 % 1012,3 hPa 0,0 mm 0,0 km/h (0 Bft) O-SO 117 ° 0 min 0,000 mm 0,0 UV-I 0 W/m² 10,6 °C 11,7 °C 0,0 km/h (0 Bft)
04.05.2018 00:47 11,7 °C 93 % 1012,2 hPa 0,0 mm 0,0 km/h (0 Bft) O-SO 117 ° 0 min 0,000 mm 0,0 UV-I 0 W/m² 10,6 °C 11,7 °C 0,0 km/h (0 Bft)
04.05.2018 00:48 11,7 °C 93 % 1012,2 hPa 0,0 mm 0,0 km/h (0 Bft) O-SO 118 ° 0 min 0,000 mm 0,0 UV-I 0 W/m² 10,6 °C 11,7 °C 0,0 km/h (0 Bft)
04.05.2018 00:49 11,7 °C 93 % 1012,2 hPa 0,0 mm 0,0 km/h (0 Bft) O-SO 118 ° 0 min 0,000 mm 0,0 UV-I 0 W/m² 10,6 °C 11,7 °C 0,0 km/h (0 Bft)
04.05.2018 00:50 11,7 °C 93 % 1012,1 hPa 0,0 mm 0,0 km/h (0 Bft) O-SO 118 ° 0 min 0,000 mm 0,0 UV-I 0 W/m² 10,6 °C 11,7 °C 0,0 km/h (0 Bft)
04.05.2018 00:51 11,7 °C 93 % 1012,1 hPa 0,0 mm 0,0 km/h (0 Bft) O-SO 118 ° 0 min 0,000 mm 0,0 UV-I 0 W/m² 10,6 °C 11,7 °C 0,0 km/h (0 Bft)
04.05.2018 00:52 11,7 °C 93 % 1012,2 hPa 0,0 mm 0,0 km/h (0 Bft) O-SO 118 ° 0 min 0,000 mm 0,0 UV-I 0 W/m² 10,6 °C 11,7 °C 0,0 km/h (0 Bft)
04.05.2018 00:53 11,6 °C 93 % 1012,1 hPa 0,2 mm 0,0 km/h (0 Bft) O-SO 118 ° 0 min 0,000 mm 0,0 UV-I 0 W/m² 10,5 °C 11,6 °C 0,0 km/h (0 Bft)
04.05.2018 00:54 11,6 °C 93 % 1012,2 hPa 0,0 mm 0,0 km/h (0 Bft) O-SO 118 ° 0 min 0,000 mm 0,0 UV-I 0 W/m² 10,5 °C 11,6 °C 0,0 km/h (0 Bft)
04.05.2018 00:55 11,6 °C 93 % 1012,1 hPa 0,0 mm 0,0 km/h (0 Bft) O-SO 118 ° 0 min 0,000 mm 0,0 UV-I 0 W/m² 10,5 °C 11,6 °C 0,0 km/h (0 Bft)
04.05.2018 00:56 11,6 °C 93 % 1012,1 hPa 0,0 mm 0,0 km/h (0 Bft) O-SO 118 ° 0 min 0,000 mm 0,0 UV-I 0 W/m² 10,5 °C 11,6 °C 0,0 km/h (0 Bft)
04.05.2018 00:57 11,6 °C 93 % 1012,1 hPa 0,0 mm 0,0 km/h (0 Bft) O-SO 118 ° 0 min 0,000 mm 0,0 UV-I 0 W/m² 10,5 °C 11,6 °C 0,0 km/h (0 Bft)
04.05.2018 00:58 11,6 °C 93 % 1012,0 hPa 0,0 mm 0,0 km/h (0 Bft) O-SO 118 ° 0 min 0,000 mm 0,0 UV-I 0 W/m² 10,5 °C 11,6 °C 0,0 km/h (0 Bft)
04.05.2018 00:59 11,6 °C 93 % 1012,0 hPa 0,0 mm 0,0 km/h (0 Bft) O-SO 118 ° 0 min 0,000 mm 0,0 UV-I 0 W/m² 10,5 °C 11,6 °C 0,0 km/h (0 Bft)
04.05.2018 01:00 11,6 °C 94 % 1011,9 hPa 0,0 mm 0,0 km/h (0 Bft) O-SO 118 ° 0 min 0,000 mm 0,0 UV-I 0 W/m² 10,7 °C 11,6 °C 0,0 km/h (0 Bft)
04.05.2018 01:01 11,5 °C 94 % 1011,9 hPa 0,0 mm 0,0 km/h (0 Bft) O-SO 123 ° 0 min 0,000 mm 0,0 UV-I 0 W/m² 10,6 °C 11,5 °C 0,0 km/h (0 Bft)
04.05.2018 01:02 11,5 °C 93 % 1011,8 hPa 0,0 mm 0,0 km/h (0 Bft) O-SO 123 ° 0 min 0,000 mm 0,0 UV-I 0 W/m² 10,4 °C 11,5 °C 0,0 km/h (0 Bft)
04.05.2018 01:03 11,5 °C 93 % 1011,8 hPa 0,0 mm 0,0 km/h (0 Bft) O-SO 123 ° 0 min 0,000 mm 0,0 UV-I 0 W/m² 10,4 °C 11,5 °C 0,0 km/h (0 Bft)
04.05.2018 01:04 11,5 °C 93 % 1011,8 hPa 0,0 mm 0,0 km/h (0 Bft) O-SO 123 ° 0 min 0,000 mm 0,0 UV-I 0 W/m² 10,4 °C 11,5 °C 0,0 km/h (0 Bft)
04.05.2018 01:05 11,5 °C 93 % 1011,8 hPa 0,0 mm 0,0 km/h (0 Bft) O-SO 123 ° 0 min 0,000 mm 0,0 UV-I 0 W/m² 10,4 °C 11,5 °C 0,0 km/h (0 Bft)
04.05.2018 01:06 11,4 °C 93 % 1011,8 hPa 0,0 mm 0,0 km/h (0 Bft) O-SO 123 ° 0 min 0,000 mm 0,0 UV-I 0 W/m² 10,3 °C 11,4 °C 0,0 km/h (0 Bft)
04.05.2018 01:07 11,4 °C 93 % 1011,9 hPa 0,2 mm 0,0 km/h (0 Bft) O-SO 123 ° 0 min 0,000 mm 0,0 UV-I 0 W/m² 10,3 °C 11,4 °C 0,0 km/h (0 Bft)
04.05.2018 01:08 11,4 °C 93 % 1011,9 hPa 0,0 mm 0,0 km/h (0 Bft) O-SO 123 ° 0 min 0,000 mm 0,0 UV-I 0 W/m² 10,3 °C 11,4 °C 0,0 km/h (0 Bft)
04.05.2018 01:09 11,4 °C 93 % 1011,9 hPa 0,0 mm 0,0 km/h (0 Bft) O-SO 123 ° 0 min 0,000 mm 0,0 UV-I 0 W/m² 10,3 °C 11,4 °C 0,0 km/h (0 Bft)
04.05.2018 01:10 11,4 °C 93 % 1012,0 hPa 0,0 mm 0,0 km/h (0 Bft) O-SO 123 ° 0 min 0,000 mm 0,0 UV-I 0 W/m² 10,3 °C 11,4 °C 0,0 km/h (0 Bft)
04.05.2018 01:11 11,4 °C 93 % 1012,1 hPa 0,0 mm 0,0 km/h (0 Bft) O-SO 123 ° 0 min 0,000 mm 0,0 UV-I 0 W/m² 10,3 °C 11,4 °C 0,0 km/h (0 Bft)
04.05.2018 01:12 11,4 °C 93 % 1012,1 hPa 0,0 mm 0,0 km/h (0 Bft) O-SO 123 ° 0 min 0,000 mm 0,0 UV-I 0 W/m² 10,3 °C 11,4 °C 0,0 km/h (0 Bft)
04.05.2018 01:13 11,4 °C 93 % 1012,1 hPa 0,0 mm 0,0 km/h (0 Bft) O-SO 123 ° 0 min 0,000 mm 0,0 UV-I 0 W/m² 10,3 °C 11,4 °C 0,0 km/h (0 Bft)
04.05.2018 01:14 11,4 °C 94 % 1012,1 hPa 0,0 mm 0,0 km/h (0 Bft) O-SO 123 ° 0 min 0,000 mm 0,0 UV-I 0 W/m² 10,5 °C 11,4 °C 0,0 km/h (0 Bft)
04.05.2018 01:15 11,4 °C 94 % 1012,1 hPa 0,0 mm 0,0 km/h (0 Bft) O-SO 123 ° 0 min 0,000 mm 0,0 UV-I 0 W/m² 10,5 °C 11,4 °C 0,0 km/h (0 Bft)
04.05.2018 01:16 11,4 °C 94 % 1012,2 hPa 0,0 mm 0,0 km/h (0 Bft) O-SO 123 ° 0 min 0,000 mm 0,0 UV-I 0 W/m² 10,5 °C 11,4 °C 0,0 km/h (0 Bft)
04.05.2018 01:17 11,4 °C 94 % 1012,2 hPa 0,0 mm 0,0 km/h (0 Bft) O-SO 123 ° 0 min 0,000 mm 0,0 UV-I 0 W/m² 10,5 °C 11,4 °C 0,0 km/h (0 Bft)
04.05.2018 01:18 11,4 °C 94 % 1012,2 hPa 0,0 mm 0,0 km/h (0 Bft) O-SO 123 ° 0 min 0,000 mm 0,0 UV-I 0 W/m² 10,5 °C 11,4 °C 0,0 km/h (0 Bft)
04.05.2018 01:19 11,4 °C 94 % 1012,3 hPa 0,0 mm 0,0 km/h (0 Bft) O-SO 123 ° 0 min 0,000 mm 0,0 UV-I 0 W/m² 10,5 °C 11,4 °C 0,0 km/h (0 Bft)
04.05.2018 01:20 11,4 °C 94 % 1012,3 hPa 0,0 mm 0,0 km/h (0 Bft) O-SO 123 ° 0 min 0,000 mm 0,0 UV-I 0 W/m² 10,5 °C 11,4 °C 0,0 km/h (0 Bft)
04.05.2018 01:21 11,4 °C 94 % 1012,3 hPa 0,0 mm 0,0 km/h (0 Bft) O-SO 123 ° 0 min 0,000 mm 0,0 UV-I 0 W/m² 10,5 °C 11,4 °C 0,0 km/h (0 Bft)
04.05.2018 01:22 11,4 °C 94 % 1012,3 hPa 0,0 mm 0,0 km/h (0 Bft) O-SO 123 ° 0 min 0,000 mm 0,0 UV-I 0 W/m² 10,5 °C 11,4 °C 0,0 km/h (0 Bft)
04.05.2018 01:23 11,4 °C 94 % 1012,3 hPa 0,0 mm 0,0 km/h (0 Bft) O-SO 123 ° 0 min 0,000 mm 0,0 UV-I 0 W/m² 10,5 °C 11,4 °C 0,0 km/h (0 Bft)
04.05.2018 01:24 11,4 °C 94 % 1012,4 hPa 0,0 mm 0,0 km/h (0 Bft) O-SO 123 ° 0 min 0,000 mm 0,0 UV-I 0 W/m² 10,5 °C 11,4 °C 0,0 km/h (0 Bft)
04.05.2018 01:25 11,4 °C 94 % 1012,4 hPa 0,0 mm 0,0 km/h (0 Bft) O-SO 123 ° 0 min 0,000 mm 0,0 UV-I 0 W/m² 10,5 °C 11,4 °C 0,0 km/h (0 Bft)
04.05.2018 01:26 11,4 °C 94 % 1012,4 hPa 0,0 mm 0,0 km/h (0 Bft) O-SO 123 ° 0 min 0,000 mm 0,0 UV-I 0 W/m² 10,5 °C 11,4 °C 0,0 km/h (0 Bft)
04.05.2018 01:27 11,4 °C 94 % 1012,4 hPa 0,0 mm 0,0 km/h (0 Bft) O-SO 123 ° 0 min 0,000 mm 0,0 UV-I 0 W/m² 10,5 °C 11,4 °C 0,0 km/h (0 Bft)
04.05.2018 01:28 11,4 °C 94 % 1012,4 hPa 0,0 mm 0,0 km/h (0 Bft) O-SO 123 ° 0 min 0,000 mm 0,0 UV-I 0 W/m² 10,5 °C 11,4 °C 0,0 km/h (0 Bft)
04.05.2018 01:29 11,4 °C 94 % 1012,5 hPa 0,0 mm 0,0 km/h (0 Bft) O-SO 123 ° 0 min 0,000 mm 0,0 UV-I 0 W/m² 10,5 °C 11,4 °C 0,0 km/h (0 Bft)
04.05.2018 01:30 11,4 °C 94 % 1012,5 hPa 0,0 mm 0,0 km/h (0 Bft) O-SO 123 ° 0 min 0,000 mm 0,0 UV-I 0 W/m² 10,5 °C 11,4 °C 0,0 km/h (0 Bft)
04.05.2018 01:31 11,4 °C 94 % 1012,5 hPa 0,0 mm 0,0 km/h (0 Bft) O-SO 123 ° 0 min 0,000 mm 0,0 UV-I 0 W/m² 10,5 °C 11,4 °C 0,0 km/h (0 Bft)
04.05.2018 01:32 11,4 °C 94 % 1012,5 hPa 0,0 mm 0,0 km/h (0 Bft) O-SO 123 ° 0 min 0,000 mm 0,0 UV-I 0 W/m² 10,5 °C 11,4 °C 0,0 km/h (0 Bft)
04.05.2018 01:33 11,4 °C 94 % 1012,5 hPa 0,0 mm 0,0 km/h (0 Bft) O-SO 123 ° 0 min 0,000 mm 0,0 UV-I 0 W/m² 10,5 °C 11,4 °C 0,0 km/h (0 Bft)
04.05.2018 01:34 11,4 °C 94 % 1012,5 hPa 0,0 mm 0,0 km/h (0 Bft) O-SO 123 ° 0 min 0,000 mm 0,0 UV-I 0 W/m² 10,5 °C 11,4 °C 0,0 km/h (0 Bft)
04.05.2018 01:35 11,4 °C 94 % 1012,5 hPa 0,0 mm 0,0 km/h (0 Bft) O-SO 123 ° 0 min 0,000 mm 0,0 UV-I 0 W/m² 10,5 °C 11,4 °C 0,0 km/h (0 Bft)
04.05.2018 01:36 11,4 °C 94 % 1012,5 hPa 0,0 mm 0,0 km/h (0 Bft) O-SO 123 ° 0 min 0,000 mm 0,0 UV-I 0 W/m² 10,5 °C 11,4 °C 0,0 km/h (0 Bft)
04.05.2018 01:37 11,4 °C 94 % 1012,5 hPa 0,0 mm 0,0 km/h (0 Bft) O-SO 123 ° 0 min 0,000 mm 0,0 UV-I 0 W/m² 10,5 °C 11,4 °C 0,0 km/h (0 Bft)
04.05.2018 01:38 11,4 °C 94 % 1012,5 hPa 0,0 mm 0,0 km/h (0 Bft) O-SO 123 ° 0 min 0,000 mm 0,0 UV-I 0 W/m² 10,5 °C 11,4 °C 0,0 km/h (0 Bft)
04.05.2018 01:39 11,4 °C 94 % 1012,5 hPa 0,0 mm 0,0 km/h (0 Bft) O-SO 123 ° 0 min 0,000 mm 0,0 UV-I 0 W/m² 10,5 °C 11,4 °C 0,0 km/h (0 Bft)
04.05.2018 01:40 11,4 °C 94 % 1012,5 hPa 0,0 mm 0,0 km/h (0 Bft) O-SO 123 ° 0 min 0,000 mm 0,0 UV-I 0 W/m² 10,5 °C 11,4 °C 0,0 km/h (0 Bft)
04.05.2018 01:41 11,4 °C 94 % 1012,5 hPa 0,0 mm 0,0 km/h (0 Bft) O-SO 123 ° 0 min 0,000 mm 0,0 UV-I 0 W/m² 10,5 °C 11,4 °C 0,0 km/h (0 Bft)
04.05.2018 01:42 11,4 °C 94 % 1012,5 hPa 0,0 mm 0,0 km/h (0 Bft) O-SO 123 ° 0 min 0,000 mm 0,0 UV-I 0 W/m² 10,5 °C 11,4 °C 0,0 km/h (0 Bft)
04.05.2018 01:43 11,4 °C 94 % 1012,5 hPa 0,0 mm 0,0 km/h (0 Bft) O-SO 123 ° 0 min 0,000 mm 0,0 UV-I 0 W/m² 10,5 °C 11,4 °C 0,0 km/h (0 Bft)
04.05.2018 01:44 11,4 °C 94 % 1012,5 hPa 0,0 mm 0,0 km/h (0 Bft) O-SO 123 ° 0 min 0,000 mm 0,0 UV-I 0 W/m² 10,5 °C 11,4 °C 0,0 km/h (0 Bft)
04.05.2018 01:45 11,5 °C 94 % 1012,4 hPa 0,0 mm 0,0 km/h (0 Bft) O-SO 123 ° 0 min 0,000 mm 0,0 UV-I 0 W/m² 10,6 °C 11,5 °C 0,0 km/h (0 Bft)
04.05.2018 01:46 11,5 °C 94 % 1012,4 hPa 0,0 mm 0,0 km/h (0 Bft) O-NO 70 ° 0 min 0,000 mm 0,0 UV-I 0 W/m² 10,6 °C 11,5 °C 0,0 km/h (0 Bft)
04.05.2018 01:47 11,4 °C 94 % 1012,4 hPa 0,0 mm 1,8 km/h (1 Bft) O-NO 70 ° 0 min 0,000 mm 0,0 UV-I 0 W/m² 10,5 °C 11,4 °C 3,2 km/h (1 Bft)
04.05.2018 01:48 11,4 °C 94 % 1012,4 hPa 0,0 mm 3,1 km/h (1 Bft) N 360 ° 0 min 0,000 mm 0,0 UV-I 0 W/m² 10,5 °C 11,4 °C 4,8 km/h (1 Bft)
04.05.2018 01:49 11,4 °C 94 % 1012,4 hPa 0,0 mm 3,6 km/h (1 Bft) N 355 ° 0 min 0,000 mm 0,0 UV-I 0 W/m² 10,5 °C 11,4 °C 4,8 km/h (1 Bft)
04.05.2018 01:50 11,4 °C 94 % 1012,4 hPa 0,0 mm 1,5 km/h (1 Bft) N 355 ° 0 min 0,000 mm 0,0 UV-I 0 W/m² 10,5 °C 11,4 °C 4,8 km/h (1 Bft)
04.05.2018 01:51 11,4 °C 94 % 1012,5 hPa 0,0 mm 1,8 km/h (1 Bft) NO 44 ° 0 min 0,000 mm 0,0 UV-I 0 W/m² 10,5 °C 11,4 °C 4,8 km/h (1 Bft)
04.05.2018 01:52 11,4 °C 94 % 1012,5 hPa 0,0 mm 0,0 km/h (0 Bft) NO 44 ° 0 min 0,000 mm 0,0 UV-I 0 W/m² 10,5 °C 11,4 °C 0,0 km/h (0 Bft)
04.05.2018 01:53 11,3 °C 94 % 1012,5 hPa 0,0 mm 0,0 km/h (0 Bft) NO 44 ° 0 min 0,000 mm 0,0 UV-I 0 W/m² 10,4 °C 11,3 °C 0,0 km/h (0 Bft)
04.05.2018 01:54 11,3 °C 94 % 1012,5 hPa 0,0 mm 1,0 km/h (0 Bft) NO 40 ° 0 min 0,000 mm 0,0 UV-I 0 W/m² 10,4 °C 11,3 °C 3,2 km/h (1 Bft)
04.05.2018 01:55 11,3 °C 94 % 1012,5 hPa 0,0 mm 3,8 km/h (1 Bft) NO 38 ° 0 min 0,000 mm 0,0 UV-I 0 W/m² 10,4 °C 11,3 °C 6,4 km/h (2 Bft)
04.05.2018 01:56 11,3 °C 94 % 1012,6 hPa 0,0 mm 1,0 km/h (0 Bft) NO 38 ° 0 min 0,000 mm 0,0 UV-I 0 W/m² 10,4 °C 11,3 °C 3,2 km/h (1 Bft)
04.05.2018 01:57 11,3 °C 94 % 1012,5 hPa 0,0 mm 0,6 km/h (0 Bft) NO 38 ° 0 min 0,000 mm 0,0 UV-I 0 W/m² 10,4 °C 11,3 °C 3,2 km/h (1 Bft)
04.05.2018 01:58 11,3 °C 94 % 1012,5 hPa 0,0 mm 0,0 km/h (0 Bft) NO 38 ° 0 min 0,000 mm 0,0 UV-I 0 W/m² 10,4 °C 11,3 °C 0,0 km/h (0 Bft)
04.05.2018 01:59 11,3 °C 94 % 1012,5 hPa 0,0 mm 0,0 km/h (0 Bft) NO 38 ° 0 min 0,000 mm 0,0 UV-I 0 W/m² 10,4 °C 11,3 °C 0,0 km/h (0 Bft)
04.05.2018 02:00 11,3 °C 94 % 1012,5 hPa 0,0 mm 0,0 km/h (0 Bft) NO 38 ° 0 min 0,000 mm 0,0 UV-I 0 W/m² 10,4 °C 11,3 °C 0,0 km/h (0 Bft)
04.05.2018 02:01 11,3 °C 94 % 1012,5 hPa 0,0 mm 0,3 km/h (0 Bft) NO 38 ° 0 min 0,000 mm 0,0 UV-I 0 W/m² 10,4 °C 11,3 °C 1,6 km/h (1 Bft)
04.05.2018 02:02 11,3 °C 94 % 1012,5 hPa 0,0 mm 0,0 km/h (0 Bft) NO 38 ° 0 min 0,000 mm 0,0 UV-I 0 W/m² 10,4 °C 11,3 °C 0,0 km/h (0 Bft)
04.05.2018 02:03 11,3 °C 94 % 1012,5 hPa 0,0 mm 0,0 km/h (0 Bft) NO 38 ° 0 min 0,000 mm 0,0 UV-I 0 W/m² 10,4 °C 11,3 °C 0,0 km/h (0 Bft)
04.05.2018 02:04 11,2 °C 94 % 1012,5 hPa 0,0 mm 0,3 km/h (0 Bft) NO 55 ° 0 min 0,000 mm 0,0 UV-I 0 W/m² 10,3 °C 11,2 °C 1,6 km/h (1 Bft)
04.05.2018 02:05 11,2 °C 94 % 1012,4 hPa 0,0 mm 0,0 km/h (0 Bft) NO 55 ° 0 min 0,000 mm 0,0 UV-I 0 W/m² 10,3 °C 11,2 °C 0,0 km/h (0 Bft)
04.05.2018 02:06 11,2 °C 94 % 1012,4 hPa 0,0 mm 0,0 km/h (0 Bft) NO 55 ° 0 min 0,000 mm 0,0 UV-I 0 W/m² 10,3 °C 11,2 °C 0,0 km/h (0 Bft)
04.05.2018 02:07 11,2 °C 94 % 1012,4 hPa 0,0 mm 0,2 km/h (0 Bft) NO 55 ° 0 min 0,000 mm 0,0 UV-I 0 W/m² 10,3 °C 11,2 °C 1,6 km/h (1 Bft)
04.05.2018 02:08 11,2 °C 94 % 1012,4 hPa 0,0 mm 0,0 km/h (0 Bft) NO 55 ° 0 min 0,000 mm 0,0 UV-I 0 W/m² 10,3 °C 11,2 °C 0,0 km/h (0 Bft)
04.05.2018 02:09 11,2 °C 94 % 1012,3 hPa 0,0 mm 2,1 km/h (1 Bft) NO 55 ° 0 min 0,000 mm 0,0 UV-I 0 W/m² 10,3 °C 11,2 °C 4,8 km/h (1 Bft)
04.05.2018 02:10 11,2 °C 94 % 1012,3 hPa 0,0 mm 0,0 km/h (0 Bft) NO 55 ° 0 min 0,000 mm 0,0 UV-I 0 W/m² 10,3 °C 11,2 °C 0,0 km/h (0 Bft)
04.05.2018 02:11 11,2 °C 94 % 1012,4 hPa 0,0 mm 0,0 km/h (0 Bft) NO 55 ° 0 min 0,000 mm 0,0 UV-I 0 W/m² 10,3 °C 11,2 °C 0,0 km/h (0 Bft)
04.05.2018 02:12 11,2 °C 94 % 1012,4 hPa 0,0 mm 0,0 km/h (0 Bft) NO 55 ° 0 min 0,000 mm 0,0 UV-I 0 W/m² 10,3 °C 11,2 °C 0,0 km/h (0 Bft)
04.05.2018 02:13 11,2 °C 94 % 1012,4 hPa 0,0 mm 0,0 km/h (0 Bft) NO 55 ° 0 min 0,000 mm 0,0 UV-I 0 W/m² 10,3 °C 11,2 °C 0,0 km/h (0 Bft)
04.05.2018 02:14 11,2 °C 94 % 1012,4 hPa 0,0 mm 0,0 km/h (0 Bft) NO 55 ° 0 min 0,000 mm 0,0 UV-I 0 W/m² 10,3 °C 11,2 °C 0,0 km/h (0 Bft)
04.05.2018 02:15 11,2 °C 94 % 1012,4 hPa 0,0 mm 0,0 km/h (0 Bft) NO 55 ° 0 min 0,000 mm 0,0 UV-I 0 W/m² 10,3 °C 11,2 °C 0,0 km/h (0 Bft)
04.05.2018 02:16 11,2 °C 94 % 1012,3 hPa 0,0 mm 0,0 km/h (0 Bft) NO 55 ° 0 min 0,000 mm 0,0 UV-I 0 W/m² 10,3 °C 11,2 °C 0,0 km/h (0 Bft)
04.05.2018 02:17 11,2 °C 94 % 1012,3 hPa 0,0 mm 0,5 km/h (0 Bft) NO 55 ° 0 min 0,000 mm 0,0 UV-I 0 W/m² 10,3 °C 11,2 °C 1,6 km/h (1 Bft)
04.05.2018 02:18 11,2 °C 94 % 1012,3 hPa 0,0 mm 0,0 km/h (0 Bft) NO 55 ° 0 min 0,000 mm 0,0 UV-I 0 W/m² 10,3 °C 11,2 °C 0,0 km/h (0 Bft)
04.05.2018 02:19 11,3 °C 94 % 1012,3 hPa 0,0 mm 0,0 km/h (0 Bft) NO 55 ° 0 min 0,000 mm 0,0 UV-I 0 W/m² 10,4 °C 11,3 °C 0,0 km/h (0 Bft)
04.05.2018 02:20 11,3 °C 94 % 1012,3 hPa 0,0 mm 0,0 km/h (0 Bft) NO 55 ° 0 min 0,000 mm 0,0 UV-I 0 W/m² 10,4 °C 11,3 °C 0,0 km/h (0 Bft)
04.05.2018 02:21 11,2 °C 94 % 1012,3 hPa 0,0 mm 0,0 km/h (0 Bft) NO 55 ° 0 min 0,000 mm 0,0 UV-I 0 W/m² 10,3 °C 11,2 °C 0,0 km/h (0 Bft)
04.05.2018 02:22 11,2 °C 94 % 1012,3 hPa 0,0 mm 0,2 km/h (0 Bft) NO 55 ° 0 min 0,000 mm 0,0 UV-I 0 W/m² 10,3 °C 11,2 °C 1,6 km/h (1 Bft)
04.05.2018 02:23 11,2 °C 94 % 1012,3 hPa 0,0 mm 0,0 km/h (0 Bft) NO 55 ° 0 min 0,000 mm 0,0 UV-I 0 W/m² 10,3 °C 11,2 °C 0,0 km/h (0 Bft)
04.05.2018 02:24 11,2 °C 94 % 1012,3 hPa 0,0 mm 0,0 km/h (0 Bft) NO 55 ° 0 min 0,000 mm 0,0 UV-I 0 W/m² 10,3 °C 11,2 °C 0,0 km/h (0 Bft)
04.05.2018 02:25 11,2 °C 94 % 1012,3 hPa 0,0 mm 0,0 km/h (0 Bft) NO 55 ° 0 min 0,000 mm 0,0 UV-I 0 W/m² 10,3 °C 11,2 °C 0,0 km/h (0 Bft)
04.05.2018 02:26 11,2 °C 94 % 1012,3 hPa 0,0 mm 0,0 km/h (0 Bft) NO 55 ° 0 min 0,000 mm 0,0 UV-I 0 W/m² 10,3 °C 11,2 °C 0,0 km/h (0 Bft)
04.05.2018 02:27 11,2 °C 94 % 1012,3 hPa 0,0 mm 0,0 km/h (0 Bft) NO 55 ° 0 min 0,000 mm 0,0 UV-I 0 W/m² 10,3 °C 11,2 °C 0,0 km/h (0 Bft)
04.05.2018 02:28 11,2 °C 94 % 1012,3 hPa 0,0 mm 0,0 km/h (0 Bft) NO 55 ° 0 min 0,000 mm 0,0 UV-I 0 W/m² 10,3 °C 11,2 °C 0,0 km/h (0 Bft)
04.05.2018 02:29 11,2 °C 94 % 1012,4 hPa 0,0 mm 0,0 km/h (0 Bft) NO 55 ° 0 min 0,000 mm 0,0 UV-I 0 W/m² 10,3 °C 11,2 °C 0,0 km/h (0 Bft)
04.05.2018 02:30 11,2 °C 94 % 1012,4 hPa 0,0 mm 0,0 km/h (0 Bft) NO 55 ° 0 min 0,000 mm 0,0 UV-I 0 W/m² 10,3 °C 11,2 °C 0,0 km/h (0 Bft)
04.05.2018 02:31 11,2 °C 93 % 1012,4 hPa 0,0 mm 0,0 km/h (0 Bft) NO 55 ° 0 min 0,000 mm 0,0 UV-I 0 W/m² 10,1 °C 11,2 °C 0,0 km/h (0 Bft)
04.05.2018 02:32 11,2 °C 93 % 1012,4 hPa 0,0 mm 0,0 km/h (0 Bft) NO 55 ° 0 min 0,000 mm 0,0 UV-I 0 W/m² 10,1 °C 11,2 °C 0,0 km/h (0 Bft)
04.05.2018 02:33 11,2 °C 94 % 1012,4 hPa 0,0 mm 0,0 km/h (0 Bft) NO 55 ° 0 min 0,000 mm 0,0 UV-I 0 W/m² 10,3 °C 11,2 °C 0,0 km/h (0 Bft)
04.05.2018 02:34 11,2 °C 93 % 1012,4 hPa 0,0 mm 0,0 km/h (0 Bft) NO 55 ° 0 min 0,000 mm 0,0 UV-I 0 W/m² 10,1 °C 11,2 °C 0,0 km/h (0 Bft)
04.05.2018 02:35 11,1 °C 93 % 1012,4 hPa 0,0 mm 0,0 km/h (0 Bft) NO 55 ° 0 min 0,000 mm 0,0 UV-I 0 W/m² 10,0 °C 11,1 °C 0,0 km/h (0 Bft)
04.05.2018 02:36 11,2 °C 94 % 1012,4 hPa 0,0 mm 0,0 km/h (0 Bft) NO 55 ° 0 min 0,000 mm 0,0 UV-I 0 W/m² 10,3 °C 11,2 °C 0,0 km/h (0 Bft)
04.05.2018 02:37 11,2 °C 94 % 1012,4 hPa 0,0 mm 0,0 km/h (0 Bft) NO 55 ° 0 min 0,000 mm 0,0 UV-I 0 W/m² 10,3 °C 11,2 °C 0,0 km/h (0 Bft)
04.05.2018 02:38 11,2 °C 93 % 1012,4 hPa 0,0 mm 0,0 km/h (0 Bft) NO 55 ° 0 min 0,000 mm 0,0 UV-I 0 W/m² 10,1 °C 11,2 °C 0,0 km/h (0 Bft)
04.05.2018 02:39 11,1 °C 93 % 1012,3 hPa 0,0 mm 0,0 km/h (0 Bft) NO 55 ° 0 min 0,000 mm 0,0 UV-I 0 W/m² 10,0 °C 11,1 °C 0,0 km/h (0 Bft)
04.05.2018 02:40 11,1 °C 94 % 1012,4 hPa 0,0 mm 0,0 km/h (0 Bft) NO 55 ° 0 min 0,000 mm 0,0 UV-I 0 W/m² 10,2 °C 11,1 °C 0,0 km/h (0 Bft)
04.05.2018 02:41 11,1 °C 93 % 1012,4 hPa 0,0 mm 0,0 km/h (0 Bft) NO 55 ° 0 min 0,000 mm 0,0 UV-I 0 W/m² 10,0 °C 11,1 °C 0,0 km/h (0 Bft)
04.05.2018 02:42 11,1 °C 93 % 1012,4 hPa 0,0 mm 0,0 km/h (0 Bft) NO 55 ° 0 min 0,000 mm 0,0 UV-I 0 W/m² 10,0 °C 11,1 °C 0,0 km/h (0 Bft)
04.05.2018 02:43 11,1 °C 93 % 1012,4 hPa 0,0 mm 0,0 km/h (0 Bft) NO 55 ° 0 min 0,000 mm 0,0 UV-I 0 W/m² 10,0 °C 11,1 °C 0,0 km/h (0 Bft)
04.05.2018 02:44 11,1 °C 93 % 1012,4 hPa 0,0 mm 0,0 km/h (0 Bft) NO 55 ° 0 min 0,000 mm 0,0 UV-I 0 W/m² 10,0 °C 11,1 °C 0,0 km/h (0 Bft)
04.05.2018 02:45 11,1 °C 93 % 1012,4 hPa 0,0 mm 0,0 km/h (0 Bft) NO 55 ° 0 min 0,000 mm 0,0 UV-I 0 W/m² 10,0 °C 11,1 °C 0,0 km/h (0 Bft)
04.05.2018 02:46 11,1 °C 93 % 1012,5 hPa 0,0 mm 0,0 km/h (0 Bft) NO 55 ° 0 min 0,000 mm 0,0 UV-I 0 W/m² 10,0 °C 11,1 °C 0,0 km/h (0 Bft)
04.05.2018 02:47 11,0 °C 93 % 1012,5 hPa 0,0 mm 0,0 km/h (0 Bft) NO 55 ° 0 min 0,000 mm 0,0 UV-I 0 W/m² 9,9 °C 11,0 °C 0,0 km/h (0 Bft)
04.05.2018 02:48 11,0 °C 93 % 1012,5 hPa 0,0 mm 0,0 km/h (0 Bft) NO 55 ° 0 min 0,000 mm 0,0 UV-I 0 W/m² 9,9 °C 11,0 °C 0,0 km/h (0 Bft)
04.05.2018 02:49 11,0 °C 93 % 1012,6 hPa 0,0 mm 0,0 km/h (0 Bft) NO 55 ° 0 min 0,000 mm 0,0 UV-I 0 W/m² 9,9 °C 11,0 °C 0,0 km/h (0 Bft)
04.05.2018 02:50 10,9 °C 93 % 1012,6 hPa 0,0 mm 0,0 km/h (0 Bft) NO 55 ° 0 min 0,000 mm 0,0 UV-I 0 W/m² 9,8 °C 10,9 °C 0,0 km/h (0 Bft)
04.05.2018 02:51 10,9 °C 93 % 1012,5 hPa 0,0 mm 0,0 km/h (0 Bft) NO 55 ° 0 min 0,000 mm 0,0 UV-I 0 W/m² 9,8 °C 10,9 °C 0,0 km/h (0 Bft)
04.05.2018 02:52 10,9 °C 93 % 1012,5 hPa 0,0 mm 0,0 km/h (0 Bft) NO 55 ° 0 min 0,000 mm 0,0 UV-I 0 W/m² 9,8 °C 10,9 °C 0,0 km/h (0 Bft)
04.05.2018 02:53 10,9 °C 93 % 1012,5 hPa 0,0 mm 0,0 km/h (0 Bft) NO 55 ° 0 min 0,000 mm 0,0 UV-I 0 W/m² 9,8 °C 10,9 °C 0,0 km/h (0 Bft)
04.05.2018 02:54 10,9 °C 93 % 1012,5 hPa 0,0 mm 0,0 km/h (0 Bft) NO 55 ° 0 min 0,000 mm 0,0 UV-I 0 W/m² 9,8 °C 10,9 °C 0,0 km/h (0 Bft)
04.05.2018 02:55 10,9 °C 93 % 1012,5 hPa 0,0 mm 0,0 km/h (0 Bft) NO 55 ° 0 min 0,000 mm 0,0 UV-I 0 W/m² 9,8 °C 10,9 °C 0,0 km/h (0 Bft)
04.05.2018 02:56 10,9 °C 93 % 1012,5 hPa 0,0 mm 0,0 km/h (0 Bft) NO 55 ° 0 min 0,000 mm 0,0 UV-I 0 W/m² 9,8 °C 10,9 °C 0,0 km/h (0 Bft)
04.05.2018 02:57 10,9 °C 93 % 1012,5 hPa 0,0 mm 0,0 km/h (0 Bft) NO 55 ° 0 min 0,000 mm 0,0 UV-I 0 W/m² 9,8 °C 10,9 °C 0,0 km/h (0 Bft)
04.05.2018 02:58 10,9 °C 93 % 1012,6 hPa 0,0 mm 0,0 km/h (0 Bft) NO 55 ° 0 min 0,000 mm 0,0 UV-I 0 W/m² 9,8 °C 10,9 °C 0,0 km/h (0 Bft)
04.05.2018 02:59 10,9 °C 93 % 1012,6 hPa 0,0 mm 0,0 km/h (0 Bft) NO 55 ° 0 min 0,000 mm 0,0 UV-I 0 W/m² 9,8 °C 10,9 °C 0,0 km/h (0 Bft)
04.05.2018 03:00 10,9 °C 93 % 1012,5 hPa 0,0 mm 0,0 km/h (0 Bft) NO 55 ° 0 min 0,000 mm 0,0 UV-I 0 W/m² 9,8 °C 10,9 °C 0,0 km/h (0 Bft)
04.05.2018 03:01 10,9 °C 93 % 1012,5 hPa 0,0 mm 0,0 km/h (0 Bft) NO 55 ° 0 min 0,000 mm 0,0 UV-I 0 W/m² 9,8 °C 10,9 °C 0,0 km/h (0 Bft)
04.05.2018 03:02 10,9 °C 93 % 1012,5 hPa 0,0 mm 0,0 km/h (0 Bft) NO 55 ° 0 min 0,000 mm 0,0 UV-I 0 W/m² 9,8 °C 10,9 °C 0,0 km/h (0 Bft)
04.05.2018 03:03 10,9 °C 93 % 1012,5 hPa 0,0 mm 0,0 km/h (0 Bft) NO 55 ° 0 min 0,000 mm 0,0 UV-I 0 W/m² 9,8 °C 10,9 °C 0,0 km/h (0 Bft)
04.05.2018 03:04 10,9 °C 93 % 1012,5 hPa 0,0 mm 0,0 km/h (0 Bft) NO 55 ° 0 min 0,000 mm 0,0 UV-I 0 W/m² 9,8 °C 10,9 °C 0,0 km/h (0 Bft)
04.05.2018 03:05 10,9 °C 94 % 1012,5 hPa 0,0 mm 0,0 km/h (0 Bft) NO 55 ° 0 min 0,000 mm 0,0 UV-I 0 W/m² 10,0 °C 10,9 °C 0,0 km/h (0 Bft)
04.05.2018 03:06 10,9 °C 94 % 1012,5 hPa 0,0 mm 0,0 km/h (0 Bft) NO 55 ° 0 min 0,000 mm 0,0 UV-I 0 W/m² 10,0 °C 10,9 °C 0,0 km/h (0 Bft)
04.05.2018 03:07 10,9 °C 93 % 1012,5 hPa 0,0 mm 0,0 km/h (0 Bft) NO 55 ° 0 min 0,000 mm 0,0 UV-I 0 W/m² 9,8 °C 10,9 °C 0,0 km/h (0 Bft)
04.05.2018 03:08 10,9 °C 94 % 1012,5 hPa 0,0 mm 0,0 km/h (0 Bft) NO 55 ° 0 min 0,000 mm 0,0 UV-I 0 W/m² 10,0 °C 10,9 °C 0,0 km/h (0 Bft)
04.05.2018 03:09 10,9 °C 94 % 1012,5 hPa 0,0 mm 0,0 km/h (0 Bft) NO 55 ° 0 min 0,000 mm 0,0 UV-I 0 W/m² 10,0 °C 10,9 °C 0,0 km/h (0 Bft)
04.05.2018 03:10 10,9 °C 94 % 1012,5 hPa 0,0 mm 0,0 km/h (0 Bft) NO 55 ° 0 min 0,000 mm 0,0 UV-I 0 W/m² 10,0 °C 10,9 °C 0,0 km/h (0 Bft)
04.05.2018 03:11 10,9 °C 94 % 1012,5 hPa 0,0 mm 0,0 km/h (0 Bft) NO 55 ° 0 min 0,000 mm 0,0 UV-I 0 W/m² 10,0 °C 10,9 °C 0,0 km/h (0 Bft)
04.05.2018 03:12 10,9 °C 94 % 1012,5 hPa 0,0 mm 0,0 km/h (0 Bft) NO 55 ° 0 min 0,000 mm 0,0 UV-I 0 W/m² 10,0 °C 10,9 °C 0,0 km/h (0 Bft)
04.05.2018 03:13 10,9 °C 94 % 1012,5 hPa 0,0 mm 0,0 km/h (0 Bft) NO 55 ° 0 min 0,000 mm 0,0 UV-I 0 W/m² 10,0 °C 10,9 °C 0,0 km/h (0 Bft)
04.05.2018 03:14 10,9 °C 94 % 1012,5 hPa 0,0 mm 0,0 km/h (0 Bft) NO 55 ° 0 min 0,000 mm 0,0 UV-I 0 W/m² 10,0 °C 10,9 °C 0,0 km/h (0 Bft)
04.05.2018 03:15 10,9 °C 94 % 1012,5 hPa 0,0 mm 0,0 km/h (0 Bft) NO 55 ° 0 min 0,000 mm 0,0 UV-I 0 W/m² 10,0 °C 10,9 °C 0,0 km/h (0 Bft)
04.05.2018 03:16 10,9 °C 93 % 1012,5 hPa 0,0 mm 0,0 km/h (0 Bft) NO 55 ° 0 min 0,000 mm 0,0 UV-I 0 W/m² 9,8 °C 10,9 °C 0,0 km/h (0 Bft)
04.05.2018 03:17 10,9 °C 93 % 1012,5 hPa 0,0 mm 0,0 km/h (0 Bft) NO 55 ° 0 min 0,000 mm 0,0 UV-I 0 W/m² 9,8 °C 10,9 °C 0,0 km/h (0 Bft)
04.05.2018 03:18 10,9 °C 93 % 1012,5 hPa 0,0 mm 0,0 km/h (0 Bft) NO 55 ° 0 min 0,000 mm 0,0 UV-I 0 W/m² 9,8 °C 10,9 °C 0,0 km/h (0 Bft)
04.05.2018 03:19 10,9 °C 93 % 1012,5 hPa 0,0 mm 0,0 km/h (0 Bft) NO 55 ° 0 min 0,000 mm 0,0 UV-I 0 W/m² 9,8 °C 10,9 °C 0,0 km/h (0 Bft)
04.05.2018 03:20 10,9 °C 93 % 1012,5 hPa 0,0 mm 0,0 km/h (0 Bft) NO 55 ° 0 min 0,000 mm 0,0 UV-I 0 W/m² 9,8 °C 10,9 °C 0,0 km/h (0 Bft)
04.05.2018 03:21 10,9 °C 93 % 1012,5 hPa 0,0 mm 0,0 km/h (0 Bft) NO 55 ° 0 min 0,000 mm 0,0 UV-I 0 W/m² 9,8 °C 10,9 °C 0,0 km/h (0 Bft)
04.05.2018 03:22 10,9 °C 93 % 1012,5 hPa 0,0 mm 0,0 km/h (0 Bft) NO 55 ° 0 min 0,000 mm 0,0 UV-I 0 W/m² 9,8 °C 10,9 °C 0,0 km/h (0 Bft)
04.05.2018 03:23 10,9 °C 93 % 1012,5 hPa 0,0 mm 0,0 km/h (0 Bft) NO 55 ° 0 min 0,000 mm 0,0 UV-I 0 W/m² 9,8 °C 10,9 °C 0,0 km/h (0 Bft)
04.05.2018 03:24 10,9 °C 93 % 1012,5 hPa 0,0 mm 0,0 km/h (0 Bft) NO 55 ° 0 min 0,000 mm 0,0 UV-I 0 W/m² 9,8 °C 10,9 °C 0,0 km/h (0 Bft)
04.05.2018 03:25 10,8 °C 93 % 1012,5 hPa 0,0 mm 0,0 km/h (0 Bft) NO 55 ° 0 min 0,000 mm 0,0 UV-I 0 W/m² 9,7 °C 10,8 °C 0,0 km/h (0 Bft)
04.05.2018 03:26 10,8 °C 93 % 1012,5 hPa 0,0 mm 0,0 km/h (0 Bft) NO 55 ° 0 min 0,000 mm 0,0 UV-I 0 W/m² 9,7 °C 10,8 °C 0,0 km/h (0 Bft)
04.05.2018 03:27 10,8 °C 93 % 1012,5 hPa 0,0 mm 0,0 km/h (0 Bft) NO 55 ° 0 min 0,000 mm 0,0 UV-I 0 W/m² 9,7 °C 10,8 °C 0,0 km/h (0 Bft)
04.05.2018 03:28 10,8 °C 93 % 1012,5 hPa 0,0 mm 0,0 km/h (0 Bft) NO 55 ° 0 min 0,000 mm 0,0 UV-I 0 W/m² 9,7 °C 10,8 °C 0,0 km/h (0 Bft)
04.05.2018 03:29 10,8 °C 93 % 1012,5 hPa 0,0 mm 0,0 km/h (0 Bft) NO 55 ° 0 min 0,000 mm 0,0 UV-I 0 W/m² 9,7 °C 10,8 °C 0,0 km/h (0 Bft)
04.05.2018 03:30 10,8 °C 94 % 1012,5 hPa 0,0 mm 0,0 km/h (0 Bft) NO 55 ° 0 min 0,000 mm 0,0 UV-I 0 W/m² 9,9 °C 10,8 °C 0,0 km/h (0 Bft)
04.05.2018 03:31 10,8 °C 93 % 1012,5 hPa 0,0 mm 0,0 km/h (0 Bft) NO 55 ° 0 min 0,000 mm 0,0 UV-I 0 W/m² 9,7 °C 10,8 °C 0,0 km/h (0 Bft)
04.05.2018 03:32 10,8 °C 93 % 1012,5 hPa 0,0 mm 0,0 km/h (0 Bft) NO 55 ° 0 min 0,000 mm 0,0 UV-I 0 W/m² 9,7 °C 10,8 °C 0,0 km/h (0 Bft)
04.05.2018 03:33 10,8 °C 94 % 1012,5 hPa 0,0 mm 0,0 km/h (0 Bft) NO 55 ° 0 min 0,000 mm 0,0 UV-I 0 W/m² 9,9 °C 10,8 °C 0,0 km/h (0 Bft)
04.05.2018 03:34 10,8 °C 94 % 1012,6 hPa 0,0 mm 0,0 km/h (0 Bft) NO 55 ° 0 min 0,000 mm 0,0 UV-I 0 W/m² 9,9 °C 10,8 °C 0,0 km/h (0 Bft)
04.05.2018 03:35 10,8 °C 93 % 1012,6 hPa 0,0 mm 0,0 km/h (0 Bft) NO 55 ° 0 min 0,000 mm 0,0 UV-I 0 W/m² 9,7 °C 10,8 °C 0,0 km/h (0 Bft)
04.05.2018 03:36 10,8 °C 93 % 1012,6 hPa 0,0 mm 0,0 km/h (0 Bft) NO 55 ° 0 min 0,000 mm 0,0 UV-I 0 W/m² 9,7 °C 10,8 °C 0,0 km/h (0 Bft)
04.05.2018 03:37 10,8 °C 93 % 1012,6 hPa 0,0 mm 0,0 km/h (0 Bft) NO 55 ° 0 min 0,000 mm 0,0 UV-I 0 W/m² 9,7 °C 10,8 °C 0,0 km/h (0 Bft)
04.05.2018 03:38 10,8 °C 93 % 1012,5 hPa 0,0 mm 0,0 km/h (0 Bft) NO 55 ° 0 min 0,000 mm 0,0 UV-I 0 W/m² 9,7 °C 10,8 °C 0,0 km/h (0 Bft)
04.05.2018 03:39 10,9 °C 93 % 1012,6 hPa 0,0 mm 0,0 km/h (0 Bft) NO 55 ° 0 min 0,000 mm 0,0 UV-I 0 W/m² 9,8 °C 10,9 °C 0,0 km/h (0 Bft)
04.05.2018 03:40 10,9 °C 93 % 1012,6 hPa 0,0 mm 0,0 km/h (0 Bft) NO 55 ° 0 min 0,000 mm 0,0 UV-I 0 W/m² 9,8 °C 10,9 °C 0,0 km/h (0 Bft)
04.05.2018 03:41 10,8 °C 93 % 1012,5 hPa 0,0 mm 0,0 km/h (0 Bft) NO 55 ° 0 min 0,000 mm 0,0 UV-I 0 W/m² 9,7 °C 10,8 °C 0,0 km/h (0 Bft)
04.05.2018 03:42 10,8 °C 93 % 1012,5 hPa 0,0 mm 0,0 km/h (0 Bft) NO 55 ° 0 min 0,000 mm 0,0 UV-I 0 W/m² 9,7 °C 10,8 °C 0,0 km/h (0 Bft)
04.05.2018 03:43 10,9 °C 93 % 1012,5 hPa 0,0 mm 0,0 km/h (0 Bft) NO 55 ° 0 min 0,000 mm 0,0 UV-I 0 W/m² 9,8 °C 10,9 °C 0,0 km/h (0 Bft)
04.05.2018 03:44 10,9 °C 93 % 1012,5 hPa 0,0 mm 0,0 km/h (0 Bft) NO 55 ° 0 min 0,000 mm 0,0 UV-I 0 W/m² 9,8 °C 10,9 °C 0,0 km/h (0 Bft)
04.05.2018 03:45 10,9 °C 93 % 1012,5 hPa 0,0 mm 0,0 km/h (0 Bft) NO 55 ° 0 min 0,000 mm 0,0 UV-I 0 W/m² 9,8 °C 10,9 °C 0,0 km/h (0 Bft)
04.05.2018 03:46 10,8 °C 93 % 1012,5 hPa 0,0 mm 0,0 km/h (0 Bft) NO 55 ° 0 min 0,000 mm 0,0 UV-I 0 W/m² 9,7 °C 10,8 °C 0,0 km/h (0 Bft)
04.05.2018 03:47 10,9 °C 93 % 1012,5 hPa 0,0 mm 0,0 km/h (0 Bft) NO 55 ° 0 min 0,000 mm 0,0 UV-I 0 W/m² 9,8 °C 10,9 °C 0,0 km/h (0 Bft)
04.05.2018 03:48 10,9 °C 93 % 1012,5 hPa 0,0 mm 0,0 km/h (0 Bft) NO 55 ° 0 min 0,000 mm 0,0 UV-I 0 W/m² 9,8 °C 10,9 °C 0,0 km/h (0 Bft)
04.05.2018 03:49 10,8 °C 93 % 1012,5 hPa 0,0 mm 0,0 km/h (0 Bft) NO 55 ° 0 min 0,000 mm 0,0 UV-I 0 W/m² 9,7 °C 10,8 °C 0,0 km/h (0 Bft)
04.05.2018 03:50 10,8 °C 93 % 1012,6 hPa 0,0 mm 0,0 km/h (0 Bft) NO 55 ° 0 min 0,000 mm 0,0 UV-I 0 W/m² 9,7 °C 10,8 °C 0,0 km/h (0 Bft)
04.05.2018 03:51 10,8 °C 93 % 1012,6 hPa 0,0 mm 0,0 km/h (0 Bft) NO 55 ° 0 min 0,000 mm 0,0 UV-I 0 W/m² 9,7 °C 10,8 °C 0,0 km/h (0 Bft)
04.05.2018 03:52 10,8 °C 93 % 1012,5 hPa 0,0 mm 0,0 km/h (0 Bft) NO 55 ° 0 min 0,000 mm 0,0 UV-I 0 W/m² 9,7 °C 10,8 °C 0,0 km/h (0 Bft)
04.05.2018 03:53 10,8 °C 93 % 1012,5 hPa 0,0 mm 0,0 km/h (0 Bft) NO 55 ° 0 min 0,000 mm 0,0 UV-I 0 W/m² 9,7 °C 10,8 °C 0,0 km/h (0 Bft)
04.05.2018 03:54 10,8 °C 93 % 1012,5 hPa 0,0 mm 0,0 km/h (0 Bft) NO 55 ° 0 min 0,000 mm 0,0 UV-I 0 W/m² 9,7 °C 10,8 °C 0,0 km/h (0 Bft)
04.05.2018 03:55 10,8 °C 93 % 1012,5 hPa 0,0 mm 0,0 km/h (0 Bft) NO 55 ° 0 min 0,000 mm 0,0 UV-I 0 W/m² 9,7 °C 10,8 °C 0,0 km/h (0 Bft)
04.05.2018 03:56 10,8 °C 93 % 1012,5 hPa 0,0 mm 0,0 km/h (0 Bft) NO 55 ° 0 min 0,000 mm 0,0 UV-I 0 W/m² 9,7 °C 10,8 °C 0,0 km/h (0 Bft)
04.05.2018 03:57 10,7 °C 93 % 1012,5 hPa 0,0 mm 0,0 km/h (0 Bft) NO 55 ° 0 min 0,000 mm 0,0 UV-I 0 W/m² 9,6 °C 10,7 °C 0,0 km/h (0 Bft)
04.05.2018 03:58 10,8 °C 93 % 1012,5 hPa 0,0 mm 0,0 km/h (0 Bft) NO 55 ° 0 min 0,000 mm 0,0 UV-I 0 W/m² 9,7 °C 10,8 °C 0,0 km/h (0 Bft)
04.05.2018 03:59 10,8 °C 93 % 1012,5 hPa 0,0 mm 0,0 km/h (0 Bft) NO 55 ° 0 min 0,000 mm 0,0 UV-I 0 W/m² 9,7 °C 10,8 °C 0,0 km/h (0 Bft)
04.05.2018 04:00 10,8 °C 93 % 1012,5 hPa 0,0 mm 0,0 km/h (0 Bft) NO 55 ° 0 min 0,000 mm 0,0 UV-I 0 W/m² 9,7 °C 10,8 °C 0,0 km/h (0 Bft)
04.05.2018 04:01 10,7 °C 93 % 1012,5 hPa 0,0 mm 0,0 km/h (0 Bft) NO 55 ° 0 min 0,000 mm 0,0 UV-I 0 W/m² 9,6 °C 10,7 °C 0,0 km/h (0 Bft)
04.05.2018 04:02 10,7 °C 93 % 1012,5 hPa 0,0 mm 0,0 km/h (0 Bft) NO 55 ° 0 min 0,000 mm 0,0 UV-I 0 W/m² 9,6 °C 10,7 °C 0,0 km/h (0 Bft)
04.05.2018 04:03 10,7 °C 93 % 1012,6 hPa 0,0 mm 0,0 km/h (0 Bft) NO 55 ° 0 min 0,000 mm 0,0 UV-I 0 W/m² 9,6 °C 10,7 °C 0,0 km/h (0 Bft)
04.05.2018 04:04 10,7 °C 93 % 1012,6 hPa 0,0 mm 0,0 km/h (0 Bft) NO 55 ° 0 min 0,000 mm 0,0 UV-I 0 W/m² 9,6 °C 10,7 °C 0,0 km/h (0 Bft)
04.05.2018 04:05 10,7 °C 93 % 1012,6 hPa 0,0 mm 0,0 km/h (0 Bft) NO 55 ° 0 min 0,000 mm 0,0 UV-I 0 W/m² 9,6 °C 10,7 °C 0,0 km/h (0 Bft)
04.05.2018 04:06 10,7 °C 93 % 1012,6 hPa 0,0 mm 0,0 km/h (0 Bft) NO 55 ° 0 min 0,000 mm 0,0 UV-I 0 W/m² 9,6 °C 10,7 °C 0,0 km/h (0 Bft)
04.05.2018 04:07 10,7 °C 93 % 1012,6 hPa 0,0 mm 0,0 km/h (0 Bft) NO 55 ° 0 min 0,000 mm 0,0 UV-I 0 W/m² 9,6 °C 10,7 °C 0,0 km/h (0 Bft)
04.05.2018 04:08 10,7 °C 93 % 1012,6 hPa 0,0 mm 0,0 km/h (0 Bft) NO 55 ° 0 min 0,000 mm 0,0 UV-I 0 W/m² 9,6 °C 10,7 °C 0,0 km/h (0 Bft)
04.05.2018 04:09 10,7 °C 93 % 1012,6 hPa 0,0 mm 0,0 km/h (0 Bft) NO 55 ° 0 min 0,000 mm 0,0 UV-I 0 W/m² 9,6 °C 10,7 °C 0,0 km/h (0 Bft)
04.05.2018 04:10 10,7 °C 93 % 1012,5 hPa 0,0 mm 0,0 km/h (0 Bft) NO 55 ° 0 min 0,000 mm 0,0 UV-I 0 W/m² 9,6 °C 10,7 °C 0,0 km/h (0 Bft)
04.05.2018 04:11 10,7 °C 93 % 1012,6 hPa 0,0 mm 0,0 km/h (0 Bft) NO 55 ° 0 min 0,000 mm 0,0 UV-I 0 W/m² 9,6 °C 10,7 °C 0,0 km/h (0 Bft)
04.05.2018 04:12 10,7 °C 93 % 1012,5 hPa 0,0 mm 0,0 km/h (0 Bft) NO 55 ° 0 min 0,000 mm 0,0 UV-I 0 W/m² 9,6 °C 10,7 °C 0,0 km/h (0 Bft)
04.05.2018 04:13 10,7 °C 93 % 1012,5 hPa 0,0 mm 0,0 km/h (0 Bft) NO 55 ° 0 min 0,000 mm 0,0 UV-I 0 W/m² 9,6 °C 10,7 °C 0,0 km/h (0 Bft)
04.05.2018 04:14 10,7 °C 93 % 1012,6 hPa 0,0 mm 0,0 km/h (0 Bft) NO 55 ° 0 min 0,000 mm 0,0 UV-I 0 W/m² 9,6 °C 10,7 °C 0,0 km/h (0 Bft)
04.05.2018 04:15 10,7 °C 93 % 1012,6 hPa 0,0 mm 0,0 km/h (0 Bft) NO 55 ° 0 min 0,000 mm 0,0 UV-I 0 W/m² 9,6 °C 10,7 °C 0,0 km/h (0 Bft)
04.05.2018 04:16 10,7 °C 93 % 1012,6 hPa 0,0 mm 0,0 km/h (0 Bft) NO 55 ° 0 min 0,000 mm 0,0 UV-I 0 W/m² 9,6 °C 10,7 °C 0,0 km/h (0 Bft)
04.05.2018 04:17 10,6 °C 93 % 1012,6 hPa 0,0 mm 0,0 km/h (0 Bft) NO 55 ° 0 min 0,000 mm 0,0 UV-I 0 W/m² 9,5 °C 10,6 °C 0,0 km/h (0 Bft)
04.05.2018 04:18 10,6 °C 93 % 1012,6 hPa 0,0 mm 0,0 km/h (0 Bft) NO 55 ° 0 min 0,000 mm 0,0 UV-I 0 W/m² 9,5 °C 10,6 °C 0,0 km/h (0 Bft)
04.05.2018 04:19 10,6 °C 93 % 1012,6 hPa 0,0 mm 0,0 km/h (0 Bft) NO 55 ° 0 min 0,000 mm 0,0 UV-I 0 W/m² 9,5 °C 10,6 °C 0,0 km/h (0 Bft)
04.05.2018 04:20 10,7 °C 93 % 1012,6 hPa 0,0 mm 0,0 km/h (0 Bft) NO 55 ° 0 min 0,000 mm 0,0 UV-I 0 W/m² 9,6 °C 10,7 °C 0,0 km/h (0 Bft)
04.05.2018 04:21 10,6 °C 93 % 1012,6 hPa 0,0 mm 0,0 km/h (0 Bft) NO 55 ° 0 min 0,000 mm 0,0 UV-I 0 W/m² 9,5 °C 10,6 °C 0,0 km/h (0 Bft)
04.05.2018 04:22 10,6 °C 93 % 1012,5 hPa 0,0 mm 0,0 km/h (0 Bft) NO 55 ° 0 min 0,000 mm 0,0 UV-I 0 W/m² 9,5 °C 10,6 °C 0,0 km/h (0 Bft)
04.05.2018 04:23 10,6 °C 93 % 1012,6 hPa 0,0 mm 0,0 km/h (0 Bft) NO 55 ° 0 min 0,000 mm 0,0 UV-I 0 W/m² 9,5 °C 10,6 °C 0,0 km/h (0 Bft)
04.05.2018 04:24 10,6 °C 93 % 1012,6 hPa 0,0 mm 0,0 km/h (0 Bft) NO 55 ° 0 min 0,000 mm 0,0 UV-I 0 W/m² 9,5 °C 10,6 °C 0,0 km/h (0 Bft)
04.05.2018 04:25 10,6 °C 93 % 1012,6 hPa 0,0 mm 0,0 km/h (0 Bft) NO 55 ° 0 min 0,000 mm 0,0 UV-I 0 W/m² 9,5 °C 10,6 °C 0,0 km/h (0 Bft)
04.05.2018 04:26 10,6 °C 93 % 1012,6 hPa 0,0 mm 0,0 km/h (0 Bft) NO 55 ° 0 min 0,000 mm 0,0 UV-I 0 W/m² 9,5 °C 10,6 °C 0,0 km/h (0 Bft)
04.05.2018 04:27 10,6 °C 93 % 1012,5 hPa 0,0 mm 0,2 km/h (0 Bft) NO 55 ° 0 min 0,000 mm 0,0 UV-I 0 W/m² 9,5 °C 10,6 °C 1,6 km/h (1 Bft)
04.05.2018 04:28 10,6 °C 93 % 1012,5 hPa 0,0 mm 1,0 km/h (0 Bft) NO 55 ° 0 min 0,000 mm 0,0 UV-I 0 W/m² 9,5 °C 10,6 °C 3,2 km/h (1 Bft)
04.05.2018 04:29 10,6 °C 93 % 1012,6 hPa 0,0 mm 0,0 km/h (0 Bft) NO 55 ° 0 min 0,000 mm 0,0 UV-I 0 W/m² 9,5 °C 10,6 °C 0,0 km/h (0 Bft)
04.05.2018 04:30 10,6 °C 93 % 1012,5 hPa 0,0 mm 0,0 km/h (0 Bft) NO 55 ° 0 min 0,000 mm 0,0 UV-I 0 W/m² 9,5 °C 10,6 °C 0,0 km/h (0 Bft)
04.05.2018 04:31 10,6 °C 93 % 1012,6 hPa 0,0 mm 0,0 km/h (0 Bft) NO 55 ° 0 min 0,000 mm 0,0 UV-I 0 W/m² 9,5 °C 10,6 °C 0,0 km/h (0 Bft)
04.05.2018 04:32 10,5 °C 93 % 1012,5 hPa 0,0 mm 1,8 km/h (1 Bft) O-NO 57 ° 0 min 0,000 mm 0,0 UV-I 0 W/m² 9,4 °C 10,5 °C 4,8 km/h (1 Bft)
04.05.2018 04:33 10,5 °C 93 % 1012,6 hPa 0,0 mm 2,3 km/h (1 Bft) O-NO 57 ° 0 min 0,000 mm 0,0 UV-I 0 W/m² 9,4 °C 10,5 °C 4,8 km/h (1 Bft)
04.05.2018 04:34 10,5 °C 93 % 1012,6 hPa 0,0 mm 2,4 km/h (1 Bft) O-NO 57 ° 0 min 0,000 mm 0,0 UV-I 0 W/m² 9,4 °C 10,5 °C 4,8 km/h (1 Bft)
04.05.2018 04:35 10,5 °C 93 % 1012,6 hPa 0,0 mm 0,0 km/h (0 Bft) O-NO 57 ° 0 min 0,000 mm 0,0 UV-I 0 W/m² 9,4 °C 10,5 °C 0,0 km/h (0 Bft)
04.05.2018 04:36 10,5 °C 93 % 1012,6 hPa 0,0 mm 0,0 km/h (0 Bft) O-NO 57 ° 0 min 0,000 mm 0,0 UV-I 0 W/m² 9,4 °C 10,5 °C 0,0 km/h (0 Bft)
04.05.2018 04:37 10,5 °C 93 % 1012,6 hPa 0,0 mm 0,0 km/h (0 Bft) O-NO 57 ° 0 min 0,000 mm 0,0 UV-I 0 W/m² 9,4 °C 10,5 °C 0,0 km/h (0 Bft)
04.05.2018 04:38 10,5 °C 93 % 1012,5 hPa 0,0 mm 0,0 km/h (0 Bft) O-NO 57 ° 0 min 0,000 mm 0,0 UV-I 0 W/m² 9,4 °C 10,5 °C 0,0 km/h (0 Bft)
04.05.2018 04:39 10,5 °C 93 % 1012,5 hPa 0,0 mm 0,0 km/h (0 Bft) O-NO 57 ° 0 min 0,000 mm 0,0 UV-I 0 W/m² 9,4 °C 10,5 °C 0,0 km/h (0 Bft)
04.05.2018 04:40 10,5 °C 93 % 1012,5 hPa 0,0 mm 0,6 km/h (0 Bft) O-NO 57 ° 0 min 0,000 mm 0,0 UV-I 0 W/m² 9,4 °C 10,5 °C 1,6 km/h (1 Bft)
04.05.2018 04:41 10,5 °C 93 % 1012,5 hPa 0,0 mm 0,5 km/h (0 Bft) O-NO 57 ° 0 min 0,000 mm 0,0 UV-I 0 W/m² 9,4 °C 10,5 °C 1,6 km/h (1 Bft)
04.05.2018 04:42 10,4 °C 93 % 1012,5 hPa 0,0 mm 0,1 km/h (0 Bft) O-NO 57 ° 0 min 0,000 mm 0,0 UV-I 0 W/m² 9,3 °C 10,4 °C 1,6 km/h (1 Bft)
04.05.2018 04:43 10,4 °C 93 % 1012,4 hPa 0,0 mm 0,0 km/h (0 Bft) O-NO 57 ° 0 min 0,000 mm 0,0 UV-I 0 W/m² 9,3 °C 10,4 °C 0,0 km/h (0 Bft)
04.05.2018 04:44 10,5 °C 94 % 1012,5 hPa 0,2 mm 0,7 km/h (0 Bft) O-NO 57 ° 0 min 0,000 mm 0,0 UV-I 0 W/m² 9,6 °C 10,5 °C 1,6 km/h (1 Bft)
04.05.2018 04:45 10,5 °C 94 % 1012,5 hPa 0,0 mm 2,1 km/h (1 Bft) O-NO 57 ° 0 min 0,000 mm 0,0 UV-I 0 W/m² 9,6 °C 10,5 °C 4,8 km/h (1 Bft)
04.05.2018 04:46 10,5 °C 94 % 1012,6 hPa 0,0 mm 1,5 km/h (1 Bft) O-NO 57 ° 0 min 0,000 mm 0,0 UV-I 0 W/m² 9,6 °C 10,5 °C 4,8 km/h (1 Bft)
04.05.2018 04:47 10,5 °C 94 % 1012,5 hPa 0,0 mm 3,9 km/h (1 Bft) O-NO 57 ° 0 min 0,000 mm 0,0 UV-I 0 W/m² 9,6 °C 10,5 °C 6,4 km/h (2 Bft)
04.05.2018 04:48 10,5 °C 93 % 1012,6 hPa 0,0 mm 3,6 km/h (1 Bft) O-NO 58 ° 0 min 0,000 mm 0,0 UV-I 0 W/m² 9,4 °C 10,5 °C 4,8 km/h (1 Bft)
04.05.2018 04:49 10,4 °C 93 % 1012,5 hPa 0,0 mm 2,3 km/h (1 Bft) O-NO 58 ° 0 min 0,000 mm 0,0 UV-I 0 W/m² 9,3 °C 10,4 °C 3,2 km/h (1 Bft)
04.05.2018 04:50 10,5 °C 93 % 1012,6 hPa 0,0 mm 0,9 km/h (0 Bft) O-NO 58 ° 0 min 0,000 mm 0,0 UV-I 0 W/m² 9,4 °C 10,5 °C 3,2 km/h (1 Bft)
04.05.2018 04:51 10,4 °C 93 % 1012,5 hPa 0,0 mm 0,7 km/h (0 Bft) O-NO 58 ° 0 min 0,000 mm 0,0 UV-I 0 W/m² 9,3 °C 10,4 °C 3,2 km/h (1 Bft)
04.05.2018 04:52 10,5 °C 93 % 1012,5 hPa 0,0 mm 0,0 km/h (0 Bft) O-NO 57 ° 0 min 0,000 mm 0,0 UV-I 0 W/m² 9,4 °C 10,5 °C 0,0 km/h (0 Bft)
04.05.2018 04:53 10,4 °C 93 % 1012,5 hPa 0,0 mm 1,1 km/h (1 Bft) O-NO 58 ° 0 min 0,000 mm 0,0 UV-I 0 W/m² 9,3 °C 10,4 °C 3,2 km/h (1 Bft)
04.05.2018 04:54 10,4 °C 93 % 1012,5 hPa 0,0 mm 3,0 km/h (1 Bft) O-NO 58 ° 0 min 0,000 mm 0,0 UV-I 0 W/m² 9,3 °C 10,4 °C 6,4 km/h (2 Bft)
04.05.2018 04:55 10,4 °C 93 % 1012,5 hPa 0,0 mm 0,7 km/h (0 Bft) O-NO 58 ° 0 min 0,000 mm 0,0 UV-I 0 W/m² 9,3 °C 10,4 °C 3,2 km/h (1 Bft)
04.05.2018 04:56 10,4 °C 93 % 1012,5 hPa 0,0 mm 0,6 km/h (0 Bft) O-NO 58 ° 0 min 0,000 mm 0,0 UV-I 0 W/m² 9,3 °C 10,4 °C 1,6 km/h (1 Bft)
04.05.2018 04:57 10,4 °C 93 % 1012,5 hPa 0,0 mm 0,0 km/h (0 Bft) O-NO 58 ° 0 min 0,000 mm 0,0 UV-I 0 W/m² 9,3 °C 10,4 °C 0,0 km/h (0 Bft)
04.05.2018 04:58 10,4 °C 93 % 1012,5 hPa 0,0 mm 0,0 km/h (0 Bft) O-NO 58 ° 0 min 0,000 mm 0,0 UV-I 0 W/m² 9,3 °C 10,4 °C 0,0 km/h (0 Bft)
04.05.2018 04:59 10,4 °C 94 % 1012,5 hPa 0,0 mm 0,0 km/h (0 Bft) O-NO 57 ° 0 min 0,000 mm 0,0 UV-I 0 W/m² 9,5 °C 10,4 °C 0,0 km/h (0 Bft)
04.05.2018 05:00 10,4 °C 94 % 1012,5 hPa 0,0 mm 0,5 km/h (0 Bft) O-NO 58 ° 0 min 0,000 mm 0,0 UV-I 0 W/m² 9,5 °C 10,4 °C 1,6 km/h (1 Bft)
04.05.2018 05:01 10,4 °C 93 % 1012,6 hPa 0,0 mm 1,5 km/h (1 Bft) O-NO 58 ° 0 min 0,000 mm 0,0 UV-I 0 W/m² 9,3 °C 10,4 °C 3,2 km/h (1 Bft)
04.05.2018 05:02 10,4 °C 93 % 1012,6 hPa 0,0 mm 2,1 km/h (1 Bft) O-NO 58 ° 0 min 0,000 mm 0,0 UV-I 0 W/m² 9,3 °C 10,4 °C 3,2 km/h (1 Bft)
04.05.2018 05:03 10,4 °C 93 % 1012,6 hPa 0,0 mm 0,2 km/h (0 Bft) O-NO 58 ° 0 min 0,000 mm 0,0 UV-I 0 W/m² 9,3 °C 10,4 °C 1,6 km/h (1 Bft)
04.05.2018 05:04 10,4 °C 93 % 1012,6 hPa 0,0 mm 0,0 km/h (0 Bft) O-NO 57 ° 0 min 0,000 mm 0,0 UV-I 0 W/m² 9,3 °C 10,4 °C 0,0 km/h (0 Bft)
04.05.2018 05:05 10,4 °C 93 % 1012,5 hPa 0,0 mm 0,3 km/h (0 Bft) O-NO 58 ° 0 min 0,000 mm 0,0 UV-I 0 W/m² 9,3 °C 10,4 °C 1,6 km/h (1 Bft)
04.05.2018 05:06 10,4 °C 93 % 1012,5 hPa 0,0 mm 0,3 km/h (0 Bft) O-NO 58 ° 0 min 0,000 mm 0,0 UV-I 0 W/m² 9,3 °C 10,4 °C 1,6 km/h (1 Bft)
04.05.2018 05:07 10,3 °C 93 % 1012,6 hPa 0,0 mm 0,0 km/h (0 Bft) O-NO 57 ° 0 min 0,000 mm 0,0 UV-I 0 W/m² 9,2 °C 10,3 °C 0,0 km/h (0 Bft)
04.05.2018 05:08 10,3 °C 93 % 1012,6 hPa 0,0 mm 0,8 km/h (0 Bft) O-NO 58 ° 0 min 0,000 mm 0,0 UV-I 0 W/m² 9,2 °C 10,3 °C 3,2 km/h (1 Bft)
04.05.2018 05:09 10,3 °C 93 % 1012,6 hPa 0,0 mm 1,8 km/h (1 Bft) O-NO 58 ° 0 min 0,000 mm 0,0 UV-I 0 W/m² 9,2 °C 10,3 °C 3,2 km/h (1 Bft)
04.05.2018 05:10 10,3 °C 94 % 1012,6 hPa 0,0 mm 0,0 km/h (0 Bft) O-NO 58 ° 0 min 0,000 mm 0,0 UV-I 0 W/m² 9,4 °C 10,3 °C 0,0 km/h (0 Bft)
04.05.2018 05:11 10,3 °C 94 % 1012,6 hPa 0,0 mm 0,3 km/h (0 Bft) O-NO 58 ° 0 min 0,000 mm 0,0 UV-I 0 W/m² 9,4 °C 10,3 °C 1,6 km/h (1 Bft)
04.05.2018 05:12 10,3 °C 94 % 1012,6 hPa 0,0 mm 0,5 km/h (0 Bft) O-NO 58 ° 0 min 0,000 mm 0,0 UV-I 0 W/m² 9,4 °C 10,3 °C 3,2 km/h (1 Bft)
04.05.2018 05:13 10,3 °C 94 % 1012,6 hPa 0,0 mm 0,0 km/h (0 Bft) O-NO 58 ° 0 min 0,000 mm 0,0 UV-I 0 W/m² 9,4 °C 10,3 °C 0,0 km/h (0 Bft)
04.05.2018 05:14 10,3 °C 94 % 1012,5 hPa 0,0 mm 0,6 km/h (0 Bft) O-NO 58 ° 0 min 0,000 mm 0,0 UV-I 0 W/m² 9,4 °C 10,3 °C 3,2 km/h (1 Bft)
04.05.2018 05:15 10,3 °C 94 % 1012,6 hPa 0,0 mm 1,7 km/h (1 Bft) O-NO 58 ° 0 min 0,000 mm 0,0 UV-I 0 W/m² 9,4 °C 10,3 °C 3,2 km/h (1 Bft)
04.05.2018 05:16 10,3 °C 94 % 1012,6 hPa 0,0 mm 1,8 km/h (1 Bft) O-NO 58 ° 0 min 0,000 mm 0,0 UV-I 0 W/m² 9,4 °C 10,3 °C 4,8 km/h (1 Bft)
04.05.2018 05:17 10,3 °C 94 % 1012,5 hPa 0,0 mm 0,4 km/h (0 Bft) O-NO 58 ° 0 min 0,000 mm 0,0 UV-I 0 W/m² 9,4 °C 10,3 °C 1,6 km/h (1 Bft)
04.05.2018 05:18 10,3 °C 94 % 1012,5 hPa 0,0 mm 0,1 km/h (0 Bft) O-NO 58 ° 0 min 0,000 mm 0,0 UV-I 0 W/m² 9,4 °C 10,3 °C 1,6 km/h (1 Bft)
04.05.2018 05:19 10,3 °C 94 % 1012,5 hPa 0,0 mm 0,0 km/h (0 Bft) O-NO 58 ° 0 min 0,000 mm 0,0 UV-I 0 W/m² 9,4 °C 10,3 °C 0,0 km/h (0 Bft)
04.05.2018 05:20 10,3 °C 94 % 1012,5 hPa 0,0 mm 1,1 km/h (1 Bft) O-NO 58 ° 0 min 0,000 mm 0,0 UV-I 0 W/m² 9,4 °C 10,3 °C 1,6 km/h (1 Bft)
04.05.2018 05:21 10,3 °C 94 % 1012,5 hPa 0,0 mm 1,4 km/h (1 Bft) O-NO 58 ° 0 min 0,000 mm 0,0 UV-I 0 W/m² 9,4 °C 10,3 °C 3,2 km/h (1 Bft)
04.05.2018 05:22 10,3 °C 94 % 1012,5 hPa 0,0 mm 0,0 km/h (0 Bft) O-NO 58 ° 0 min 0,000 mm 0,0 UV-I 0 W/m² 9,4 °C 10,3 °C 0,0 km/h (0 Bft)
04.05.2018 05:23 10,3 °C 94 % 1012,6 hPa 0,0 mm 0,1 km/h (0 Bft) O-NO 58 ° 0 min 0,000 mm 0,0 UV-I 0 W/m² 9,4 °C 10,3 °C 1,6 km/h (1 Bft)
04.05.2018 05:24 10,3 °C 94 % 1012,6 hPa 0,0 mm 0,3 km/h (0 Bft) O-NO 58 ° 0 min 0,000 mm 0,0 UV-I 0 W/m² 9,4 °C 10,3 °C 1,6 km/h (1 Bft)
04.05.2018 05:25 10,3 °C 94 % 1012,5 hPa 0,0 mm 0,0 km/h (0 Bft) O-NO 58 ° 0 min 0,000 mm 0,0 UV-I 0 W/m² 9,4 °C 10,3 °C 0,0 km/h (0 Bft)
04.05.2018 05:26 10,3 °C 94 % 1012,5 hPa 0,0 mm 0,0 km/h (0 Bft) O-NO 58 ° 0 min 0,000 mm 0,0 UV-I 0 W/m² 9,4 °C 10,3 °C 0,0 km/h (0 Bft)
04.05.2018 05:27 10,3 °C 94 % 1012,6 hPa 0,0 mm 0,3 km/h (0 Bft) O-NO 58 ° 0 min 0,000 mm 0,0 UV-I 0 W/m² 9,4 °C 10,3 °C 1,6 km/h (1 Bft)
04.05.2018 05:28 10,3 °C 94 % 1012,6 hPa 0,0 mm 0,7 km/h (0 Bft) O-NO 58 ° 0 min 0,000 mm 0,0 UV-I 0 W/m² 9,4 °C 10,3 °C 3,2 km/h (1 Bft)
04.05.2018 05:29 10,2 °C 94 % 1012,5 hPa 0,0 mm 0,1 km/h (0 Bft) O-NO 58 ° 0 min 0,000 mm 0,0 UV-I 0 W/m² 9,3 °C 10,2 °C 1,6 km/h (1 Bft)
04.05.2018 05:30 10,3 °C 94 % 1012,6 hPa 0,0 mm 0,3 km/h (0 Bft) O-NO 58 ° 0 min 0,000 mm 0,0 UV-I 0 W/m² 9,4 °C 10,3 °C 1,6 km/h (1 Bft)
04.05.2018 05:31 10,3 °C 94 % 1012,6 hPa 0,0 mm 0,2 km/h (0 Bft) O-NO 58 ° 0 min 0,000 mm 0,0 UV-I 0 W/m² 9,4 °C 10,3 °C 1,6 km/h (1 Bft)
04.05.2018 05:32 10,2 °C 94 % 1012,6 hPa 0,0 mm 2,4 km/h (1 Bft) O-NO 58 ° 0 min 0,000 mm 0,0 UV-I 0 W/m² 9,3 °C 10,2 °C 3,2 km/h (1 Bft)
04.05.2018 05:33 10,2 °C 94 % 1012,6 hPa 0,0 mm 0,2 km/h (0 Bft) O-NO 58 ° 0 min 0,000 mm 0,0 UV-I 0 W/m² 9,3 °C 10,2 °C 1,6 km/h (1 Bft)
04.05.2018 05:34 10,3 °C 94 % 1012,6 hPa 0,0 mm 0,1 km/h (0 Bft) O-NO 58 ° 0 min 0,000 mm 0,0 UV-I 0 W/m² 9,4 °C 10,3 °C 1,6 km/h (1 Bft)
04.05.2018 05:35 10,3 °C 94 % 1012,7 hPa 0,0 mm 0,5 km/h (0 Bft) O-NO 58 ° 0 min 0,000 mm 0,0 UV-I 0 W/m² 9,4 °C 10,3 °C 1,6 km/h (1 Bft)
04.05.2018 05:36 10,3 °C 94 % 1012,7 hPa 0,0 mm 1,9 km/h (1 Bft) O-NO 58 ° 0 min 0,000 mm 0,0 UV-I 0 W/m² 9,4 °C 10,3 °C 4,8 km/h (1 Bft)
04.05.2018 05:37 10,3 °C 94 % 1012,7 hPa 0,0 mm 0,7 km/h (0 Bft) O-NO 58 ° 0 min 0,000 mm 0,0 UV-I 0 W/m² 9,4 °C 10,3 °C 1,6 km/h (1 Bft)
04.05.2018 05:38 10,3 °C 94 % 1012,7 hPa 0,0 mm 1,7 km/h (1 Bft) O-NO 58 ° 0 min 0,000 mm 0,0 UV-I 0 W/m² 9,4 °C 10,3 °C 4,8 km/h (1 Bft)
04.05.2018 05:39 10,3 °C 94 % 1012,6 hPa 0,0 mm 3,0 km/h (1 Bft) O-NO 58 ° 0 min 0,000 mm 0,0 UV-I 0 W/m² 9,4 °C 10,3 °C 4,8 km/h (1 Bft)
04.05.2018 05:40 10,2 °C 94 % 1012,7 hPa 0,0 mm 2,7 km/h (1 Bft) O-NO 58 ° 0 min 0,000 mm 0,0 UV-I 0 W/m² 9,3 °C 10,2 °C 4,8 km/h (1 Bft)
04.05.2018 05:41 10,3 °C 94 % 1012,7 hPa 0,0 mm 1,1 km/h (1 Bft) O-NO 57 ° 0 min 0,000 mm 0,0 UV-I 0 W/m² 9,4 °C 10,3 °C 3,2 km/h (1 Bft)
04.05.2018 05:42 10,3 °C 94 % 1012,7 hPa 0,0 mm 4,2 km/h (1 Bft) O-NO 57 ° 0 min 0,000 mm 0,0 UV-I 0 W/m² 9,4 °C 10,3 °C 6,4 km/h (2 Bft)
04.05.2018 05:43 10,3 °C 94 % 1012,7 hPa 0,0 mm 3,2 km/h (1 Bft) O-NO 57 ° 0 min 0,000 mm 0,0 UV-I 0 W/m² 9,4 °C 10,3 °C 4,8 km/h (1 Bft)
04.05.2018 05:44 10,3 °C 94 % 1012,6 hPa 0,0 mm 2,7 km/h (1 Bft) O-NO 57 ° 0 min 0,000 mm 0,0 UV-I 0 W/m² 9,4 °C 10,3 °C 4,8 km/h (1 Bft)
04.05.2018 05:45 10,2 °C 94 % 1012,7 hPa 0,0 mm 5,9 km/h (2 Bft) O-NO 75 ° 0 min 0,000 mm 0,0 UV-I 0 W/m² 9,3 °C 10,2 °C 8,0 km/h (2 Bft)
04.05.2018 05:46 10,2 °C 94 % 1012,7 hPa 0,0 mm 4,3 km/h (1 Bft) O-NO 74 ° 0 min 0,000 mm 0,0 UV-I 0 W/m² 9,3 °C 10,2 °C 6,4 km/h (2 Bft)
04.05.2018 05:47 10,2 °C 94 % 1012,6 hPa 0,0 mm 3,7 km/h (1 Bft) O-NO 58 ° 0 min 0,000 mm 0,0 UV-I 0 W/m² 9,3 °C 10,2 °C 8,0 km/h (2 Bft)
04.05.2018 05:48 10,2 °C 94 % 1012,6 hPa 0,0 mm 4,0 km/h (1 Bft) O-NO 71 ° 0 min 0,000 mm 0,0 UV-I 0 W/m² 9,3 °C 10,2 °C 6,4 km/h (2 Bft)
04.05.2018 05:49 10,2 °C 94 % 1012,6 hPa 0,0 mm 2,7 km/h (1 Bft) O-NO 71 ° 0 min 0,000 mm 0,0 UV-I 0 W/m² 9,3 °C 10,2 °C 6,4 km/h (2 Bft)
04.05.2018 05:50 10,2 °C 93 % 1012,6 hPa 0,0 mm 0,8 km/h (0 Bft) O-NO 71 ° 0 min 0,000 mm 0,0 UV-I 0 W/m² 9,1 °C 10,2 °C 3,2 km/h (1 Bft)
04.05.2018 05:51 10,2 °C 94 % 1012,6 hPa 0,0 mm 2,3 km/h (1 Bft) O-NO 71 ° 0 min 0,000 mm 0,0 UV-I 0 W/m² 9,3 °C 10,2 °C 4,8 km/h (1 Bft)
04.05.2018 05:52 10,2 °C 94 % 1012,5 hPa 0,0 mm 2,2 km/h (1 Bft) O-NO 71 ° 0 min 0,000 mm 0,0 UV-I 0 W/m² 9,3 °C 10,2 °C 3,2 km/h (1 Bft)
04.05.2018 05:53 10,2 °C 93 % 1012,6 hPa 0,0 mm 1,0 km/h (0 Bft) O-NO 71 ° 0 min 0,000 mm 0,0 UV-I 0 W/m² 9,1 °C 10,2 °C 3,2 km/h (1 Bft)
04.05.2018 05:54 10,2 °C 93 % 1012,6 hPa 0,0 mm 0,0 km/h (0 Bft) O-NO 71 ° 0 min 0,000 mm 0,0 UV-I 0 W/m² 9,1 °C 10,2 °C 0,0 km/h (0 Bft)
04.05.2018 05:55 10,2 °C 93 % 1012,6 hPa 0,0 mm 0,0 km/h (0 Bft) O-NO 71 ° 0 min 0,000 mm 0,0 UV-I 0 W/m² 9,1 °C 10,2 °C 0,0 km/h (0 Bft)
04.05.2018 05:56 10,2 °C 93 % 1012,6 hPa 0,0 mm 0,0 km/h (0 Bft) O-NO 71 ° 0 min 0,000 mm 0,0 UV-I 0 W/m² 9,1 °C 10,2 °C 0,0 km/h (0 Bft)
04.05.2018 05:57 10,2 °C 93 % 1012,6 hPa 0,0 mm 0,0 km/h (0 Bft) O-NO 71 ° 0 min 0,000 mm 0,0 UV-I 0 W/m² 9,1 °C 10,2 °C 0,0 km/h (0 Bft)
04.05.2018 05:58 10,2 °C 93 % 1012,6 hPa 0,0 mm 0,0 km/h (0 Bft) O-NO 71 ° 0 min 0,000 mm 0,0 UV-I 0 W/m² 9,1 °C 10,2 °C 0,0 km/h (0 Bft)
04.05.2018 05:59 10,2 °C 93 % 1012,7 hPa 0,0 mm 0,0 km/h (0 Bft) O-NO 71 ° 0 min 0,000 mm 0,0 UV-I 0 W/m² 9,1 °C 10,2 °C 0,0 km/h (0 Bft)
04.05.2018 06:00 10,2 °C 93 % 1012,6 hPa 0,0 mm 0,0 km/h (0 Bft) O-NO 71 ° 0 min 0,000 mm 0,0 UV-I 0 W/m² 9,1 °C 10,2 °C 0,0 km/h (0 Bft)
04.05.2018 06:01 10,2 °C 93 % 1012,6 hPa 0,0 mm 0,0 km/h (0 Bft) O-NO 71 ° 0 min 0,000 mm 0,0 UV-I 0 W/m² 9,1 °C 10,2 °C 0,0 km/h (0 Bft)
04.05.2018 06:02 10,2 °C 93 % 1012,7 hPa 0,0 mm 0,0 km/h (0 Bft) O-NO 71 ° 0 min 0,000 mm 0,0 UV-I 0 W/m² 9,1 °C 10,2 °C 0,0 km/h (0 Bft)
04.05.2018 06:03 10,2 °C 93 % 1012,7 hPa 0,0 mm 0,3 km/h (0 Bft) O-NO 71 ° 0 min 0,000 mm 0,0 UV-I 0 W/m² 9,1 °C 10,2 °C 1,6 km/h (1 Bft)
04.05.2018 06:04 10,1 °C 93 % 1012,7 hPa 0,0 mm 2,1 km/h (1 Bft) O-NO 71 ° 0 min 0,000 mm 0,0 UV-I 0 W/m² 9,0 °C 10,1 °C 3,2 km/h (1 Bft)
04.05.2018 06:05 10,1 °C 93 % 1012,7 hPa 0,0 mm 1,1 km/h (1 Bft) O-NO 71 ° 0 min 0,000 mm 0,0 UV-I 0 W/m² 9,0 °C 10,1 °C 3,2 km/h (1 Bft)
04.05.2018 06:06 10,1 °C 93 % 1012,7 hPa 0,0 mm 2,7 km/h (1 Bft) O 85 ° 0 min 0,000 mm 0,0 UV-I 0 W/m² 9,0 °C 10,1 °C 4,8 km/h (1 Bft)
04.05.2018 06:07 10,1 °C 93 % 1012,7 hPa 0,0 mm 2,1 km/h (1 Bft) O 85 ° 0 min 0,000 mm 0,0 UV-I 0 W/m² 9,0 °C 10,1 °C 4,8 km/h (1 Bft)
04.05.2018 06:08 10,1 °C 93 % 1012,6 hPa 0,0 mm 0,0 km/h (0 Bft) O 85 ° 0 min 0,000 mm 0,0 UV-I 0 W/m² 9,0 °C 10,1 °C 0,0 km/h (0 Bft)
04.05.2018 06:09 10,1 °C 93 % 1012,7 hPa 0,0 mm 0,0 km/h (0 Bft) O 85 ° 0 min 0,000 mm 0,0 UV-I 0 W/m² 9,0 °C 10,1 °C 0,0 km/h (0 Bft)
04.05.2018 06:10 10,1 °C 93 % 1012,7 hPa 0,0 mm 0,0 km/h (0 Bft) O 85 ° 0 min 0,000 mm 0,0 UV-I 0 W/m² 9,0 °C 10,1 °C 0,0 km/h (0 Bft)
04.05.2018 06:11 10,0 °C 93 % 1012,7 hPa 0,0 mm 0,0 km/h (0 Bft) O 85 ° 0 min 0,000 mm 0,0 UV-I 0 W/m² 8,9 °C 10,0 °C 0,0 km/h (0 Bft)
04.05.2018 06:12 10,0 °C 93 % 1012,6 hPa 0,0 mm 0,0 km/h (0 Bft) O 85 ° 0 min 0,000 mm 0,0 UV-I 0 W/m² 8,9 °C 10,0 °C 0,0 km/h (0 Bft)
04.05.2018 06:13 10,0 °C 93 % 1012,6 hPa 0,0 mm 0,0 km/h (0 Bft) O 85 ° 0 min 0,000 mm 0,0 UV-I 0 W/m² 8,9 °C 10,0 °C 0,0 km/h (0 Bft)
04.05.2018 06:14 10,0 °C 93 % 1012,6 hPa 0,0 mm 0,0 km/h (0 Bft) O 85 ° 0 min 0,000 mm 0,0 UV-I 0 W/m² 8,9 °C 10,0 °C 0,0 km/h (0 Bft)
04.05.2018 06:15 10,0 °C 93 % 1012,6 hPa 0,0 mm 0,7 km/h (0 Bft) O 85 ° 0 min 0,000 mm 0,0 UV-I 0 W/m² 8,9 °C 10,0 °C 3,2 km/h (1 Bft)
04.05.2018 06:16 9,9 °C 93 % 1012,6 hPa 0,0 mm 0,8 km/h (0 Bft) O 85 ° 0 min 0,000 mm 0,0 UV-I 0 W/m² 8,8 °C 9,9 °C 1,6 km/h (1 Bft)
04.05.2018 06:17 10,0 °C 93 % 1012,6 hPa 0,0 mm 0,0 km/h (0 Bft) O 85 ° 0 min 0,000 mm 0,0 UV-I 0 W/m² 8,9 °C 10,0 °C 0,0 km/h (0 Bft)
04.05.2018 06:18 10,0 °C 93 % 1012,6 hPa 0,0 mm 0,0 km/h (0 Bft) O 85 ° 0 min 0,000 mm 0,0 UV-I 5 W/m² 8,9 °C 10,0 °C 0,0 km/h (0 Bft)
04.05.2018 06:19 10,0 °C 93 % 1012,6 hPa 0,0 mm 0,0 km/h (0 Bft) O 85 ° 0 min 0,000 mm 0,0 UV-I 5 W/m² 8,9 °C 10,0 °C 0,0 km/h (0 Bft)
04.05.2018 06:20 10,0 °C 93 % 1012,6 hPa 0,0 mm 0,0 km/h (0 Bft) O 85 ° 0 min 0,000 mm 0,0 UV-I 5 W/m² 8,9 °C 10,0 °C 0,0 km/h (0 Bft)
04.05.2018 06:21 10,0 °C 93 % 1012,6 hPa 0,0 mm 0,0 km/h (0 Bft) O 85 ° 0 min 0,000 mm 0,0 UV-I 5 W/m² 8,9 °C 10,0 °C 0,0 km/h (0 Bft)
04.05.2018 06:22 10,0 °C 93 % 1012,6 hPa 0,0 mm 0,0 km/h (0 Bft) O 85 ° 0 min 0,000 mm 0,0 UV-I 0 W/m² 8,9 °C 10,0 °C 0,0 km/h (0 Bft)
04.05.2018 06:23 9,9 °C 93 % 1012,6 hPa 0,0 mm 0,0 km/h (0 Bft) O 85 ° 0 min 0,000 mm 0,0 UV-I 0 W/m² 8,8 °C 9,9 °C 0,0 km/h (0 Bft)
04.05.2018 06:24 9,9 °C 93 % 1012,7 hPa 0,0 mm 0,0 km/h (0 Bft) O 85 ° 0 min 0,000 mm 0,0 UV-I 5 W/m² 8,8 °C 9,9 °C 0,0 km/h (0 Bft)
04.05.2018 06:25 9,9 °C 93 % 1012,7 hPa 0,0 mm 0,0 km/h (0 Bft) O 85 ° 0 min 0,000 mm 0,0 UV-I 5 W/m² 8,8 °C 9,9 °C 0,0 km/h (0 Bft)
04.05.2018 06:26 9,9 °C 93 % 1012,8 hPa 0,0 mm 0,0 km/h (0 Bft) O 85 ° 0 min 0,000 mm 0,0 UV-I 5 W/m² 8,8 °C 9,9 °C 0,0 km/h (0 Bft)
04.05.2018 06:27 9,9 °C 93 % 1012,8 hPa 0,0 mm 0,5 km/h (0 Bft) O 85 ° 0 min 0,000 mm 0,0 UV-I 5 W/m² 8,8 °C 9,9 °C 1,6 km/h (1 Bft)
04.05.2018 06:28 9,9 °C 93 % 1012,8 hPa 0,0 mm 1,2 km/h (1 Bft) O 85 ° 0 min 0,000 mm 0,0 UV-I 5 W/m² 8,8 °C 9,9 °C 3,2 km/h (1 Bft)
04.05.2018 06:29 9,9 °C 93 % 1012,8 hPa 0,0 mm 3,0 km/h (1 Bft) O 85 ° 0 min 0,000 mm 0,0 UV-I 5 W/m² 8,8 °C 9,9 °C 4,8 km/h (1 Bft)
04.05.2018 06:30 9,9 °C 93 % 1012,8 hPa 0,0 mm 0,6 km/h (0 Bft) O 85 ° 0 min 0,000 mm 0,0 UV-I 5 W/m² 8,8 °C 9,9 °C 1,6 km/h (1 Bft)
04.05.2018 06:31 9,9 °C 93 % 1012,8 hPa 0,0 mm 0,7 km/h (0 Bft) O 85 ° 0 min 0,000 mm 0,0 UV-I 0 W/m² 8,8 °C 9,9 °C 3,2 km/h (1 Bft)
04.05.2018 06:32 9,9 °C 93 % 1012,8 hPa 0,0 mm 0,0 km/h (0 Bft) O 85 ° 0 min 0,000 mm 0,0 UV-I 5 W/m² 8,8 °C 9,9 °C 0,0 km/h (0 Bft)
04.05.2018 06:33 9,8 °C 93 % 1012,8 hPa 0,0 mm 0,0 km/h (0 Bft) O 85 ° 0 min 0,000 mm 0,0 UV-I 5 W/m² 8,7 °C 9,8 °C 0,0 km/h (0 Bft)
04.05.2018 06:34 9,9 °C 93 % 1012,9 hPa 0,0 mm 0,6 km/h (0 Bft) O 85 ° 0 min 0,000 mm 0,0 UV-I 5 W/m² 8,8 °C 9,9 °C 1,6 km/h (1 Bft)
04.05.2018 06:35 9,9 °C 93 % 1012,9 hPa 0,0 mm 0,0 km/h (0 Bft) O 85 ° 0 min 0,000 mm 0,0 UV-I 5 W/m² 8,8 °C 9,9 °C 0,0 km/h (0 Bft)
04.05.2018 06:36 9,9 °C 93 % 1012,9 hPa 0,0 mm 0,0 km/h (0 Bft) O 85 ° 0 min 0,000 mm 0,0 UV-I 5 W/m² 8,8 °C 9,9 °C 0,0 km/h (0 Bft)
04.05.2018 06:37 9,9 °C 93 % 1012,9 hPa 0,0 mm 0,0 km/h (0 Bft) O 85 ° 0 min 0,000 mm 0,0 UV-I 5 W/m² 8,8 °C 9,9 °C 0,0 km/h (0 Bft)
04.05.2018 06:38 9,8 °C 93 % 1012,9 hPa 0,0 mm 0,0 km/h (0 Bft) O 85 ° 0 min 0,000 mm 0,0 UV-I 5 W/m² 8,7 °C 9,8 °C 0,0 km/h (0 Bft)
04.05.2018 06:39 9,8 °C 93 % 1012,9 hPa 0,0 mm 0,0 km/h (0 Bft) O 85 ° 0 min 0,000 mm 0,0 UV-I 5 W/m² 8,7 °C 9,8 °C 0,0 km/h (0 Bft)
04.05.2018 06:40 9,8 °C 93 % 1012,9 hPa 0,0 mm 0,0 km/h (0 Bft) O 85 ° 0 min 0,000 mm 0,0 UV-I 5 W/m² 8,7 °C 9,8 °C 0,0 km/h (0 Bft)
04.05.2018 06:41 9,8 °C 93 % 1013,0 hPa 0,0 mm 0,0 km/h (0 Bft) O 85 ° 0 min 0,000 mm 0,0 UV-I 5 W/m² 8,7 °C 9,8 °C 0,0 km/h (0 Bft)
04.05.2018 06:42 9,8 °C 93 % 1013,0 hPa 0,0 mm 0,0 km/h (0 Bft) O 85 ° 0 min 0,000 mm 0,0 UV-I 5 W/m² 8,7 °C 9,8 °C 0,0 km/h (0 Bft)
04.05.2018 06:43 9,8 °C 93 % 1013,0 hPa 0,0 mm 0,4 km/h (0 Bft) O 85 ° 0 min 0,000 mm 0,0 UV-I 5 W/m² 8,7 °C 9,8 °C 1,6 km/h (1 Bft)
04.05.2018 06:44 9,8 °C 93 % 1013,0 hPa 0,0 mm 0,0 km/h (0 Bft) O 85 ° 0 min 0,000 mm 0,0 UV-I 5 W/m² 8,7 °C 9,8 °C 0,0 km/h (0 Bft)
04.05.2018 06:45 9,8 °C 93 % 1013,0 hPa 0,0 mm 0,0 km/h (0 Bft) O 85 ° 0 min 0,000 mm 0,0 UV-I 5 W/m² 8,7 °C 9,8 °C 0,0 km/h (0 Bft)
04.05.2018 06:46 9,8 °C 93 % 1013,0 hPa 0,0 mm 1,7 km/h (1 Bft) O 85 ° 0 min 0,000 mm 0,0 UV-I 5 W/m² 8,7 °C 9,8 °C 3,2 km/h (1 Bft)
04.05.2018 06:47 9,8 °C 93 % 1013,1 hPa 0,0 mm 0,9 km/h (0 Bft) O 85 ° 0 min 0,000 mm 0,0 UV-I 5 W/m² 8,7 °C 9,8 °C 3,2 km/h (1 Bft)
04.05.2018 06:48 9,8 °C 93 % 1013,1 hPa 0,0 mm 0,0 km/h (0 Bft) O 85 ° 0 min 0,000 mm 0,0 UV-I 5 W/m² 8,7 °C 9,8 °C 0,0 km/h (0 Bft)
04.05.2018 06:49 9,8 °C 93 % 1013,1 hPa 0,0 mm 0,0 km/h (0 Bft) O 85 ° 0 min 0,000 mm 0,0 UV-I 5 W/m² 8,7 °C 9,8 °C 0,0 km/h (0 Bft)
04.05.2018 06:50 9,8 °C 93 % 1013,1 hPa 0,0 mm 0,0 km/h (0 Bft) O 85 ° 0 min 0,000 mm 0,0 UV-I 7 W/m² 8,7 °C 9,8 °C 0,0 km/h (0 Bft)
04.05.2018 06:51 9,8 °C 93 % 1013,2 hPa 0,0 mm 0,0 km/h (0 Bft) O 85 ° 0 min 0,000 mm 0,0 UV-I 7 W/m² 8,7 °C 9,8 °C 0,0 km/h (0 Bft)
04.05.2018 06:52 9,8 °C 93 % 1013,2 hPa 0,0 mm 0,9 km/h (0 Bft) O 85 ° 0 min 0,000 mm 0,0 UV-I 7 W/m² 8,7 °C 9,8 °C 3,2 km/h (1 Bft)
04.05.2018 06:53 9,8 °C 93 % 1013,2 hPa 0,0 mm 3,2 km/h (1 Bft) O 85 ° 0 min 0,000 mm 0,0 UV-I 7 W/m² 8,7 °C 9,8 °C 4,8 km/h (1 Bft)
04.05.2018 06:54 9,8 °C 93 % 1013,2 hPa 0,0 mm 0,8 km/h (0 Bft) O 85 ° 0 min 0,000 mm 0,0 UV-I 7 W/m² 8,7 °C 9,8 °C 3,2 km/h (1 Bft)
04.05.2018 06:55 9,8 °C 93 % 1013,2 hPa 0,0 mm 0,1 km/h (0 Bft) O 85 ° 0 min 0,000 mm 0,0 UV-I 7 W/m² 8,7 °C 9,8 °C 1,6 km/h (1 Bft)
04.05.2018 06:56 9,7 °C 93 % 1013,2 hPa 0,0 mm 0,0 km/h (0 Bft) O 85 ° 0 min 0,000 mm 0,0 UV-I 7 W/m² 8,6 °C 9,7 °C 0,0 km/h (0 Bft)
04.05.2018 06:57 9,8 °C 93 % 1013,2 hPa 0,0 mm 0,0 km/h (0 Bft) O 85 ° 0 min 0,000 mm 0,0 UV-I 7 W/m² 8,7 °C 9,8 °C 0,0 km/h (0 Bft)
04.05.2018 06:58 9,7 °C 93 % 1013,2 hPa 0,0 mm 0,0 km/h (0 Bft) O 85 ° 0 min 0,000 mm 0,0 UV-I 7 W/m² 8,6 °C 9,7 °C 0,0 km/h (0 Bft)
04.05.2018 06:59 9,8 °C 93 % 1013,2 hPa 0,0 mm 0,0 km/h (0 Bft) O 85 ° 0 min 0,000 mm 0,0 UV-I 7 W/m² 8,7 °C 9,8 °C 0,0 km/h (0 Bft)
04.05.2018 07:00 9,7 °C 93 % 1013,2 hPa 0,0 mm 0,0 km/h (0 Bft) O 85 ° 0 min 0,000 mm 0,0 UV-I 7 W/m² 8,6 °C 9,7 °C 0,0 km/h (0 Bft)
04.05.2018 07:01 9,7 °C 93 % 1013,3 hPa 0,0 mm 0,0 km/h (0 Bft) O 85 ° 0 min 0,000 mm 0,0 UV-I 7 W/m² 8,6 °C 9,7 °C 0,0 km/h (0 Bft)
04.05.2018 07:02 9,7 °C 93 % 1013,3 hPa 0,0 mm 0,0 km/h (0 Bft) O 85 ° 0 min 0,000 mm 0,0 UV-I 7 W/m² 8,6 °C 9,7 °C 0,0 km/h (0 Bft)
04.05.2018 07:03 9,7 °C 93 % 1013,2 hPa 0,0 mm 0,0 km/h (0 Bft) O 85 ° 0 min 0,000 mm 0,0 UV-I 9 W/m² 8,6 °C 9,7 °C 0,0 km/h (0 Bft)
04.05.2018 07:04 9,7 °C 93 % 1013,2 hPa 0,0 mm 0,0 km/h (0 Bft) O 85 ° 0 min 0,000 mm 0,0 UV-I 9 W/m² 8,6 °C 9,7 °C 0,0 km/h (0 Bft)
04.05.2018 07:05 9,7 °C 93 % 1013,2 hPa 0,0 mm 0,0 km/h (0 Bft) O 85 ° 0 min 0,000 mm 0,0 UV-I 9 W/m² 8,6 °C 9,7 °C 0,0 km/h (0 Bft)
04.05.2018 07:06 9,7 °C 93 % 1013,2 hPa 0,0 mm 0,0 km/h (0 Bft) O 85 ° 0 min 0,000 mm 0,0 UV-I 11 W/m² 8,6 °C 9,7 °C 0,0 km/h (0 Bft)
04.05.2018 07:07 9,7 °C 93 % 1013,2 hPa 0,0 mm 0,0 km/h (0 Bft) O 85 ° 0 min 0,000 mm 0,0 UV-I 12 W/m² 8,6 °C 9,7 °C 0,0 km/h (0 Bft)
04.05.2018 07:08 9,7 °C 93 % 1013,2 hPa 0,0 mm 0,0 km/h (0 Bft) O 85 ° 0 min 0,000 mm 0,0 UV-I 12 W/m² 8,6 °C 9,7 °C 0,0 km/h (0 Bft)
04.05.2018 07:09 9,7 °C 93 % 1013,2 hPa 0,0 mm 0,0 km/h (0 Bft) O 85 ° 0 min 0,000 mm 0,0 UV-I 14 W/m² 8,6 °C 9,7 °C 0,0 km/h (0 Bft)
04.05.2018 07:10 9,7 °C 93 % 1013,2 hPa 0,0 mm 0,0 km/h (0 Bft) O 85 ° 0 min 0,000 mm 0,0 UV-I 14 W/m² 8,6 °C 9,7 °C 0,0 km/h (0 Bft)
04.05.2018 07:11 9,7 °C 93 % 1013,2 hPa 0,0 mm 0,0 km/h (0 Bft) O 85 ° 0 min 0,000 mm 0,0 UV-I 14 W/m² 8,6 °C 9,7 °C 0,0 km/h (0 Bft)
04.05.2018 07:12 9,7 °C 93 % 1013,2 hPa 0,0 mm 0,0 km/h (0 Bft) O 85 ° 0 min 0,000 mm 0,0 UV-I 14 W/m² 8,6 °C 9,7 °C 0,0 km/h (0 Bft)
04.05.2018 07:13 9,7 °C 93 % 1013,2 hPa 0,0 mm 0,0 km/h (0 Bft) O-NO 74 ° 0 min 0,000 mm 0,0 UV-I 16 W/m² 8,6 °C 9,7 °C 0,0 km/h (0 Bft)
04.05.2018 07:14 9,7 °C 93 % 1013,2 hPa 0,0 mm 2,4 km/h (1 Bft) O-NO 66 ° 0 min 0,000 mm 0,0 UV-I 16 W/m² 8,6 °C 9,7 °C 4,8 km/h (1 Bft)
04.05.2018 07:15 9,7 °C 93 % 1013,2 hPa 0,0 mm 1,9 km/h (1 Bft) O-NO 66 ° 0 min 0,000 mm 0,0 UV-I 16 W/m² 8,6 °C 9,7 °C 3,2 km/h (1 Bft)
04.05.2018 07:16 9,7 °C 93 % 1013,2 hPa 0,0 mm 3,3 km/h (1 Bft) O-NO 66 ° 0 min 0,000 mm 0,0 UV-I 14 W/m² 8,6 °C 9,7 °C 4,8 km/h (1 Bft)
04.05.2018 07:17 9,7 °C 93 % 1013,2 hPa 0,0 mm 3,3 km/h (1 Bft) O-NO 66 ° 0 min 0,000 mm 0,0 UV-I 14 W/m² 8,6 °C 9,7 °C 4,8 km/h (1 Bft)
04.05.2018 07:18 9,7 °C 93 % 1013,2 hPa 0,0 mm 1,6 km/h (1 Bft) O-NO 66 ° 0 min 0,000 mm 0,0 UV-I 16 W/m² 8,6 °C 9,7 °C 3,2 km/h (1 Bft)
04.05.2018 07:19 9,7 °C 93 % 1013,2 hPa 0,0 mm 0,0 km/h (0 Bft) O-NO 66 ° 0 min 0,000 mm 0,0 UV-I 16 W/m² 8,6 °C 9,7 °C 0,0 km/h (0 Bft)
04.05.2018 07:20 9,7 °C 93 % 1013,2 hPa 0,0 mm 0,0 km/h (0 Bft) O-NO 66 ° 0 min 0,000 mm 0,0 UV-I 16 W/m² 8,6 °C 9,7 °C 0,0 km/h (0 Bft)
04.05.2018 07:21 9,7 °C 93 % 1013,2 hPa 0,0 mm 0,0 km/h (0 Bft) O-NO 66 ° 0 min 0,000 mm 0,0 UV-I 14 W/m² 8,6 °C 9,7 °C 0,0 km/h (0 Bft)
04.05.2018 07:22 9,7 °C 93 % 1013,2 hPa 0,0 mm 0,0 km/h (0 Bft) O-NO 66 ° 0 min 0,000 mm 0,0 UV-I 14 W/m² 8,6 °C 9,7 °C 0,0 km/h (0 Bft)
04.05.2018 07:23 9,7 °C 93 % 1013,2 hPa 0,0 mm 0,0 km/h (0 Bft) O-NO 66 ° 0 min 0,000 mm 0,0 UV-I 14 W/m² 8,6 °C 9,7 °C 0,0 km/h (0 Bft)
04.05.2018 07:24 9,7 °C 93 % 1013,2 hPa 0,0 mm 0,9 km/h (0 Bft) O-NO 66 ° 0 min 0,000 mm 0,0 UV-I 14 W/m² 8,6 °C 9,7 °C 3,2 km/h (1 Bft)
04.05.2018 07:25 9,7 °C 93 % 1013,2 hPa 0,0 mm 0,4 km/h (0 Bft) O-NO 66 ° 0 min 0,000 mm 0,0 UV-I 14 W/m² 8,6 °C 9,7 °C 1,6 km/h (1 Bft)
04.05.2018 07:26 9,7 °C 93 % 1013,3 hPa 0,0 mm 1,8 km/h (1 Bft) O-NO 66 ° 0 min 0,000 mm 0,0 UV-I 14 W/m² 8,6 °C 9,7 °C 3,2 km/h (1 Bft)
04.05.2018 07:27 9,7 °C 93 % 1013,3 hPa 0,0 mm 2,1 km/h (1 Bft) O-NO 66 ° 0 min 0,000 mm 0,0 UV-I 14 W/m² 8,6 °C 9,7 °C 3,2 km/h (1 Bft)
04.05.2018 07:28 9,7 °C 93 % 1013,3 hPa 0,0 mm 1,4 km/h (1 Bft) O-NO 66 ° 0 min 0,000 mm 0,0 UV-I 14 W/m² 8,6 °C 9,7 °C 3,2 km/h (1 Bft)
04.05.2018 07:29 9,7 °C 93 % 1013,3 hPa 0,0 mm 2,4 km/h (1 Bft) O-NO 66 ° 0 min 0,000 mm 0,0 UV-I 12 W/m² 8,6 °C 9,7 °C 3,2 km/h (1 Bft)
04.05.2018 07:30 9,7 °C 93 % 1013,3 hPa 0,0 mm 1,2 km/h (1 Bft) O-NO 66 ° 0 min 0,000 mm 0,0 UV-I 12 W/m² 8,6 °C 9,7 °C 3,2 km/h (1 Bft)
04.05.2018 07:31 9,7 °C 93 % 1013,4 hPa 0,0 mm 1,5 km/h (1 Bft) O-NO 66 ° 0 min 0,000 mm 0,0 UV-I 12 W/m² 8,6 °C 9,7 °C 3,2 km/h (1 Bft)
04.05.2018 07:32 9,7 °C 93 % 1013,3 hPa 0,0 mm 1,3 km/h (1 Bft) O-NO 66 ° 0 min 0,000 mm 0,0 UV-I 12 W/m² 8,6 °C 9,7 °C 4,8 km/h (1 Bft)
04.05.2018 07:33 9,7 °C 93 % 1013,3 hPa 0,0 mm 1,7 km/h (1 Bft) O-NO 66 ° 0 min 0,000 mm 0,0 UV-I 12 W/m² 8,6 °C 9,7 °C 4,8 km/h (1 Bft)
04.05.2018 07:34 9,6 °C 93 % 1013,3 hPa 0,0 mm 2,3 km/h (1 Bft) O-NO 66 ° 0 min 0,000 mm 0,0 UV-I 12 W/m² 8,5 °C 9,6 °C 4,8 km/h (1 Bft)
04.05.2018 07:35 9,7 °C 93 % 1013,3 hPa 0,0 mm 1,9 km/h (1 Bft) O-NO 66 ° 0 min 0,000 mm 0,0 UV-I 14 W/m² 8,6 °C 9,7 °C 3,2 km/h (1 Bft)
04.05.2018 07:36 9,7 °C 93 % 1013,3 hPa 0,0 mm 0,7 km/h (0 Bft) O-NO 66 ° 0 min 0,000 mm 0,0 UV-I 14 W/m² 8,6 °C 9,7 °C 3,2 km/h (1 Bft)
04.05.2018 07:37 9,6 °C 93 % 1013,3 hPa 0,0 mm 2,5 km/h (1 Bft) O-NO 66 ° 0 min 0,000 mm 0,0 UV-I 16 W/m² 8,5 °C 9,6 °C 4,8 km/h (1 Bft)
04.05.2018 07:38 9,6 °C 93 % 1013,3 hPa 0,0 mm 2,7 km/h (1 Bft) O-NO 67 ° 0 min 0,000 mm 0,0 UV-I 16 W/m² 8,5 °C 9,6 °C 4,8 km/h (1 Bft)
04.05.2018 07:39 9,6 °C 93 % 1013,3 hPa 0,0 mm 2,1 km/h (1 Bft) O-NO 67 ° 0 min 0,000 mm 0,0 UV-I 19 W/m² 8,5 °C 9,6 °C 3,2 km/h (1 Bft)
04.05.2018 07:40 9,6 °C 93 % 1013,3 hPa 0,0 mm 1,9 km/h (1 Bft) O-NO 67 ° 0 min 0,000 mm 0,0 UV-I 19 W/m² 8,5 °C 9,6 °C 3,2 km/h (1 Bft)
04.05.2018 07:41 9,6 °C 93 % 1013,3 hPa 0,0 mm 3,1 km/h (1 Bft) O-NO 67 ° 0 min 0,000 mm 0,0 UV-I 21 W/m² 8,5 °C 9,6 °C 4,8 km/h (1 Bft)
04.05.2018 07:42 9,6 °C 93 % 1013,3 hPa 0,0 mm 1,1 km/h (1 Bft) O-NO 67 ° 0 min 0,000 mm 0,0 UV-I 21 W/m² 8,5 °C 9,6 °C 3,2 km/h (1 Bft)
04.05.2018 07:43 9,6 °C 93 % 1013,4 hPa 0,0 mm 1,1 km/h (1 Bft) O-NO 70 ° 0 min 0,000 mm 0,0 UV-I 19 W/m² 8,5 °C 9,6 °C 4,8 km/h (1 Bft)
04.05.2018 07:44 9,6 °C 93 % 1013,3 hPa 0,0 mm 0,9 km/h (0 Bft) O-NO 70 ° 0 min 0,000 mm 0,0 UV-I 19 W/m² 8,5 °C 9,6 °C 3,2 km/h (1 Bft)
04.05.2018 07:45 9,6 °C 93 % 1013,4 hPa 0,0 mm 1,8 km/h (1 Bft) O-NO 70 ° 0 min 0,000 mm 0,0 UV-I 18 W/m² 8,5 °C 9,6 °C 3,2 km/h (1 Bft)
04.05.2018 07:46 9,6 °C 93 % 1013,3 hPa 0,0 mm 0,9 km/h (0 Bft) O-NO 70 ° 0 min 0,000 mm 0,0 UV-I 18 W/m² 8,5 °C 9,6 °C 3,2 km/h (1 Bft)
04.05.2018 07:47 9,6 °C 93 % 1013,4 hPa 0,0 mm 2,9 km/h (1 Bft) O-NO 70 ° 0 min 0,000 mm 0,0 UV-I 19 W/m² 8,5 °C 9,6 °C 4,8 km/h (1 Bft)
04.05.2018 07:48 9,6 °C 93 % 1013,4 hPa 0,0 mm 2,4 km/h (1 Bft) O-NO 70 ° 0 min 0,000 mm 0,0 UV-I 18 W/m² 8,5 °C 9,6 °C 4,8 km/h (1 Bft)
04.05.2018 07:49 9,6 °C 93 % 1013,4 hPa 0,0 mm 1,1 km/h (1 Bft) O-NO 70 ° 0 min 0,000 mm 0,0 UV-I 18 W/m² 8,5 °C 9,6 °C 3,2 km/h (1 Bft)
04.05.2018 07:50 9,6 °C 94 % 1013,5 hPa 0,0 mm 0,1 km/h (0 Bft) O-NO 70 ° 0 min 0,000 mm 0,0 UV-I 16 W/m² 8,7 °C 9,6 °C 1,6 km/h (1 Bft)
04.05.2018 07:51 9,6 °C 93 % 1013,5 hPa 0,0 mm 0,0 km/h (0 Bft) O-NO 70 ° 0 min 0,000 mm 0,0 UV-I 16 W/m² 8,5 °C 9,6 °C 0,0 km/h (0 Bft)
04.05.2018 07:52 9,5 °C 94 % 1013,5 hPa 0,0 mm 0,0 km/h (0 Bft) O-NO 70 ° 0 min 0,000 mm 0,0 UV-I 18 W/m² 8,6 °C 9,5 °C 0,0 km/h (0 Bft)
04.05.2018 07:53 9,6 °C 94 % 1013,5 hPa 0,0 mm 0,2 km/h (0 Bft) O-NO 70 ° 0 min 0,000 mm 0,0 UV-I 18 W/m² 8,7 °C 9,6 °C 4,8 km/h (1 Bft)
04.05.2018 07:54 9,5 °C 94 % 1013,5 hPa 0,0 mm 3,5 km/h (1 Bft) O-NO 67 ° 0 min 0,000 mm 0,0 UV-I 18 W/m² 8,6 °C 9,5 °C 4,8 km/h (1 Bft)
04.05.2018 07:55 9,6 °C 94 % 1013,5 hPa 0,0 mm 1,2 km/h (1 Bft) O-NO 67 ° 0 min 0,000 mm 0,0 UV-I 18 W/m² 8,7 °C 9,6 °C 3,2 km/h (1 Bft)
04.05.2018 07:56 9,5 °C 94 % 1013,5 hPa 0,0 mm 2,3 km/h (1 Bft) O-NO 67 ° 0 min 0,000 mm 0,0 UV-I 19 W/m² 8,6 °C 9,5 °C 4,8 km/h (1 Bft)
04.05.2018 07:57 9,5 °C 94 % 1013,5 hPa 0,0 mm 1,2 km/h (1 Bft) O-NO 67 ° 0 min 0,000 mm 0,0 UV-I 19 W/m² 8,6 °C 9,5 °C 3,2 km/h (1 Bft)
04.05.2018 07:58 9,5 °C 94 % 1013,5 hPa 0,0 mm 0,4 km/h (0 Bft) O-NO 67 ° 0 min 0,000 mm 0,0 UV-I 21 W/m² 8,6 °C 9,5 °C 1,6 km/h (1 Bft)
04.05.2018 07:59 9,5 °C 94 % 1013,6 hPa 0,0 mm 2,5 km/h (1 Bft) O-NO 67 ° 0 min 0,000 mm 0,0 UV-I 23 W/m² 8,6 °C 9,5 °C 4,8 km/h (1 Bft)
04.05.2018 08:00 9,6 °C 94 % 1013,5 hPa 0,0 mm 1,2 km/h (1 Bft) O-NO 67 ° 0 min 0,000 mm 0,0 UV-I 25 W/m² 8,7 °C 9,6 °C 1,6 km/h (1 Bft)
04.05.2018 08:01 9,6 °C 94 % 1013,5 hPa 0,0 mm 0,0 km/h (0 Bft) O-NO 67 ° 0 min 0,000 mm 0,0 UV-I 26 W/m² 8,7 °C 9,6 °C 0,0 km/h (0 Bft)
04.05.2018 08:02 9,5 °C 94 % 1013,5 hPa 0,0 mm 1,8 km/h (1 Bft) O-NO 67 ° 0 min 0,000 mm 0,0 UV-I 28 W/m² 8,6 °C 9,5 °C 3,2 km/h (1 Bft)
04.05.2018 08:03 9,5 °C 94 % 1013,5 hPa 0,0 mm 2,7 km/h (1 Bft) O-NO 67 ° 0 min 0,000 mm 0,0 UV-I 28 W/m² 8,6 °C 9,5 °C 6,4 km/h (2 Bft)
04.05.2018 08:04 9,6 °C 94 % 1013,5 hPa 0,0 mm 0,0 km/h (0 Bft) O-NO 67 ° 0 min 0,000 mm 0,0 UV-I 30 W/m² 8,7 °C 9,6 °C 0,0 km/h (0 Bft)
04.05.2018 08:05 9,6 °C 94 % 1013,5 hPa 0,0 mm 0,8 km/h (0 Bft) O-NO 67 ° 0 min 0,000 mm 0,0 UV-I 33 W/m² 8,7 °C 9,6 °C 1,6 km/h (1 Bft)
04.05.2018 08:06 9,6 °C 94 % 1013,5 hPa 0,0 mm 1,2 km/h (1 Bft) O-NO 67 ° 0 min 0,000 mm 0,0 UV-I 35 W/m² 8,7 °C 9,6 °C 3,2 km/h (1 Bft)
04.05.2018 08:07 9,6 °C 94 % 1013,5 hPa 0,0 mm 2,5 km/h (1 Bft) O-NO 67 ° 0 min 0,000 mm 0,0 UV-I 39 W/m² 8,7 °C 9,6 °C 4,8 km/h (1 Bft)
04.05.2018 08:08 9,6 °C 94 % 1013,5 hPa 0,0 mm 3,4 km/h (1 Bft) O-NO 67 ° 0 min 0,000 mm 0,0 UV-I 39 W/m² 8,7 °C 9,6 °C 4,8 km/h (1 Bft)
04.05.2018 08:09 9,6 °C 94 % 1013,4 hPa 0,0 mm 2,8 km/h (1 Bft) O-NO 67 ° 0 min 0,000 mm 0,0 UV-I 49 W/m² 8,7 °C 9,6 °C 4,8 km/h (1 Bft)
04.05.2018 08:10 9,5 °C 94 % 1013,4 hPa 0,0 mm 0,3 km/h (0 Bft) O-NO 67 ° 0 min 0,000 mm 0,0 UV-I 53 W/m² 8,6 °C 9,5 °C 1,6 km/h (1 Bft)
04.05.2018 08:11 9,5 °C 94 % 1013,4 hPa 0,0 mm 2,3 km/h (1 Bft) O-NO 67 ° 0 min 0,000 mm 0,0 UV-I 69 W/m² 8,6 °C 9,5 °C 3,2 km/h (1 Bft)
04.05.2018 08:12 9,5 °C 94 % 1013,3 hPa 0,0 mm 2,0 km/h (1 Bft) O-NO 67 ° 0 min 0,000 mm 0,0 UV-I 72 W/m² 8,6 °C 9,5 °C 3,2 km/h (1 Bft)
04.05.2018 08:13 9,4 °C 94 % 1013,3 hPa 0,0 mm 0,5 km/h (0 Bft) O-NO 67 ° 0 min 0,000 mm 0,0 UV-I 76 W/m² 8,5 °C 9,4 °C 1,6 km/h (1 Bft)
04.05.2018 08:14 9,5 °C 94 % 1013,3 hPa 0,0 mm 0,5 km/h (0 Bft) O-NO 67 ° 0 min 0,000 mm 0,0 UV-I 72 W/m² 8,6 °C 9,5 °C 1,6 km/h (1 Bft)
04.05.2018 08:15 9,4 °C 94 % 1013,3 hPa 0,0 mm 0,2 km/h (0 Bft) O-NO 67 ° 0 min 0,000 mm 0,0 UV-I 63 W/m² 8,5 °C 9,4 °C 1,6 km/h (1 Bft)
04.05.2018 08:16 9,5 °C 94 % 1013,4 hPa 0,0 mm 0,4 km/h (0 Bft) O-NO 67 ° 0 min 0,000 mm 0,0 UV-I 56 W/m² 8,6 °C 9,5 °C 3,2 km/h (1 Bft)
04.05.2018 08:17 9,6 °C 94 % 1013,5 hPa 0,0 mm 2,5 km/h (1 Bft) O-NO 67 ° 0 min 0,000 mm 0,0 UV-I 54 W/m² 8,7 °C 9,6 °C 3,2 km/h (1 Bft)
04.05.2018 08:18 9,5 °C 94 % 1013,5 hPa 0,0 mm 2,8 km/h (1 Bft) O-NO 67 ° 0 min 0,000 mm 0,0 UV-I 54 W/m² 8,6 °C 9,5 °C 4,8 km/h (1 Bft)
04.05.2018 08:19 9,5 °C 94 % 1013,5 hPa 0,0 mm 2,5 km/h (1 Bft) O-NO 67 ° 0 min 0,000 mm 0,0 UV-I 51 W/m² 8,6 °C 9,5 °C 3,2 km/h (1 Bft)
04.05.2018 08:20 9,5 °C 94 % 1013,5 hPa 0,2 mm 3,2 km/h (1 Bft) O-NO 67 ° 0 min 0,000 mm 0,0 UV-I 46 W/m² 8,6 °C 9,5 °C 4,8 km/h (1 Bft)
04.05.2018 08:21 9,6 °C 94 % 1013,5 hPa 0,0 mm 2,8 km/h (1 Bft) O-NO 67 ° 0 min 0,000 mm 0,0 UV-I 42 W/m² 8,7 °C 9,6 °C 4,8 km/h (1 Bft)
04.05.2018 08:22 9,5 °C 94 % 1013,5 hPa 0,0 mm 3,2 km/h (1 Bft) O-NO 67 ° 0 min 0,000 mm 0,0 UV-I 40 W/m² 8,6 °C 9,5 °C 3,2 km/h (1 Bft)
04.05.2018 08:23 9,6 °C 94 % 1013,5 hPa 0,0 mm 1,7 km/h (1 Bft) O-NO 67 ° 0 min 0,000 mm 0,0 UV-I 46 W/m² 8,7 °C 9,6 °C 3,2 km/h (1 Bft)
04.05.2018 08:24 9,6 °C 94 % 1013,5 hPa 0,0 mm 0,6 km/h (0 Bft) O-NO 67 ° 0 min 0,000 mm 0,0 UV-I 49 W/m² 8,7 °C 9,6 °C 3,2 km/h (1 Bft)
04.05.2018 08:25 9,6 °C 94 % 1013,5 hPa 0,0 mm 1,5 km/h (1 Bft) O-NO 67 ° 0 min 0,000 mm 0,0 UV-I 47 W/m² 8,7 °C 9,6 °C 3,2 km/h (1 Bft)
04.05.2018 08:26 9,6 °C 94 % 1013,5 hPa 0,0 mm 2,7 km/h (1 Bft) O-NO 67 ° 0 min 0,000 mm 0,0 UV-I 46 W/m² 8,7 °C 9,6 °C 4,8 km/h (1 Bft)
04.05.2018 08:27 9,6 °C 94 % 1013,5 hPa 0,0 mm 3,4 km/h (1 Bft) O-NO 67 ° 0 min 0,000 mm 0,0 UV-I 46 W/m² 8,7 °C 9,6 °C 4,8 km/h (1 Bft)
04.05.2018 08:28 9,6 °C 94 % 1013,5 hPa 0,0 mm 2,4 km/h (1 Bft) O-NO 67 ° 0 min 0,000 mm 0,0 UV-I 47 W/m² 8,7 °C 9,6 °C 4,8 km/h (1 Bft)
04.05.2018 08:29 9,6 °C 94 % 1013,5 hPa 0,0 mm 1,2 km/h (1 Bft) O-NO 67 ° 0 min 0,000 mm 0,0 UV-I 44 W/m² 8,7 °C 9,6 °C 1,6 km/h (1 Bft)
04.05.2018 08:30 9,6 °C 94 % 1013,5 hPa 0,0 mm 0,2 km/h (0 Bft) O-NO 67 ° 0 min 0,000 mm 0,0 UV-I 46 W/m² 8,7 °C 9,6 °C 1,6 km/h (1 Bft)
04.05.2018 08:31 9,6 °C 94 % 1013,5 hPa 0,0 mm 2,4 km/h (1 Bft) O-NO 67 ° 0 min 0,000 mm 0,0 UV-I 53 W/m² 8,7 °C 9,6 °C 3,2 km/h (1 Bft)
04.05.2018 08:32 9,6 °C 94 % 1013,5 hPa 0,0 mm 2,2 km/h (1 Bft) O-NO 67 ° 0 min 0,000 mm 0,0 UV-I 58 W/m² 8,7 °C 9,6 °C 3,2 km/h (1 Bft)
04.05.2018 08:33 9,6 °C 94 % 1013,5 hPa 0,0 mm 3,1 km/h (1 Bft) O-NO 69 ° 0 min 0,000 mm 0,0 UV-I 56 W/m² 8,7 °C 9,6 °C 4,8 km/h (1 Bft)
04.05.2018 08:34 9,6 °C 94 % 1013,5 hPa 0,0 mm 1,9 km/h (1 Bft) O-NO 67 ° 0 min 0,000 mm 0,0 UV-I 58 W/m² 8,7 °C 9,6 °C 4,8 km/h (1 Bft)
04.05.2018 08:35 9,6 °C 94 % 1013,5 hPa 0,0 mm 1,5 km/h (1 Bft) O-NO 67 ° 0 min 0,000 mm 0,0 UV-I 60 W/m² 8,7 °C 9,6 °C 3,2 km/h (1 Bft)
04.05.2018 08:36 9,6 °C 94 % 1013,5 hPa 0,0 mm 2,0 km/h (1 Bft) O-NO 67 ° 0 min 0,000 mm 0,0 UV-I 62 W/m² 8,7 °C 9,6 °C 3,2 km/h (1 Bft)
04.05.2018 08:37 9,6 °C 94 % 1013,5 hPa 0,0 mm 2,2 km/h (1 Bft) O-NO 67 ° 0 min 0,000 mm 0,0 UV-I 63 W/m² 8,7 °C 9,6 °C 4,8 km/h (1 Bft)
04.05.2018 08:38 9,6 °C 94 % 1013,5 hPa 0,0 mm 2,7 km/h (1 Bft) O-NO 67 ° 0 min 0,000 mm 0,0 UV-I 67 W/m² 8,7 °C 9,6 °C 3,2 km/h (1 Bft)
04.05.2018 08:39 9,6 °C 94 % 1013,5 hPa 0,0 mm 2,4 km/h (1 Bft) O-NO 67 ° 0 min 0,000 mm 0,0 UV-I 63 W/m² 8,7 °C 9,6 °C 3,2 km/h (1 Bft)
04.05.2018 08:40 9,7 °C 94 % 1013,6 hPa 0,0 mm 1,7 km/h (1 Bft) O-NO 67 ° 0 min 0,000 mm 0,0 UV-I 58 W/m² 8,8 °C 9,7 °C 3,2 km/h (1 Bft)
04.05.2018 08:41 9,6 °C 94 % 1013,5 hPa 0,0 mm 1,7 km/h (1 Bft) O-NO 67 ° 0 min 0,000 mm 0,0 UV-I 51 W/m² 8,7 °C 9,6 °C 4,8 km/h (1 Bft)
04.05.2018 08:42 9,6 °C 94 % 1013,6 hPa 0,0 mm 3,4 km/h (1 Bft) O-NO 67 ° 0 min 0,000 mm 0,0 UV-I 47 W/m² 8,7 °C 9,6 °C 4,8 km/h (1 Bft)
04.05.2018 08:43 9,6 °C 94 % 1013,5 hPa 0,0 mm 2,5 km/h (1 Bft) O-NO 67 ° 0 min 0,000 mm 0,0 UV-I 44 W/m² 8,7 °C 9,6 °C 4,8 km/h (1 Bft)
04.05.2018 08:44 9,6 °C 94 % 1013,5 hPa 0,0 mm 0,0 km/h (0 Bft) O-NO 67 ° 0 min 0,000 mm 0,0 UV-I 44 W/m² 8,7 °C 9,6 °C 0,0 km/h (0 Bft)
04.05.2018 08:45 9,6 °C 94 % 1013,5 hPa 0,0 mm 0,0 km/h (0 Bft) O-NO 67 ° 0 min 0,000 mm 0,0 UV-I 46 W/m² 8,7 °C 9,6 °C 0,0 km/h (0 Bft)
04.05.2018 08:46 9,6 °C 94 % 1013,5 hPa 0,0 mm 0,0 km/h (0 Bft) O-NO 67 ° 0 min 0,000 mm 0,0 UV-I 51 W/m² 8,7 °C 9,6 °C 0,0 km/h (0 Bft)
04.05.2018 08:47 9,6 °C 94 % 1013,5 hPa 0,0 mm 0,5 km/h (0 Bft) O-NO 67 ° 0 min 0,000 mm 0,0 UV-I 49 W/m² 8,7 °C 9,6 °C 3,2 km/h (1 Bft)
04.05.2018 08:48 9,7 °C 94 % 1013,5 hPa 0,0 mm 1,5 km/h (1 Bft) O-NO 67 ° 0 min 0,000 mm 0,0 UV-I 46 W/m² 8,8 °C 9,7 °C 3,2 km/h (1 Bft)
04.05.2018 08:49 9,7 °C 94 % 1013,5 hPa 0,0 mm 1,4 km/h (1 Bft) O-NO 67 ° 0 min 0,000 mm 0,0 UV-I 46 W/m² 8,8 °C 9,7 °C 3,2 km/h (1 Bft)
04.05.2018 08:50 9,7 °C 94 % 1013,5 hPa 0,0 mm 2,1 km/h (1 Bft) O-NO 67 ° 0 min 0,000 mm 0,0 UV-I 47 W/m² 8,8 °C 9,7 °C 4,8 km/h (1 Bft)
04.05.2018 08:51 9,7 °C 94 % 1013,5 hPa 0,0 mm 4,6 km/h (1 Bft) O-NO 67 ° 0 min 0,000 mm 0,0 UV-I 46 W/m² 8,8 °C 9,5 °C 8,0 km/h (2 Bft)
04.05.2018 08:52 9,7 °C 94 % 1013,5 hPa 0,0 mm 3,7 km/h (1 Bft) O-NO 67 ° 0 min 0,000 mm 0,0 UV-I 44 W/m² 8,8 °C 9,7 °C 6,4 km/h (2 Bft)
04.05.2018 08:53 9,7 °C 94 % 1013,5 hPa 0,0 mm 3,4 km/h (1 Bft) O-NO 67 ° 0 min 0,000 mm 0,0 UV-I 42 W/m² 8,8 °C 9,7 °C 4,8 km/h (1 Bft)
04.05.2018 08:54 9,7 °C 94 % 1013,5 hPa 0,0 mm 2,4 km/h (1 Bft) NO 55 ° 0 min 0,000 mm 0,0 UV-I 42 W/m² 8,8 °C 9,7 °C 6,4 km/h (2 Bft)
04.05.2018 08:55 9,7 °C 94 % 1013,5 hPa 0,0 mm 3,2 km/h (1 Bft) NO 55 ° 0 min 0,000 mm 0,0 UV-I 42 W/m² 8,8 °C 9,7 °C 6,4 km/h (2 Bft)
04.05.2018 08:56 9,7 °C 94 % 1013,5 hPa 0,0 mm 3,0 km/h (1 Bft) O 95 ° 0 min 0,000 mm 0,0 UV-I 44 W/m² 8,8 °C 9,7 °C 6,4 km/h (2 Bft)
04.05.2018 08:57 9,7 °C 94 % 1013,5 hPa 0,0 mm 2,8 km/h (1 Bft) O 90 ° 0 min 0,000 mm 0,0 UV-I 46 W/m² 8,8 °C 9,7 °C 4,8 km/h (1 Bft)
04.05.2018 08:58 9,7 °C 94 % 1013,6 hPa 0,0 mm 4,4 km/h (1 Bft) O-NO 76 ° 0 min 0,000 mm 0,0 UV-I 47 W/m² 8,8 °C 9,7 °C 6,4 km/h (2 Bft)
04.05.2018 08:59 9,7 °C 94 % 1013,5 hPa 0,0 mm 2,3 km/h (1 Bft) O-NO 76 ° 0 min 0,000 mm 0,0 UV-I 49 W/m² 8,8 °C 9,7 °C 4,8 km/h (1 Bft)
04.05.2018 09:00 9,7 °C 94 % 1013,5 hPa 0,0 mm 3,1 km/h (1 Bft) O-NO 77 ° 0 min 0,000 mm 0,0 UV-I 49 W/m² 8,8 °C 9,7 °C 4,8 km/h (1 Bft)
04.05.2018 09:01 9,7 °C 94 % 1013,5 hPa 0,0 mm 2,4 km/h (1 Bft) O-NO 77 ° 0 min 0,025 mm 0,0 UV-I 49 W/m² 8,8 °C 9,7 °C 3,2 km/h (1 Bft)
04.05.2018 09:02 9,7 °C 94 % 1013,5 hPa 0,0 mm 0,8 km/h (0 Bft) O-NO 76 ° 0 min 0,000 mm 0,0 UV-I 49 W/m² 8,8 °C 9,7 °C 3,2 km/h (1 Bft)
04.05.2018 09:03 9,7 °C 94 % 1013,5 hPa 0,0 mm 2,4 km/h (1 Bft) O-NO 76 ° 0 min 0,000 mm 0,0 UV-I 49 W/m² 8,8 °C 9,7 °C 4,8 km/h (1 Bft)
04.05.2018 09:04 9,7 °C 94 % 1013,5 hPa 0,0 mm 4,3 km/h (1 Bft) O-NO 76 ° 0 min 0,000 mm 0,0 UV-I 49 W/m² 8,8 °C 9,7 °C 4,8 km/h (1 Bft)
04.05.2018 09:05 9,7 °C 94 % 1013,5 hPa 0,0 mm 3,4 km/h (1 Bft) O-NO 69 ° 0 min 0,000 mm 0,0 UV-I 51 W/m² 8,8 °C 9,7 °C 8,0 km/h (2 Bft)
04.05.2018 09:06 9,7 °C 94 % 1013,5 hPa 0,0 mm 4,6 km/h (1 Bft) N-NO 29 ° 0 min 0,000 mm 0,0 UV-I 51 W/m² 8,8 °C 9,5 °C 8,0 km/h (2 Bft)
04.05.2018 09:07 9,7 °C 94 % 1013,5 hPa 0,0 mm 2,7 km/h (1 Bft) NO 47 ° 0 min 0,000 mm 0,0 UV-I 56 W/m² 8,8 °C 9,7 °C 4,8 km/h (1 Bft)
04.05.2018 09:08 9,7 °C 94 % 1013,5 hPa 0,0 mm 0,5 km/h (0 Bft) NO 47 ° 0 min 0,000 mm 0,0 UV-I 63 W/m² 8,8 °C 9,7 °C 3,2 km/h (1 Bft)
04.05.2018 09:09 9,7 °C 94 % 1013,5 hPa 0,0 mm 3,2 km/h (1 Bft) NO 47 ° 0 min 0,000 mm 0,5 UV-I 63 W/m² 8,8 °C 9,7 °C 6,4 km/h (2 Bft)
04.05.2018 09:10 9,7 °C 94 % 1013,5 hPa 0,0 mm 2,4 km/h (1 Bft) O-NO 68 ° 0 min 0,000 mm 0,5 UV-I 67 W/m² 8,8 °C 9,7 °C 4,8 km/h (1 Bft)
04.05.2018 09:11 9,7 °C 94 % 1013,5 hPa 0,0 mm 0,7 km/h (0 Bft) O-NO 66 ° 0 min 0,000 mm 0,5 UV-I 65 W/m² 8,8 °C 9,7 °C 3,2 km/h (1 Bft)
04.05.2018 09:12 9,7 °C 94 % 1013,5 hPa 0,0 mm 1,2 km/h (1 Bft) O-NO 66 ° 0 min 0,000 mm 0,5 UV-I 65 W/m² 8,8 °C 9,7 °C 3,2 km/h (1 Bft)
04.05.2018 09:13 9,8 °C 94 % 1013,5 hPa 0,0 mm 1,3 km/h (1 Bft) O-NO 66 ° 0 min 0,000 mm 0,5 UV-I 65 W/m² 8,9 °C 9,8 °C 4,8 km/h (1 Bft)
04.05.2018 09:14 9,8 °C 94 % 1013,5 hPa 0,0 mm 0,2 km/h (0 Bft) O-NO 66 ° 0 min 0,000 mm 0,5 UV-I 69 W/m² 8,9 °C 9,8 °C 1,6 km/h (1 Bft)
04.05.2018 09:15 9,7 °C 94 % 1013,5 hPa 0,0 mm 0,6 km/h (0 Bft) O-NO 66 ° 0 min 0,000 mm 0,5 UV-I 67 W/m² 8,8 °C 9,7 °C 3,2 km/h (1 Bft)
04.05.2018 09:16 9,8 °C 94 % 1013,5 hPa 0,0 mm 1,3 km/h (1 Bft) O-NO 66 ° 0 min 0,000 mm 0,5 UV-I 69 W/m² 8,9 °C 9,8 °C 3,2 km/h (1 Bft)
04.05.2018 09:17 9,8 °C 94 % 1013,5 hPa 0,0 mm 1,0 km/h (0 Bft) O-NO 66 ° 0 min 0,000 mm 0,5 UV-I 70 W/m² 8,9 °C 9,8 °C 1,6 km/h (1 Bft)
04.05.2018 09:18 9,8 °C 94 % 1013,5 hPa 0,0 mm 2,2 km/h (1 Bft) O-NO 66 ° 0 min 0,000 mm 0,5 UV-I 67 W/m² 8,9 °C 9,8 °C 4,8 km/h (1 Bft)
04.05.2018 09:19 9,8 °C 94 % 1013,5 hPa 0,0 mm 1,8 km/h (1 Bft) O-NO 66 ° 0 min 0,000 mm 0,5 UV-I 67 W/m² 8,9 °C 9,8 °C 3,2 km/h (1 Bft)
04.05.2018 09:20 9,8 °C 94 % 1013,5 hPa 0,0 mm 0,1 km/h (0 Bft) O-NO 66 ° 0 min 0,000 mm 0,5 UV-I 69 W/m² 8,9 °C 9,8 °C 1,6 km/h (1 Bft)
04.05.2018 09:21 9,8 °C 94 % 1013,5 hPa 0,0 mm 0,5 km/h (0 Bft) O-NO 66 ° 0 min 0,000 mm 0,5 UV-I 62 W/m² 8,9 °C 9,8 °C 3,2 km/h (1 Bft)
04.05.2018 09:22 9,8 °C 94 % 1013,5 hPa 0,0 mm 3,8 km/h (1 Bft) O-NO 64 ° 0 min 0,000 mm 0,0 UV-I 62 W/m² 8,9 °C 9,8 °C 4,8 km/h (1 Bft)
04.05.2018 09:23 9,9 °C 94 % 1013,5 hPa 0,0 mm 1,9 km/h (1 Bft) O-NO 64 ° 0 min 0,000 mm 0,5 UV-I 63 W/m² 9,0 °C 9,9 °C 3,2 km/h (1 Bft)
04.05.2018 09:24 9,9 °C 94 % 1013,5 hPa 0,0 mm 1,3 km/h (1 Bft) O-NO 63 ° 0 min 0,000 mm 0,5 UV-I 62 W/m² 9,0 °C 9,9 °C 3,2 km/h (1 Bft)
04.05.2018 09:25 9,9 °C 94 % 1013,5 hPa 0,0 mm 3,2 km/h (1 Bft) O-NO 63 ° 0 min 0,000 mm 0,0 UV-I 62 W/m² 9,0 °C 9,9 °C 4,8 km/h (1 Bft)
04.05.2018 09:26 9,9 °C 94 % 1013,5 hPa 0,0 mm 0,7 km/h (0 Bft) O-NO 63 ° 0 min 0,000 mm 0,0 UV-I 60 W/m² 9,0 °C 9,9 °C 1,6 km/h (1 Bft)
04.05.2018 09:27 9,9 °C 94 % 1013,5 hPa 0,0 mm 3,4 km/h (1 Bft) O-NO 62 ° 0 min 0,000 mm 0,0 UV-I 54 W/m² 9,0 °C 9,9 °C 4,8 km/h (1 Bft)
04.05.2018 09:28 9,9 °C 94 % 1013,5 hPa 0,0 mm 1,8 km/h (1 Bft) O-NO 62 ° 0 min 0,000 mm 0,0 UV-I 53 W/m² 9,0 °C 9,9 °C 3,2 km/h (1 Bft)
04.05.2018 09:29 9,9 °C 94 % 1013,5 hPa 0,0 mm 3,2 km/h (1 Bft) O-NO 62 ° 0 min 0,000 mm 0,0 UV-I 51 W/m² 9,0 °C 9,9 °C 4,8 km/h (1 Bft)
04.05.2018 09:30 9,9 °C 94 % 1013,5 hPa 0,0 mm 0,5 km/h (0 Bft) O-NO 62 ° 0 min 0,000 mm 0,0 UV-I 51 W/m² 9,0 °C 9,9 °C 3,2 km/h (1 Bft)
04.05.2018 09:31 9,9 °C 94 % 1013,6 hPa 0,0 mm 2,0 km/h (1 Bft) O-NO 62 ° 0 min 0,000 mm 0,0 UV-I 51 W/m² 9,0 °C 9,9 °C 3,2 km/h (1 Bft)
04.05.2018 09:32 9,9 °C 94 % 1013,6 hPa 0,0 mm 1,9 km/h (1 Bft) O-NO 62 ° 0 min 0,000 mm 0,0 UV-I 51 W/m² 9,0 °C 9,9 °C 3,2 km/h (1 Bft)
04.05.2018 09:33 9,9 °C 94 % 1013,6 hPa 0,0 mm 1,7 km/h (1 Bft) O-NO 62 ° 0 min 0,000 mm 0,0 UV-I 54 W/m² 9,0 °C 9,9 °C 3,2 km/h (1 Bft)
04.05.2018 09:34 9,9 °C 94 % 1013,6 hPa 0,0 mm 1,9 km/h (1 Bft) O-NO 62 ° 0 min 0,000 mm 0,0 UV-I 56 W/m² 9,0 °C 9,9 °C 3,2 km/h (1 Bft)
04.05.2018 09:35 9,8 °C 94 % 1013,6 hPa 0,0 mm 2,5 km/h (1 Bft) O-NO 62 ° 0 min 0,000 mm 0,0 UV-I 54 W/m² 8,9 °C 9,8 °C 3,2 km/h (1 Bft)
04.05.2018 09:36 9,9 °C 94 % 1013,6 hPa 0,0 mm 3,0 km/h (1 Bft) O-NO 62 ° 0 min 0,000 mm 0,0 UV-I 53 W/m² 9,0 °C 9,9 °C 4,8 km/h (1 Bft)
04.05.2018 09:37 9,9 °C 94 % 1013,6 hPa 0,0 mm 3,8 km/h (1 Bft) O-NO 62 ° 0 min 0,000 mm 0,0 UV-I 51 W/m² 9,0 °C 9,9 °C 4,8 km/h (1 Bft)
04.05.2018 09:38 9,9 °C 94 % 1013,6 hPa 0,0 mm 1,8 km/h (1 Bft) O-NO 62 ° 0 min 0,000 mm 0,0 UV-I 51 W/m² 9,0 °C 9,9 °C 3,2 km/h (1 Bft)
04.05.2018 09:39 9,9 °C 94 % 1013,6 hPa 0,0 mm 0,3 km/h (0 Bft) O-NO 62 ° 0 min 0,000 mm 0,0 UV-I 53 W/m² 9,0 °C 9,9 °C 3,2 km/h (1 Bft)
04.05.2018 09:40 9,9 °C 94 % 1013,6 hPa 0,0 mm 0,0 km/h (0 Bft) O-NO 62 ° 0 min 0,000 mm 0,0 UV-I 54 W/m² 9,0 °C 9,9 °C 0,0 km/h (0 Bft)
04.05.2018 09:41 9,9 °C 94 % 1013,6 hPa 0,0 mm 0,7 km/h (0 Bft) O-NO 62 ° 0 min 0,000 mm 0,0 UV-I 54 W/m² 9,0 °C 9,9 °C 1,6 km/h (1 Bft)
04.05.2018 09:42 9,9 °C 94 % 1013,5 hPa 0,0 mm 2,8 km/h (1 Bft) O-NO 62 ° 0 min 0,000 mm 0,0 UV-I 54 W/m² 9,0 °C 9,9 °C 4,8 km/h (1 Bft)
04.05.2018 09:43 9,9 °C 94 % 1013,5 hPa 0,0 mm 3,0 km/h (1 Bft) O-NO 62 ° 0 min 0,000 mm 0,0 UV-I 54 W/m² 9,0 °C 9,9 °C 4,8 km/h (1 Bft)
04.05.2018 09:44 9,9 °C 94 % 1013,6 hPa 0,0 mm 2,2 km/h (1 Bft) O-NO 62 ° 0 min 0,000 mm 0,0 UV-I 53 W/m² 9,0 °C 9,9 °C 3,2 km/h (1 Bft)
04.05.2018 09:45 9,9 °C 94 % 1013,6 hPa 0,0 mm 2,0 km/h (1 Bft) O-NO 62 ° 0 min 0,000 mm 0,0 UV-I 54 W/m² 9,0 °C 9,9 °C 4,8 km/h (1 Bft)
04.05.2018 09:46 9,9 °C 94 % 1013,6 hPa 0,0 mm 3,2 km/h (1 Bft) O-NO 62 ° 0 min 0,000 mm 0,0 UV-I 54 W/m² 9,0 °C 9,9 °C 4,8 km/h (1 Bft)
04.05.2018 09:47 9,9 °C 94 % 1013,5 hPa 0,0 mm 0,6 km/h (0 Bft) O-NO 62 ° 0 min 0,000 mm 0,0 UV-I 58 W/m² 9,0 °C 9,9 °C 1,6 km/h (1 Bft)
04.05.2018 09:48 9,9 °C 94 % 1013,5 hPa 0,0 mm 2,0 km/h (1 Bft) O-NO 62 ° 0 min 0,000 mm 0,5 UV-I 63 W/m² 9,0 °C 9,9 °C 3,2 km/h (1 Bft)
04.05.2018 09:49 9,9 °C 94 % 1013,6 hPa 0,0 mm 0,8 km/h (0 Bft) O-NO 62 ° 0 min 0,000 mm 0,5 UV-I 62 W/m² 9,0 °C 9,9 °C 3,2 km/h (1 Bft)
04.05.2018 09:50 10,0 °C 94 % 1013,6 hPa 0,0 mm 3,6 km/h (1 Bft) O-NO 62 ° 0 min 0,000 mm 0,5 UV-I 65 W/m² 9,1 °C 10,0 °C 4,8 km/h (1 Bft)
04.05.2018 09:51 10,0 °C 94 % 1013,6 hPa 0,0 mm 3,1 km/h (1 Bft) O-NO 62 ° 0 min 0,000 mm 0,5 UV-I 67 W/m² 9,1 °C 10,0 °C 6,4 km/h (2 Bft)
04.05.2018 09:52 10,0 °C 94 % 1013,6 hPa 0,0 mm 2,1 km/h (1 Bft) O-NO 62 ° 0 min 0,000 mm 0,5 UV-I 67 W/m² 9,1 °C 10,0 °C 3,2 km/h (1 Bft)
04.05.2018 09:53 10,1 °C 94 % 1013,6 hPa 0,0 mm 3,2 km/h (1 Bft) O-NO 62 ° 0 min 0,000 mm 0,5 UV-I 65 W/m² 9,2 °C 10,1 °C 4,8 km/h (1 Bft)
04.05.2018 09:54 10,1 °C 94 % 1013,7 hPa 0,0 mm 3,8 km/h (1 Bft) O-NO 63 ° 0 min 0,000 mm 0,5 UV-I 62 W/m² 9,2 °C 10,1 °C 4,8 km/h (1 Bft)
04.05.2018 09:55 10,1 °C 94 % 1013,7 hPa 0,0 mm 3,9 km/h (1 Bft) O-NO 63 ° 0 min 0,000 mm 0,5 UV-I 62 W/m² 9,2 °C 10,1 °C 4,8 km/h (1 Bft)
04.05.2018 09:56 10,1 °C 94 % 1013,7 hPa 0,0 mm 2,1 km/h (1 Bft) O-NO 63 ° 0 min 0,000 mm 0,0 UV-I 58 W/m² 9,2 °C 10,1 °C 4,8 km/h (1 Bft)
04.05.2018 09:57 10,1 °C 94 % 1013,7 hPa 0,0 mm 4,0 km/h (1 Bft) O-NO 63 ° 0 min 0,000 mm 0,0 UV-I 60 W/m² 9,2 °C 10,1 °C 6,4 km/h (2 Bft)
04.05.2018 09:58 10,1 °C 94 % 1013,6 hPa 0,0 mm 3,5 km/h (1 Bft) O-NO 63 ° 0 min 0,000 mm 0,5 UV-I 60 W/m² 9,2 °C 10,1 °C 4,8 km/h (1 Bft)
04.05.2018 09:59 10,1 °C 94 % 1013,6 hPa 0,0 mm 3,4 km/h (1 Bft) O-NO 63 ° 0 min 0,000 mm 0,5 UV-I 60 W/m² 9,2 °C 10,1 °C 6,4 km/h (2 Bft)
04.05.2018 10:00 10,1 °C 94 % 1013,6 hPa 0,0 mm 2,8 km/h (1 Bft) O-NO 63 ° 0 min 0,000 mm 0,5 UV-I 60 W/m² 9,2 °C 10,1 °C 4,8 km/h (1 Bft)
04.05.2018 10:01 10,1 °C 94 % 1013,6 hPa 0,0 mm 2,8 km/h (1 Bft) O-NO 63 ° 0 min 0,026 mm 0,5 UV-I 60 W/m² 9,2 °C 10,1 °C 4,8 km/h (1 Bft)
04.05.2018 10:02 10,1 °C 94 % 1013,7 hPa 0,0 mm 3,3 km/h (1 Bft) O-NO 63 ° 0 min 0,000 mm 0,0 UV-I 58 W/m² 9,2 °C 10,1 °C 4,8 km/h (1 Bft)
04.05.2018 10:03 10,1 °C 94 % 1013,7 hPa 0,0 mm 4,0 km/h (1 Bft) O-NO 63 ° 0 min 0,000 mm 0,5 UV-I 58 W/m² 9,2 °C 10,1 °C 6,4 km/h (2 Bft)
04.05.2018 10:04 10,1 °C 94 % 1013,7 hPa 0,0 mm 2,3 km/h (1 Bft) O-NO 63 ° 0 min 0,000 mm 0,0 UV-I 56 W/m² 9,2 °C 10,1 °C 3,2 km/h (1 Bft)
04.05.2018 10:05 10,1 °C 94 % 1013,7 hPa 0,0 mm 2,5 km/h (1 Bft) O-NO 63 ° 0 min 0,000 mm 0,5 UV-I 60 W/m² 9,2 °C 10,1 °C 4,8 km/h (1 Bft)
04.05.2018 10:06 10,1 °C 94 % 1013,8 hPa 0,0 mm 0,2 km/h (0 Bft) O-NO 63 ° 0 min 0,000 mm 0,5 UV-I 60 W/m² 9,2 °C 10,1 °C 1,6 km/h (1 Bft)
04.05.2018 10:07 10,2 °C 94 % 1013,7 hPa 0,0 mm 2,1 km/h (1 Bft) O-NO 66 ° 0 min 0,000 mm 0,5 UV-I 60 W/m² 9,3 °C 10,2 °C 4,8 km/h (1 Bft)
04.05.2018 10:08 10,2 °C 94 % 1013,7 hPa 0,0 mm 3,1 km/h (1 Bft) O-NO 66 ° 0 min 0,000 mm 0,5 UV-I 63 W/m² 9,3 °C 10,2 °C 4,8 km/h (1 Bft)
04.05.2018 10:09 10,2 °C 94 % 1013,7 hPa 0,0 mm 1,9 km/h (1 Bft) O-NO 66 ° 0 min 0,000 mm 0,5 UV-I 65 W/m² 9,3 °C 10,2 °C 4,8 km/h (1 Bft)
04.05.2018 10:10 10,2 °C 94 % 1013,7 hPa 0,0 mm 0,3 km/h (0 Bft) O-NO 66 ° 0 min 0,000 mm 0,5 UV-I 65 W/m² 9,3 °C 10,2 °C 1,6 km/h (1 Bft)
04.05.2018 10:11 10,2 °C 94 % 1013,7 hPa 0,0 mm 1,1 km/h (1 Bft) O-NO 66 ° 0 min 0,000 mm 0,5 UV-I 69 W/m² 9,3 °C 10,2 °C 4,8 km/h (1 Bft)
04.05.2018 10:12 10,2 °C 94 % 1013,7 hPa 0,0 mm 3,3 km/h (1 Bft) O-NO 66 ° 0 min 0,000 mm 0,5 UV-I 69 W/m² 9,3 °C 10,2 °C 4,8 km/h (1 Bft)
04.05.2018 10:13 10,2 °C 94 % 1013,7 hPa 0,0 mm 4,6 km/h (1 Bft) O-NO 76 ° 0 min 0,000 mm 0,5 UV-I 69 W/m² 9,3 °C 10,2 °C 6,4 km/h (2 Bft)
04.05.2018 10:14 10,2 °C 94 % 1013,7 hPa 0,0 mm 3,4 km/h (1 Bft) O-NO 76 ° 0 min 0,000 mm 0,5 UV-I 69 W/m² 9,3 °C 10,2 °C 6,4 km/h (2 Bft)
04.05.2018 10:15 10,2 °C 94 % 1013,7 hPa 0,0 mm 4,7 km/h (1 Bft) O-NO 71 ° 0 min 0,000 mm 0,5 UV-I 70 W/m² 9,3 °C 10,2 °C 6,4 km/h (2 Bft)
04.05.2018 10:16 10,2 °C 94 % 1013,8 hPa 0,0 mm 3,7 km/h (1 Bft) O-NO 71 ° 0 min 0,000 mm 0,6 UV-I 72 W/m² 9,3 °C 10,2 °C 4,8 km/h (1 Bft)
04.05.2018 10:17 10,2 °C 94 % 1013,7 hPa 0,0 mm 3,7 km/h (1 Bft) O-NO 72 ° 0 min 0,000 mm 0,6 UV-I 77 W/m² 9,3 °C 10,2 °C 4,8 km/h (1 Bft)
04.05.2018 10:18 10,2 °C 94 % 1013,7 hPa 0,0 mm 3,9 km/h (1 Bft) O-NO 74 ° 0 min 0,000 mm 0,6 UV-I 81 W/m² 9,3 °C 10,2 °C 6,4 km/h (2 Bft)
04.05.2018 10:19 10,2 °C 94 % 1013,7 hPa 0,0 mm 0,3 km/h (0 Bft) O-NO 74 ° 0 min 0,000 mm 0,6 UV-I 84 W/m² 9,3 °C 10,2 °C 1,6 km/h (1 Bft)
04.05.2018 10:20 10,3 °C 94 % 1013,8 hPa 0,0 mm 0,5 km/h (0 Bft) O-NO 74 ° 0 min 0,000 mm 0,6 UV-I 77 W/m² 9,4 °C 10,3 °C 3,2 km/h (1 Bft)
04.05.2018 10:21 10,3 °C 94 % 1013,8 hPa 0,0 mm 2,8 km/h (1 Bft) O-NO 74 ° 0 min 0,000 mm 0,6 UV-I 76 W/m² 9,4 °C 10,3 °C 4,8 km/h (1 Bft)
04.05.2018 10:22 10,3 °C 94 % 1013,8 hPa 0,0 mm 2,5 km/h (1 Bft) O-NO 74 ° 0 min 0,000 mm 0,6 UV-I 76 W/m² 9,4 °C 10,3 °C 6,4 km/h (2 Bft)
04.05.2018 10:23 10,3 °C 94 % 1013,8 hPa 0,0 mm 2,4 km/h (1 Bft) O-NO 74 ° 0 min 0,000 mm 0,6 UV-I 76 W/m² 9,4 °C 10,3 °C 3,2 km/h (1 Bft)
04.05.2018 10:24 10,3 °C 94 % 1013,8 hPa 0,0 mm 0,0 km/h (0 Bft) O-NO 74 ° 0 min 0,000 mm 0,6 UV-I 77 W/m² 9,4 °C 10,3 °C 0,0 km/h (0 Bft)
04.05.2018 10:25 10,3 °C 94 % 1013,8 hPa 0,0 mm 1,3 km/h (1 Bft) O-NO 74 ° 0 min 0,000 mm 0,6 UV-I 86 W/m² 9,4 °C 10,3 °C 3,2 km/h (1 Bft)
04.05.2018 10:26 10,3 °C 94 % 1013,7 hPa 0,0 mm 1,5 km/h (1 Bft) O-NO 74 ° 0 min 0,000 mm 0,7 UV-I 83 W/m² 9,4 °C 10,3 °C 3,2 km/h (1 Bft)
04.05.2018 10:27 10,3 °C 94 % 1013,7 hPa 0,0 mm 0,3 km/h (0 Bft) O-NO 74 ° 0 min 0,000 mm 0,7 UV-I 90 W/m² 9,4 °C 10,3 °C 1,6 km/h (1 Bft)
04.05.2018 10:28 10,3 °C 94 % 1013,8 hPa 0,0 mm 1,3 km/h (1 Bft) O-NO 74 ° 0 min 0,000 mm 0,7 UV-I 88 W/m² 9,4 °C 10,3 °C 4,8 km/h (1 Bft)
04.05.2018 10:29 10,3 °C 94 % 1013,7 hPa 0,0 mm 4,7 km/h (1 Bft) O-NO 73 ° 0 min 0,000 mm 0,6 UV-I 84 W/m² 9,4 °C 10,3 °C 6,4 km/h (2 Bft)
04.05.2018 10:30 10,4 °C 94 % 1013,7 hPa 0,0 mm 4,3 km/h (1 Bft) O-NO 73 ° 0 min 0,000 mm 0,6 UV-I 81 W/m² 9,5 °C 10,4 °C 4,8 km/h (1 Bft)
04.05.2018 10:31 10,4 °C 94 % 1013,8 hPa 0,0 mm 4,9 km/h (1 Bft) O-NO 68 ° 0 min 0,000 mm 0,6 UV-I 84 W/m² 9,5 °C 10,4 °C 6,4 km/h (2 Bft)
04.05.2018 10:32 10,4 °C 94 % 1013,7 hPa 0,0 mm 3,6 km/h (1 Bft) O-NO 69 ° 0 min 0,000 mm 0,7 UV-I 88 W/m² 9,5 °C 10,4 °C 4,8 km/h (1 Bft)
04.05.2018 10:33 10,4 °C 94 % 1013,8 hPa 0,0 mm 3,3 km/h (1 Bft) O-NO 76 ° 0 min 0,000 mm 0,7 UV-I 91 W/m² 9,5 °C 10,4 °C 6,4 km/h (2 Bft)
04.05.2018 10:34 10,4 °C 94 % 1013,7 hPa 0,0 mm 2,0 km/h (1 Bft) O-NO 76 ° 0 min 0,000 mm 0,7 UV-I 95 W/m² 9,5 °C 10,4 °C 4,8 km/h (1 Bft)
04.05.2018 10:35 10,4 °C 94 % 1013,7 hPa 0,0 mm 0,3 km/h (0 Bft) O-NO 76 ° 0 min 0,000 mm 0,7 UV-I 97 W/m² 9,5 °C 10,4 °C 1,6 km/h (1 Bft)
04.05.2018 10:36 10,4 °C 94 % 1013,7 hPa 0,0 mm 0,7 km/h (0 Bft) O-NO 76 ° 0 min 0,000 mm 0,8 UV-I 98 W/m² 9,5 °C 10,4 °C 3,2 km/h (1 Bft)
04.05.2018 10:37 10,5 °C 94 % 1013,6 hPa 0,0 mm 1,7 km/h (1 Bft) O-NO 76 ° 0 min 0,000 mm 0,8 UV-I 97 W/m² 9,6 °C 10,5 °C 3,2 km/h (1 Bft)
04.05.2018 10:38 10,5 °C 94 % 1013,7 hPa 0,0 mm 6,3 km/h (2 Bft) O-NO 69 ° 0 min 0,000 mm 0,7 UV-I 95 W/m² 9,6 °C 10,5 °C 11,3 km/h (2 Bft)
04.05.2018 10:39 10,6 °C 94 % 1013,6 hPa 0,0 mm 6,2 km/h (2 Bft) O-NO 61 ° 0 min 0,000 mm 0,8 UV-I 97 W/m² 9,7 °C 10,6 °C 8,0 km/h (2 Bft)
04.05.2018 10:40 10,6 °C 94 % 1013,6 hPa 0,0 mm 4,9 km/h (1 Bft) O-NO 66 ° 0 min 0,000 mm 0,8 UV-I 97 W/m² 9,7 °C 10,6 °C 6,4 km/h (2 Bft)
04.05.2018 10:41 10,6 °C 94 % 1013,7 hPa 0,0 mm 3,9 km/h (1 Bft) NO 53 ° 0 min 0,000 mm 0,8 UV-I 98 W/m² 9,7 °C 10,6 °C 8,0 km/h (2 Bft)
04.05.2018 10:42 10,6 °C 94 % 1013,7 hPa 0,0 mm 4,7 km/h (1 Bft) O-NO 59 ° 0 min 0,000 mm 0,8 UV-I 98 W/m² 9,7 °C 10,6 °C 6,4 km/h (2 Bft)
04.05.2018 10:43 10,6 °C 94 % 1013,6 hPa 0,0 mm 3,0 km/h (1 Bft) O-NO 59 ° 0 min 0,000 mm 0,8 UV-I 97 W/m² 9,7 °C 10,6 °C 4,8 km/h (1 Bft)
04.05.2018 10:44 10,6 °C 94 % 1013,7 hPa 0,0 mm 3,9 km/h (1 Bft) O-NO 59 ° 0 min 0,000 mm 0,8 UV-I 98 W/m² 9,7 °C 10,6 °C 4,8 km/h (1 Bft)
04.05.2018 10:45 10,6 °C 94 % 1013,7 hPa 0,0 mm 4,2 km/h (1 Bft) O 82 ° 0 min 0,000 mm 0,8 UV-I 100 W/m² 9,7 °C 10,6 °C 8,0 km/h (2 Bft)
04.05.2018 10:46 10,6 °C 94 % 1013,7 hPa 0,0 mm 4,6 km/h (1 Bft) O-NO 63 ° 0 min 0,000 mm 0,7 UV-I 98 W/m² 9,7 °C 10,6 °C 8,0 km/h (2 Bft)
04.05.2018 10:47 10,7 °C 94 % 1013,7 hPa 0,0 mm 4,9 km/h (1 Bft) NO 41 ° 0 min 0,000 mm 0,7 UV-I 97 W/m² 9,8 °C 10,7 °C 6,4 km/h (2 Bft)
04.05.2018 10:48 10,7 °C 94 % 1013,6 hPa 0,0 mm 2,0 km/h (1 Bft) NO 41 ° 0 min 0,000 mm 0,7 UV-I 95 W/m² 9,8 °C 10,7 °C 3,2 km/h (1 Bft)
04.05.2018 10:49 10,7 °C 94 % 1013,6 hPa 0,0 mm 3,5 km/h (1 Bft) NO 38 ° 0 min 0,000 mm 0,8 UV-I 102 W/m² 9,8 °C 10,7 °C 8,0 km/h (2 Bft)
04.05.2018 10:50 10,7 °C 94 % 1013,6 hPa 0,0 mm 4,2 km/h (1 Bft) O-NO 61 ° 0 min 0,000 mm 0,8 UV-I 113 W/m² 9,8 °C 10,7 °C 6,4 km/h (2 Bft)
04.05.2018 10:51 10,7 °C 94 % 1013,6 hPa 0,0 mm 2,6 km/h (1 Bft) O 88 ° 0 min 0,000 mm 0,9 UV-I 123 W/m² 9,8 °C 10,7 °C 4,8 km/h (1 Bft)
04.05.2018 10:52 10,7 °C 94 % 1013,6 hPa 0,0 mm 1,9 km/h (1 Bft) O 88 ° 0 min 0,000 mm 1,0 UV-I 132 W/m² 9,8 °C 10,7 °C 3,2 km/h (1 Bft)
04.05.2018 10:53 10,7 °C 94 % 1013,6 hPa 0,0 mm 2,8 km/h (1 Bft) O-NO 71 ° 0 min 0,000 mm 1,0 UV-I 141 W/m² 9,8 °C 10,7 °C 6,4 km/h (2 Bft)
04.05.2018 10:54 10,8 °C 94 % 1013,6 hPa 0,0 mm 5,0 km/h (1 Bft) O-NO 67 ° 0 min 0,000 mm 1,1 UV-I 156 W/m² 9,9 °C 10,8 °C 11,3 km/h (2 Bft)
04.05.2018 10:55 10,8 °C 94 % 1013,6 hPa 0,0 mm 3,4 km/h (1 Bft) O-NO 69 ° 0 min 0,000 mm 1,2 UV-I 167 W/m² 9,9 °C 10,8 °C 6,4 km/h (2 Bft)
04.05.2018 10:56 10,8 °C 94 % 1013,6 hPa 0,0 mm 3,9 km/h (1 Bft) NO 52 ° 0 min 0,000 mm 1,2 UV-I 163 W/m² 9,9 °C 10,8 °C 8,0 km/h (2 Bft)
04.05.2018 10:57 10,8 °C 94 % 1013,5 hPa 0,0 mm 6,7 km/h (2 Bft) NO 55 ° 0 min 0,000 mm 1,2 UV-I 167 W/m² 9,9 °C 10,8 °C 11,3 km/h (2 Bft)
04.05.2018 10:58 10,8 °C 94 % 1013,5 hPa 0,0 mm 4,6 km/h (1 Bft) NO 51 ° 0 min 0,000 mm 1,2 UV-I 162 W/m² 9,9 °C 10,8 °C 8,0 km/h (2 Bft)
04.05.2018 10:59 10,9 °C 94 % 1013,6 hPa 0,0 mm 4,5 km/h (1 Bft) O-NO 67 ° 0 min 0,000 mm 1,2 UV-I 158 W/m² 10,0 °C 10,9 °C 8,0 km/h (2 Bft)
04.05.2018 11:00 10,9 °C 94 % 1013,5 hPa 0,0 mm 6,9 km/h (2 Bft) O-NO 57 ° 0 min 0,000 mm 1,1 UV-I 156 W/m² 10,0 °C 10,9 °C 14,5 km/h (3 Bft)
04.05.2018 11:01 10,9 °C 94 % 1013,6 hPa 0,0 mm 7,2 km/h (2 Bft) NO 52 ° 0 min 0,051 mm 1,1 UV-I 142 W/m² 10,0 °C 10,9 °C 14,5 km/h (3 Bft)
04.05.2018 11:02 10,9 °C 94 % 1013,6 hPa 0,0 mm 4,5 km/h (1 Bft) NO 45 ° 0 min 0,000 mm 1,1 UV-I 146 W/m² 10,0 °C 10,9 °C 8,0 km/h (2 Bft)
04.05.2018 11:03 10,9 °C 94 % 1013,6 hPa 0,0 mm 4,5 km/h (1 Bft) O-NO 59 ° 0 min 0,000 mm 1,2 UV-I 151 W/m² 10,0 °C 10,9 °C 6,4 km/h (2 Bft)
04.05.2018 11:04 10,9 °C 94 % 1013,6 hPa 0,0 mm 4,8 km/h (1 Bft) NO 51 ° 0 min 0,000 mm 1,1 UV-I 134 W/m² 10,0 °C 10,9 °C 8,0 km/h (2 Bft)
04.05.2018 11:05 11,0 °C 94 % 1013,6 hPa 0,0 mm 3,6 km/h (1 Bft) O-NO 70 ° 0 min 0,000 mm 1,0 UV-I 118 W/m² 10,1 °C 11,0 °C 6,4 km/h (2 Bft)
04.05.2018 11:06 11,0 °C 94 % 1013,6 hPa 0,0 mm 7,3 km/h (2 Bft) O-NO 61 ° 0 min 0,000 mm 1,0 UV-I 111 W/m² 10,1 °C 11,0 °C 11,3 km/h (2 Bft)
04.05.2018 11:07 11,0 °C 94 % 1013,6 hPa 0,0 mm 5,9 km/h (2 Bft) O 81 ° 0 min 0,000 mm 0,9 UV-I 104 W/m² 10,1 °C 11,0 °C 8,0 km/h (2 Bft)
04.05.2018 11:08 11,0 °C 94 % 1013,7 hPa 0,0 mm 8,5 km/h (2 Bft) O-NO 65 ° 0 min 0,000 mm 1,0 UV-I 111 W/m² 10,1 °C 11,0 °C 11,3 km/h (2 Bft)
04.05.2018 11:09 11,1 °C 94 % 1013,7 hPa 0,0 mm 4,6 km/h (1 Bft) O 86 ° 0 min 0,000 mm 1,0 UV-I 116 W/m² 10,2 °C 11,1 °C 6,4 km/h (2 Bft)
04.05.2018 11:10 11,1 °C 94 % 1013,7 hPa 0,0 mm 4,6 km/h (1 Bft) O 96 ° 0 min 0,000 mm 1,0 UV-I 113 W/m² 10,2 °C 11,1 °C 8,0 km/h (2 Bft)
04.05.2018 11:11 11,1 °C 94 % 1013,7 hPa 0,0 mm 2,8 km/h (1 Bft) O-NO 76 ° 0 min 0,000 mm 1,0 UV-I 113 W/m² 10,2 °C 11,1 °C 6,4 km/h (2 Bft)
04.05.2018 11:12 11,1 °C 94 % 1013,8 hPa 0,0 mm 4,0 km/h (1 Bft) O 80 ° 0 min 0,000 mm 1,0 UV-I 105 W/m² 10,2 °C 11,1 °C 6,4 km/h (2 Bft)
04.05.2018 11:13 11,1 °C 94 % 1013,8 hPa 0,0 mm 3,1 km/h (1 Bft) O 79 ° 0 min 0,000 mm 0,9 UV-I 104 W/m² 10,2 °C 11,1 °C 6,4 km/h (2 Bft)
04.05.2018 11:14 11,1 °C 94 % 1013,8 hPa 0,0 mm 5,1 km/h (1 Bft) O 84 ° 0 min 0,000 mm 1,0 UV-I 111 W/m² 10,2 °C 11,1 °C 8,0 km/h (2 Bft)
04.05.2018 11:15 11,1 °C 94 % 1013,9 hPa 0,0 mm 4,4 km/h (1 Bft) NO 55 ° 0 min 0,000 mm 1,1 UV-I 120 W/m² 10,2 °C 11,1 °C 8,0 km/h (2 Bft)
04.05.2018 11:16 11,2 °C 94 % 1013,8 hPa 0,0 mm 6,3 km/h (2 Bft) O-NO 60 ° 0 min 0,000 mm 1,1 UV-I 123 W/m² 10,3 °C 11,2 °C 9,7 km/h (2 Bft)
04.05.2018 11:17 11,2 °C 94 % 1013,7 hPa 0,0 mm 5,7 km/h (1 Bft) NO 55 ° 0 min 0,000 mm 1,0 UV-I 120 W/m² 10,3 °C 11,2 °C 8,0 km/h (2 Bft)
04.05.2018 11:18 11,2 °C 94 % 1013,7 hPa 0,0 mm 4,2 km/h (1 Bft) O 79 ° 0 min 0,000 mm 1,0 UV-I 113 W/m² 10,3 °C 11,2 °C 6,4 km/h (2 Bft)
04.05.2018 11:19 11,2 °C 94 % 1013,7 hPa 0,0 mm 7,1 km/h (2 Bft) O-NO 59 ° 0 min 0,000 mm 1,0 UV-I 125 W/m² 10,3 °C 11,2 °C 12,9 km/h (3 Bft)
04.05.2018 11:20 11,2 °C 94 % 1013,7 hPa 0,0 mm 8,2 km/h (2 Bft) NO 51 ° 0 min 0,000 mm 1,1 UV-I 125 W/m² 10,3 °C 11,2 °C 12,9 km/h (3 Bft)
04.05.2018 11:21 11,2 °C 94 % 1013,7 hPa 0,0 mm 4,7 km/h (1 Bft) O-NO 57 ° 0 min 0,000 mm 0,9 UV-I 107 W/m² 10,3 °C 11,2 °C 6,4 km/h (2 Bft)
04.05.2018 11:22 11,2 °C 94 % 1013,7 hPa 0,0 mm 6,7 km/h (2 Bft) NO 42 ° 0 min 0,000 mm 0,8 UV-I 95 W/m² 10,3 °C 11,2 °C 9,7 km/h (2 Bft)
04.05.2018 11:23 11,2 °C 94 % 1013,7 hPa 0,0 mm 5,5 km/h (1 Bft) NO 38 ° 0 min 0,000 mm 0,7 UV-I 88 W/m² 10,3 °C 11,2 °C 8,0 km/h (2 Bft)
04.05.2018 11:24 11,2 °C 94 % 1013,7 hPa 0,0 mm 6,0 km/h (2 Bft) O 79 ° 0 min 0,000 mm 0,7 UV-I 79 W/m² 10,3 °C 11,2 °C 8,0 km/h (2 Bft)
04.05.2018 11:25 11,2 °C 94 % 1013,7 hPa 0,0 mm 3,9 km/h (1 Bft) N-NO 32 ° 0 min 0,000 mm 0,6 UV-I 79 W/m² 10,3 °C 11,2 °C 6,4 km/h (2 Bft)
04.05.2018 11:26 11,2 °C 94 % 1013,7 hPa 0,0 mm 5,4 km/h (1 Bft) NO 55 ° 0 min 0,000 mm 0,7 UV-I 86 W/m² 10,3 °C 11,2 °C 8,0 km/h (2 Bft)
04.05.2018 11:27 11,3 °C 94 % 1013,7 hPa 0,0 mm 3,4 km/h (1 Bft) O-NO 58 ° 0 min 0,000 mm 0,8 UV-I 91 W/m² 10,4 °C 11,3 °C 4,8 km/h (1 Bft)
04.05.2018 11:28 11,3 °C 94 % 1013,7 hPa 0,0 mm 4,0 km/h (1 Bft) NO 53 ° 0 min 0,000 mm 0,8 UV-I 97 W/m² 10,4 °C 11,3 °C 4,8 km/h (1 Bft)
04.05.2018 11:29 11,3 °C 94 % 1013,8 hPa 0,0 mm 7,0 km/h (2 Bft) NO 55 ° 0 min 0,000 mm 0,8 UV-I 98 W/m² 10,4 °C 11,3 °C 9,7 km/h (2 Bft)
04.05.2018 11:30 11,3 °C 94 % 1013,8 hPa 0,0 mm 5,1 km/h (1 Bft) O-NO 66 ° 0 min 0,000 mm 0,8 UV-I 91 W/m² 10,4 °C 11,3 °C 9,7 km/h (2 Bft)
04.05.2018 11:31 11,2 °C 94 % 1013,8 hPa 0,0 mm 6,0 km/h (2 Bft) O-NO 61 ° 0 min 0,000 mm 0,8 UV-I 95 W/m² 10,3 °C 11,2 °C 9,7 km/h (2 Bft)
04.05.2018 11:32 11,2 °C 94 % 1013,8 hPa 0,0 mm 5,4 km/h (1 Bft) O-NO 76 ° 0 min 0,000 mm 0,8 UV-I 102 W/m² 10,3 °C 11,2 °C 8,0 km/h (2 Bft)
04.05.2018 11:33 11,2 °C 94 % 1013,7 hPa 0,0 mm 2,3 km/h (1 Bft) O-NO 72 ° 0 min 0,000 mm 0,9 UV-I 113 W/m² 10,3 °C 11,2 °C 4,8 km/h (1 Bft)
04.05.2018 11:34 11,2 °C 94 % 1013,7 hPa 0,0 mm 6,1 km/h (2 Bft) O 79 ° 0 min 0,000 mm 0,8 UV-I 98 W/m² 10,3 °C 11,2 °C 9,7 km/h (2 Bft)
04.05.2018 11:35 11,2 °C 94 % 1013,7 hPa 0,0 mm 6,5 km/h (2 Bft) NO 48 ° 0 min 0,000 mm 0,7 UV-I 91 W/m² 10,3 °C 11,2 °C 9,7 km/h (2 Bft)
04.05.2018 11:36 11,3 °C 94 % 1013,7 hPa 0,0 mm 2,3 km/h (1 Bft) NO 51 ° 0 min 0,000 mm 0,7 UV-I 95 W/m² 10,4 °C 11,3 °C 6,4 km/h (2 Bft)
04.05.2018 11:37 11,2 °C 94 % 1013,7 hPa 0,0 mm 4,8 km/h (1 Bft) O-NO 67 ° 0 min 0,000 mm 0,8 UV-I 102 W/m² 10,3 °C 11,2 °C 6,4 km/h (2 Bft)
04.05.2018 11:38 11,3 °C 94 % 1013,8 hPa 0,0 mm 7,8 km/h (2 Bft) O-SO 107 ° 0 min 0,000 mm 0,9 UV-I 102 W/m² 10,4 °C 11,3 °C 12,9 km/h (3 Bft)
04.05.2018 11:39 11,3 °C 94 % 1013,9 hPa 0,0 mm 3,7 km/h (1 Bft) O-NO 71 ° 0 min 0,000 mm 1,0 UV-I 125 W/m² 10,4 °C 11,3 °C 9,7 km/h (2 Bft)
04.05.2018 11:40 11,3 °C 94 % 1013,9 hPa 0,0 mm 6,9 km/h (2 Bft) O-NO 59 ° 0 min 0,000 mm 1,0 UV-I 127 W/m² 10,4 °C 11,3 °C 9,7 km/h (2 Bft)
04.05.2018 11:41 11,3 °C 94 % 1013,9 hPa 0,0 mm 5,3 km/h (1 Bft) O-NO 57 ° 0 min 0,000 mm 0,9 UV-I 111 W/m² 10,4 °C 11,3 °C 8,0 km/h (2 Bft)
04.05.2018 11:42 11,3 °C 94 % 1013,9 hPa 0,0 mm 3,6 km/h (1 Bft) N-NO 13 ° 0 min 0,000 mm 0,8 UV-I 90 W/m² 10,4 °C 11,3 °C 6,4 km/h (2 Bft)
04.05.2018 11:43 11,3 °C 94 % 1013,9 hPa 0,0 mm 5,9 km/h (2 Bft) O-NO 69 ° 0 min 0,000 mm 0,9 UV-I 113 W/m² 10,4 °C 11,3 °C 9,7 km/h (2 Bft)
04.05.2018 11:44 11,3 °C 94 % 1013,9 hPa 0,0 mm 4,4 km/h (1 Bft) O 86 ° 0 min 0,000 mm 1,0 UV-I 121 W/m² 10,4 °C 11,3 °C 6,4 km/h (2 Bft)
04.05.2018 11:45 11,3 °C 94 % 1013,9 hPa 0,0 mm 5,9 km/h (2 Bft) O-NO 65 ° 0 min 0,000 mm 0,9 UV-I 111 W/m² 10,4 °C 11,3 °C 9,7 km/h (2 Bft)
04.05.2018 11:46 11,4 °C 94 % 1013,9 hPa 0,0 mm 4,1 km/h (1 Bft) O-NO 76 ° 0 min 0,000 mm 0,7 UV-I 88 W/m² 10,5 °C 11,4 °C 6,4 km/h (2 Bft)
04.05.2018 11:47 11,4 °C 94 % 1013,9 hPa 0,0 mm 4,8 km/h (1 Bft) O 80 ° 0 min 0,000 mm 0,7 UV-I 86 W/m² 10,5 °C 11,4 °C 12,9 km/h (3 Bft)
04.05.2018 11:48 11,3 °C 94 % 1013,9 hPa 0,0 mm 4,6 km/h (1 Bft) O-NO 65 ° 0 min 0,000 mm 0,6 UV-I 67 W/m² 10,4 °C 11,3 °C 11,3 km/h (2 Bft)
04.05.2018 11:49 11,3 °C 94 % 1013,9 hPa 0,0 mm 4,4 km/h (1 Bft) NO 40 ° 0 min 0,000 mm 0,5 UV-I 62 W/m² 10,4 °C 11,3 °C 8,0 km/h (2 Bft)
04.05.2018 11:50 11,4 °C 94 % 1013,9 hPa 0,0 mm 5,0 km/h (1 Bft) O-NO 58 ° 0 min 0,000 mm 0,5 UV-I 60 W/m² 10,5 °C 11,4 °C 8,0 km/h (2 Bft)
04.05.2018 11:51 11,4 °C 94 % 1013,9 hPa 0,0 mm 4,2 km/h (1 Bft) NO 52 ° 0 min 0,000 mm 0,5 UV-I 60 W/m² 10,5 °C 11,4 °C 6,4 km/h (2 Bft)
04.05.2018 11:52 11,4 °C 94 % 1013,9 hPa 0,0 mm 4,8 km/h (1 Bft) O 83 ° 0 min 0,000 mm 0,5 UV-I 60 W/m² 10,5 °C 11,4 °C 8,0 km/h (2 Bft)
04.05.2018 11:53 11,4 °C 94 % 1013,9 hPa 0,0 mm 3,6 km/h (1 Bft) NO 53 ° 0 min 0,000 mm 0,5 UV-I 62 W/m² 10,5 °C 11,4 °C 6,4 km/h (2 Bft)
04.05.2018 11:54 11,4 °C 94 % 1013,9 hPa 0,0 mm 5,4 km/h (1 Bft) O-NO 62 ° 0 min 0,000 mm 0,5 UV-I 63 W/m² 10,5 °C 11,4 °C 8,0 km/h (2 Bft)
04.05.2018 11:55 11,4 °C 94 % 1013,9 hPa 0,0 mm 4,7 km/h (1 Bft) O 90 ° 0 min 0,000 mm 0,5 UV-I 67 W/m² 10,5 °C 11,4 °C 8,0 km/h (2 Bft)
04.05.2018 11:56 11,4 °C 94 % 1013,9 hPa 0,0 mm 4,8 km/h (1 Bft) O-NO 69 ° 0 min 0,000 mm 0,5 UV-I 65 W/m² 10,5 °C 11,4 °C 8,0 km/h (2 Bft)
04.05.2018 11:57 11,4 °C 94 % 1014,0 hPa 0,0 mm 4,1 km/h (1 Bft) O 94 ° 0 min 0,000 mm 0,5 UV-I 62 W/m² 10,5 °C 11,4 °C 6,4 km/h (2 Bft)
04.05.2018 11:58 11,4 °C 94 % 1014,0 hPa 0,0 mm 4,7 km/h (1 Bft) O 91 ° 0 min 0,000 mm 0,5 UV-I 58 W/m² 10,5 °C 11,4 °C 9,7 km/h (2 Bft)
04.05.2018 11:59 11,4 °C 94 % 1014,0 hPa 0,0 mm 7,5 km/h (2 Bft) O 82 ° 0 min 0,000 mm 0,5 UV-I 58 W/m² 10,5 °C 11,4 °C 11,3 km/h (2 Bft)
04.05.2018 12:00 11,4 °C 94 % 1014,0 hPa 0,0 mm 4,4 km/h (1 Bft) NO 42 ° 0 min 0,000 mm 0,5 UV-I 63 W/m² 10,5 °C 11,4 °C 6,4 km/h (2 Bft)
04.05.2018 12:01 11,4 °C 94 % 1014,0 hPa 0,0 mm 5,1 km/h (1 Bft) NO 56 ° 0 min 0,050 mm 0,6 UV-I 69 W/m² 10,5 °C 11,4 °C 8,0 km/h (2 Bft)
04.05.2018 12:02 11,4 °C 94 % 1014,0 hPa 0,0 mm 5,3 km/h (1 Bft) NO 40 ° 0 min 0,000 mm 0,6 UV-I 69 W/m² 10,5 °C 11,4 °C 9,7 km/h (2 Bft)
04.05.2018 12:03 11,4 °C 94 % 1013,9 hPa 0,0 mm 4,9 km/h (1 Bft) O-NO 71 ° 0 min 0,000 mm 0,6 UV-I 67 W/m² 10,5 °C 11,4 °C 6,4 km/h (2 Bft)
04.05.2018 12:04 11,4 °C 94 % 1014,0 hPa 0,0 mm 5,8 km/h (2 Bft) N-NO 24 ° 0 min 0,000 mm 0,7 UV-I 88 W/m² 10,5 °C 11,4 °C 9,7 km/h (2 Bft)
04.05.2018 12:05 11,4 °C 94 % 1013,9 hPa 0,0 mm 8,0 km/h (2 Bft) NO 52 ° 0 min 0,000 mm 0,8 UV-I 98 W/m² 10,5 °C 11,4 °C 14,5 km/h (3 Bft)
04.05.2018 12:06 11,4 °C 94 % 1013,9 hPa 0,0 mm 6,9 km/h (2 Bft) NO 55 ° 0 min 0,000 mm 0,9 UV-I 128 W/m² 10,5 °C 11,4 °C 11,3 km/h (2 Bft)
04.05.2018 12:07 11,5 °C 94 % 1013,9 hPa 0,0 mm 7,3 km/h (2 Bft) NO 37 ° 0 min 0,000 mm 1,3 UV-I 148 W/m² 10,6 °C 11,5 °C 12,9 km/h (3 Bft)
04.05.2018 12:08 11,5 °C 94 % 1013,9 hPa 0,0 mm 8,0 km/h (2 Bft) NO 38 ° 0 min 0,000 mm 1,7 UV-I 195 W/m² 10,6 °C 11,5 °C 11,3 km/h (2 Bft)
04.05.2018 12:09 11,6 °C 94 % 1013,9 hPa 0,0 mm 9,4 km/h (2 Bft) N-NO 26 ° 0 min 0,000 mm 1,9 UV-I 223 W/m² 10,7 °C 11,6 °C 19,3 km/h (3 Bft)
04.05.2018 12:10 11,6 °C 94 % 1013,9 hPa 0,0 mm 6,6 km/h (2 Bft) NO 42 ° 0 min 0,000 mm 2,0 UV-I 234 W/m² 10,7 °C 11,6 °C 14,5 km/h (3 Bft)
04.05.2018 12:11 11,7 °C 94 % 1013,9 hPa 0,0 mm 6,3 km/h (2 Bft) NO 45 ° 0 min 0,000 mm 1,8 UV-I 209 W/m² 10,8 °C 11,7 °C 9,7 km/h (2 Bft)
04.05.2018 12:12 11,8 °C 94 % 1013,8 hPa 0,0 mm 3,0 km/h (1 Bft) NO 53 ° 0 min 0,000 mm 1,6 UV-I 192 W/m² 10,9 °C 11,8 °C 6,4 km/h (2 Bft)
04.05.2018 12:13 11,8 °C 94 % 1013,8 hPa 0,0 mm 7,8 km/h (2 Bft) NO 42 ° 0 min 0,000 mm 1,8 UV-I 211 W/m² 10,9 °C 11,8 °C 14,5 km/h (3 Bft)
04.05.2018 12:14 11,9 °C 94 % 1013,9 hPa 0,0 mm 5,0 km/h (1 Bft) O-NO 68 ° 0 min 0,000 mm 1,5 UV-I 197 W/m² 11,0 °C 11,9 °C 9,7 km/h (2 Bft)
04.05.2018 12:15 11,9 °C 94 % 1013,9 hPa 0,0 mm 8,8 km/h (2 Bft) NO 42 ° 0 min 0,000 mm 1,2 UV-I 155 W/m² 11,0 °C 11,9 °C 11,3 km/h (2 Bft)
04.05.2018 12:16 11,9 °C 93 % 1013,8 hPa 0,0 mm 9,1 km/h (2 Bft) N-NO 25 ° 0 min 0,000 mm 1,4 UV-I 163 W/m² 10,8 °C 11,9 °C 16,1 km/h (3 Bft)
04.05.2018 12:17 11,9 °C 93 % 1013,9 hPa 0,0 mm 4,8 km/h (1 Bft) O-NO 61 ° 0 min 0,000 mm 1,5 UV-I 163 W/m² 10,8 °C 11,9 °C 6,4 km/h (2 Bft)
04.05.2018 12:18 12,0 °C 93 % 1013,9 hPa 0,0 mm 5,1 km/h (1 Bft) NO 49 ° 0 min 0,000 mm 1,2 UV-I 151 W/m² 10,9 °C 12,0 °C 8,0 km/h (2 Bft)
04.05.2018 12:19 12,1 °C 93 % 1013,9 hPa 0,0 mm 9,5 km/h (2 Bft) NO 35 ° 0 min 0,000 mm 1,2 UV-I 146 W/m² 11,0 °C 12,1 °C 14,5 km/h (3 Bft)
04.05.2018 12:20 12,0 °C 93 % 1013,9 hPa 0,0 mm 4,4 km/h (1 Bft) NO 47 ° 0 min 0,000 mm 1,1 UV-I 149 W/m² 10,9 °C 12,0 °C 8,0 km/h (2 Bft)
04.05.2018 12:21 12,1 °C 93 % 1013,9 hPa 0,0 mm 6,0 km/h (2 Bft) NO 40 ° 0 min 0,000 mm 1,3 UV-I 148 W/m² 11,0 °C 12,1 °C 9,7 km/h (2 Bft)
04.05.2018 12:22 12,1 °C 93 % 1013,9 hPa 0,0 mm 6,8 km/h (2 Bft) O 80 ° 0 min 0,000 mm 1,2 UV-I 153 W/m² 11,0 °C 12,1 °C 12,9 km/h (3 Bft)
04.05.2018 12:23 12,1 °C 93 % 1013,9 hPa 0,0 mm 6,2 km/h (2 Bft) O 82 ° 0 min 0,000 mm 1,2 UV-I 144 W/m² 11,0 °C 12,1 °C 11,3 km/h (2 Bft)
04.05.2018 12:24 12,1 °C 93 % 1013,9 hPa 0,0 mm 5,8 km/h (2 Bft) NO 46 ° 0 min 0,000 mm 1,0 UV-I 130 W/m² 11,0 °C 12,1 °C 8,0 km/h (2 Bft)
04.05.2018 12:25 12,1 °C 93 % 1013,9 hPa 0,0 mm 7,2 km/h (2 Bft) NO 44 ° 0 min 0,000 mm 0,8 UV-I 114 W/m² 11,0 °C 12,1 °C 9,7 km/h (2 Bft)
04.05.2018 12:26 12,0 °C 93 % 1013,9 hPa 0,0 mm 9,3 km/h (2 Bft) NO 49 ° 0 min 0,000 mm 0,7 UV-I 90 W/m² 10,9 °C 12,0 °C 12,9 km/h (3 Bft)
04.05.2018 12:27 12,0 °C 93 % 1013,9 hPa 0,0 mm 8,6 km/h (2 Bft) O-NO 67 ° 0 min 0,000 mm 0,9 UV-I 107 W/m² 10,9 °C 12,0 °C 11,3 km/h (2 Bft)
04.05.2018 12:28 11,9 °C 93 % 1013,9 hPa 0,0 mm 9,3 km/h (2 Bft) O-NO 70 ° 0 min 0,000 mm 1,1 UV-I 132 W/m² 10,8 °C 11,9 °C 12,9 km/h (3 Bft)
04.05.2018 12:29 12,0 °C 93 % 1013,9 hPa 0,0 mm 3,7 km/h (1 Bft) O-NO 65 ° 0 min 0,000 mm 1,5 UV-I 204 W/m² 10,9 °C 12,0 °C 8,0 km/h (2 Bft)
04.05.2018 12:30 12,0 °C 93 % 1013,9 hPa 0,0 mm 5,2 km/h (1 Bft) NO 44 ° 0 min 0,000 mm 1,6 UV-I 202 W/m² 10,9 °C 12,0 °C 8,0 km/h (2 Bft)
04.05.2018 12:31 12,0 °C 93 % 1014,0 hPa 0,0 mm 8,4 km/h (2 Bft) O-NO 67 ° 0 min 0,000 mm 1,8 UV-I 213 W/m² 10,9 °C 12,0 °C 12,9 km/h (3 Bft)
04.05.2018 12:32 12,0 °C 93 % 1013,9 hPa 0,0 mm 7,6 km/h (2 Bft) O 90 ° 0 min 0,000 mm 2,0 UV-I 243 W/m² 10,9 °C 12,0 °C 9,7 km/h (2 Bft)
04.05.2018 12:33 12,1 °C 93 % 1013,9 hPa 0,0 mm 8,2 km/h (2 Bft) NO 45 ° 0 min 0,000 mm 1,3 UV-I 183 W/m² 11,0 °C 12,1 °C 14,5 km/h (3 Bft)
04.05.2018 12:34 12,1 °C 93 % 1014,0 hPa 0,0 mm 7,1 km/h (2 Bft) NO 55 ° 0 min 0,000 mm 1,1 UV-I 121 W/m² 11,0 °C 12,1 °C 11,3 km/h (2 Bft)
04.05.2018 12:35 12,1 °C 93 % 1014,0 hPa 0,0 mm 6,6 km/h (2 Bft) O-NO 65 ° 0 min 0,000 mm 1,0 UV-I 111 W/m² 11,0 °C 12,1 °C 9,7 km/h (2 Bft)
04.05.2018 12:36 12,1 °C 93 % 1014,0 hPa 0,0 mm 3,6 km/h (1 Bft) O-NO 63 ° 0 min 0,000 mm 0,7 UV-I 91 W/m² 11,0 °C 12,1 °C 6,4 km/h (2 Bft)
04.05.2018 12:37 12,1 °C 93 % 1013,9 hPa 0,0 mm 5,0 km/h (1 Bft) O 88 ° 0 min 0,000 mm 0,6 UV-I 74 W/m² 11,0 °C 12,1 °C 9,7 km/h (2 Bft)
04.05.2018 12:38 12,1 °C 93 % 1014,0 hPa 0,0 mm 4,3 km/h (1 Bft) NO 53 ° 0 min 0,000 mm 0,6 UV-I 76 W/m² 11,0 °C 12,1 °C 9,7 km/h (2 Bft)
04.05.2018 12:39 12,1 °C 92 % 1014,0 hPa 0,0 mm 8,9 km/h (2 Bft) O 96 ° 0 min 0,000 mm 0,6 UV-I 72 W/m² 10,8 °C 12,1 °C 12,9 km/h (3 Bft)
04.05.2018 12:40 12,0 °C 92 % 1014,0 hPa 0,0 mm 7,2 km/h (2 Bft) O-NO 70 ° 0 min 0,000 mm 0,7 UV-I 90 W/m² 10,7 °C 12,0 °C 11,3 km/h (2 Bft)
04.05.2018 12:41 11,9 °C 92 % 1014,0 hPa 0,0 mm 8,0 km/h (2 Bft) O 80 ° 0 min 0,000 mm 0,8 UV-I 91 W/m² 10,6 °C 11,9 °C 14,5 km/h (3 Bft)
04.05.2018 12:42 11,9 °C 92 % 1014,0 hPa 0,0 mm 5,6 km/h (1 Bft) NO 53 ° 0 min 0,000 mm 0,8 UV-I 97 W/m² 10,6 °C 11,9 °C 12,9 km/h (3 Bft)
04.05.2018 12:43 11,9 °C 92 % 1014,1 hPa 0,0 mm 4,8 km/h (1 Bft) N-NO 30 ° 0 min 0,000 mm 0,7 UV-I 88 W/m² 10,6 °C 11,9 °C 8,0 km/h (2 Bft)
04.05.2018 12:44 11,9 °C 92 % 1014,0 hPa 0,0 mm 5,8 km/h (2 Bft) N-NO 15 ° 0 min 0,000 mm 0,8 UV-I 93 W/m² 10,6 °C 11,9 °C 9,7 km/h (2 Bft)
04.05.2018 12:45 11,9 °C 92 % 1014,0 hPa 0,0 mm 5,8 km/h (2 Bft) O-NO 65 ° 0 min 0,000 mm 0,7 UV-I 84 W/m² 10,6 °C 11,9 °C 11,3 km/h (2 Bft)
04.05.2018 12:46 11,9 °C 92 % 1014,0 hPa 0,0 mm 7,7 km/h (2 Bft) O 86 ° 0 min 0,000 mm 0,8 UV-I 98 W/m² 10,6 °C 11,9 °C 12,9 km/h (3 Bft)
04.05.2018 12:47 11,8 °C 92 % 1014,1 hPa 0,0 mm 7,8 km/h (2 Bft) O-NO 62 ° 0 min 0,000 mm 0,9 UV-I 105 W/m² 10,5 °C 11,8 °C 12,9 km/h (3 Bft)
04.05.2018 12:48 11,8 °C 92 % 1014,1 hPa 0,0 mm 6,6 km/h (2 Bft) O-NO 69 ° 0 min 0,000 mm 0,9 UV-I 107 W/m² 10,5 °C 11,8 °C 14,5 km/h (3 Bft)
04.05.2018 12:49 11,8 °C 92 % 1014,1 hPa 0,0 mm 6,9 km/h (2 Bft) O 93 ° 0 min 0,000 mm 0,8 UV-I 100 W/m² 10,5 °C 11,8 °C 11,3 km/h (2 Bft)
04.05.2018 12:50 11,8 °C 93 % 1014,0 hPa 0,0 mm 7,2 km/h (2 Bft) O-NO 59 ° 0 min 0,000 mm 0,7 UV-I 90 W/m² 10,7 °C 11,8 °C 16,1 km/h (3 Bft)
04.05.2018 12:51 11,8 °C 92 % 1014,1 hPa 0,0 mm 9,3 km/h (2 Bft) O-NO 70 ° 0 min 0,000 mm 0,7 UV-I 88 W/m² 10,5 °C 11,8 °C 12,9 km/h (3 Bft)
04.05.2018 12:52 11,8 °C 92 % 1014,1 hPa 0,0 mm 6,5 km/h (2 Bft) O-NO 66 ° 0 min 0,000 mm 0,6 UV-I 74 W/m² 10,5 °C 11,8 °C 14,5 km/h (3 Bft)
04.05.2018 12:53 11,8 °C 92 % 1014,1 hPa 0,0 mm 8,0 km/h (2 Bft) N-NO 19 ° 0 min 0,000 mm 0,6 UV-I 72 W/m² 10,5 °C 11,8 °C 14,5 km/h (3 Bft)
04.05.2018 12:54 11,8 °C 92 % 1014,1 hPa 0,0 mm 5,8 km/h (2 Bft) O-NO 63 ° 0 min 0,000 mm 0,6 UV-I 74 W/m² 10,5 °C 11,8 °C 8,0 km/h (2 Bft)
04.05.2018 12:55 11,8 °C 92 % 1014,1 hPa 0,0 mm 2,2 km/h (1 Bft) O-NO 63 ° 0 min 0,000 mm 0,7 UV-I 84 W/m² 10,5 °C 11,8 °C 3,2 km/h (1 Bft)
04.05.2018 12:56 11,9 °C 92 % 1014,1 hPa 0,0 mm 3,0 km/h (1 Bft) O 84 ° 0 min 0,000 mm 0,8 UV-I 98 W/m² 10,6 °C 11,9 °C 8,0 km/h (2 Bft)
04.05.2018 12:57 11,8 °C 92 % 1014,1 hPa 0,0 mm 6,3 km/h (2 Bft) O-NO 75 ° 0 min 0,000 mm 0,8 UV-I 97 W/m² 10,5 °C 11,8 °C 9,7 km/h (2 Bft)
04.05.2018 12:58 11,8 °C 92 % 1014,1 hPa 0,0 mm 4,7 km/h (1 Bft) O-NO 77 ° 0 min 0,000 mm 0,8 UV-I 102 W/m² 10,5 °C 11,8 °C 6,4 km/h (2 Bft)
04.05.2018 12:59 11,8 °C 92 % 1014,2 hPa 0,0 mm 4,6 km/h (1 Bft) O-NO 64 ° 0 min 0,000 mm 0,9 UV-I 105 W/m² 10,5 °C 11,8 °C 9,7 km/h (2 Bft)
04.05.2018 13:00 11,8 °C 92 % 1014,1 hPa 0,0 mm 3,4 km/h (1 Bft) N-NO 30 ° 0 min 0,077 mm 0,9 UV-I 109 W/m² 10,5 °C 11,8 °C 6,4 km/h (2 Bft)
04.05.2018 13:01 11,9 °C 92 % 1014,1 hPa 0,0 mm 5,4 km/h (1 Bft) NO 49 ° 0 min 0,000 mm 1,0 UV-I 118 W/m² 10,6 °C 11,9 °C 8,0 km/h (2 Bft)
04.05.2018 13:02 11,9 °C 92 % 1014,1 hPa 0,0 mm 5,2 km/h (1 Bft) NO 40 ° 0 min 0,000 mm 0,9 UV-I 116 W/m² 10,6 °C 11,9 °C 8,0 km/h (2 Bft)
04.05.2018 13:03 11,9 °C 92 % 1014,2 hPa 0,0 mm 4,8 km/h (1 Bft) NO 49 ° 0 min 0,000 mm 1,1 UV-I 130 W/m² 10,6 °C 11,9 °C 9,7 km/h (2 Bft)
04.05.2018 13:04 11,9 °C 92 % 1014,2 hPa 0,0 mm 7,3 km/h (2 Bft) O-NO 66 ° 0 min 0,000 mm 1,0 UV-I 123 W/m² 10,6 °C 11,9 °C 11,3 km/h (2 Bft)
04.05.2018 13:05 11,9 °C 92 % 1014,2 hPa 0,0 mm 6,9 km/h (2 Bft) NO 36 ° 0 min 0,000 mm 1,0 UV-I 121 W/m² 10,6 °C 11,9 °C 12,9 km/h (3 Bft)
04.05.2018 13:06 11,9 °C 92 % 1014,1 hPa 0,0 mm 4,6 km/h (1 Bft) O-NO 77 ° 0 min 0,000 mm 0,9 UV-I 107 W/m² 10,6 °C 11,9 °C 6,4 km/h (2 Bft)
04.05.2018 13:07 12,0 °C 92 % 1014,1 hPa 0,0 mm 3,6 km/h (1 Bft) NO 36 ° 0 min 0,000 mm 0,7 UV-I 93 W/m² 10,7 °C 12,0 °C 8,0 km/h (2 Bft)
04.05.2018 13:08 12,0 °C 92 % 1014,1 hPa 0,0 mm 5,3 km/h (1 Bft) N-NO 21 ° 0 min 0,000 mm 0,7 UV-I 86 W/m² 10,7 °C 12,0 °C 6,4 km/h (2 Bft)
04.05.2018 13:09 12,0 °C 92 % 1014,2 hPa 0,0 mm 5,6 km/h (1 Bft) NO 53 ° 0 min 0,000 mm 0,6 UV-I 74 W/m² 10,7 °C 12,0 °C 8,0 km/h (2 Bft)
04.05.2018 13:10 12,0 °C 92 % 1014,1 hPa 0,0 mm 5,5 km/h (1 Bft) NO 52 ° 0 min 0,000 mm 0,6 UV-I 72 W/m² 10,7 °C 12,0 °C 8,0 km/h (2 Bft)
04.05.2018 13:11 12,0 °C 92 % 1014,2 hPa 0,0 mm 2,8 km/h (1 Bft) NO 52 ° 0 min 0,000 mm 0,6 UV-I 67 W/m² 10,7 °C 12,0 °C 6,4 km/h (2 Bft)
04.05.2018 13:12 12,0 °C 92 % 1014,1 hPa 0,0 mm 1,7 km/h (1 Bft) NO 52 ° 0 min 0,000 mm 0,5 UV-I 62 W/m² 10,7 °C 12,0 °C 4,8 km/h (1 Bft)
04.05.2018 13:13 12,1 °C 92 % 1014,2 hPa 0,0 mm 2,1 km/h (1 Bft) NO 52 ° 0 min 0,000 mm 0,5 UV-I 65 W/m² 10,8 °C 12,1 °C 4,8 km/h (1 Bft)
04.05.2018 13:14 12,1 °C 92 % 1014,3 hPa 0,0 mm 3,3 km/h (1 Bft) NO 39 ° 0 min 0,000 mm 0,5 UV-I 60 W/m² 10,8 °C 12,1 °C 6,4 km/h (2 Bft)
04.05.2018 13:15 12,1 °C 92 % 1014,2 hPa 0,0 mm 5,1 km/h (1 Bft) O-NO 74 ° 0 min 0,000 mm 0,6 UV-I 72 W/m² 10,8 °C 12,1 °C 8,0 km/h (2 Bft)
04.05.2018 13:16 12,1 °C 92 % 1014,2 hPa 0,0 mm 4,7 km/h (1 Bft) N-NO 22 ° 0 min 0,000 mm 0,6 UV-I 76 W/m² 10,8 °C 12,1 °C 6,4 km/h (2 Bft)
04.05.2018 13:17 12,1 °C 92 % 1014,2 hPa 0,0 mm 5,6 km/h (1 Bft) O-NO 63 ° 0 min 0,000 mm 0,6 UV-I 74 W/m² 10,8 °C 12,1 °C 8,0 km/h (2 Bft)
04.05.2018 13:18 12,1 °C 92 % 1014,3 hPa 0,0 mm 3,0 km/h (1 Bft) NO 44 ° 0 min 0,000 mm 0,6 UV-I 74 W/m² 10,8 °C 12,1 °C 6,4 km/h (2 Bft)
04.05.2018 13:19 12,1 °C 92 % 1014,3 hPa 0,0 mm 6,2 km/h (2 Bft) NO 42 ° 0 min 0,000 mm 0,6 UV-I 77 W/m² 10,8 °C 12,1 °C 8,0 km/h (2 Bft)
04.05.2018 13:20 12,1 °C 92 % 1014,2 hPa 0,0 mm 4,9 km/h (1 Bft) NO 34 ° 0 min 0,000 mm 0,7 UV-I 84 W/m² 10,8 °C 12,1 °C 8,0 km/h (2 Bft)
04.05.2018 13:21 12,1 °C 92 % 1014,1 hPa 0,0 mm 3,9 km/h (1 Bft) NO 55 ° 0 min 0,000 mm 0,7 UV-I 81 W/m² 10,8 °C 12,1 °C 8,0 km/h (2 Bft)
04.05.2018 13:22 12,1 °C 92 % 1014,2 hPa 0,0 mm 4,3 km/h (1 Bft) NO 37 ° 0 min 0,000 mm 0,6 UV-I 81 W/m² 10,8 °C 12,1 °C 6,4 km/h (2 Bft)
04.05.2018 13:23 12,1 °C 92 % 1014,2 hPa 0,0 mm 3,8 km/h (1 Bft) NO 40 ° 0 min 0,000 mm 0,5 UV-I 70 W/m² 10,8 °C 12,1 °C 6,4 km/h (2 Bft)
04.05.2018 13:24 12,1 °C 92 % 1014,2 hPa 0,0 mm 3,6 km/h (1 Bft) O-NO 67 ° 0 min 0,000 mm 0,5 UV-I 62 W/m² 10,8 °C 12,1 °C 4,8 km/h (1 Bft)
04.05.2018 13:25 12,1 °C 92 % 1014,2 hPa 0,0 mm 5,0 km/h (1 Bft) O-NO 64 ° 0 min 0,000 mm 0,5 UV-I 56 W/m² 10,8 °C 12,1 °C 6,4 km/h (2 Bft)
04.05.2018 13:26 12,1 °C 92 % 1014,2 hPa 0,0 mm 4,0 km/h (1 Bft) N-NO 27 ° 0 min 0,000 mm 0,0 UV-I 51 W/m² 10,8 °C 12,1 °C 8,0 km/h (2 Bft)
04.05.2018 13:27 12,1 °C 92 % 1014,2 hPa 0,0 mm 5,2 km/h (1 Bft) NO 55 ° 0 min 0,000 mm 0,0 UV-I 51 W/m² 10,8 °C 12,1 °C 8,0 km/h (2 Bft)
04.05.2018 13:28 12,1 °C 92 % 1014,3 hPa 0,0 mm 7,4 km/h (2 Bft) O-NO 70 ° 0 min 0,000 mm 0,5 UV-I 60 W/m² 10,8 °C 12,1 °C 14,5 km/h (3 Bft)
04.05.2018 13:29 12,1 °C 92 % 1014,2 hPa 0,0 mm 7,0 km/h (2 Bft) NO 46 ° 0 min 0,000 mm 0,8 UV-I 84 W/m² 10,8 °C 12,1 °C 9,7 km/h (2 Bft)
04.05.2018 13:30 12,1 °C 92 % 1014,2 hPa 0,0 mm 6,0 km/h (2 Bft) N-NO 24 ° 0 min 0,000 mm 0,7 UV-I 84 W/m² 10,8 °C 12,1 °C 8,0 km/h (2 Bft)
04.05.2018 13:31 12,1 °C 92 % 1014,2 hPa 0,0 mm 6,2 km/h (2 Bft) NO 38 ° 0 min 0,000 mm 0,8 UV-I 90 W/m² 10,8 °C 12,1 °C 8,0 km/h (2 Bft)
04.05.2018 13:32 12,1 °C 92 % 1014,2 hPa 0,0 mm 5,5 km/h (1 Bft) O 87 ° 0 min 0,000 mm 0,9 UV-I 109 W/m² 10,8 °C 12,1 °C 9,7 km/h (2 Bft)
04.05.2018 13:33 12,1 °C 92 % 1014,2 hPa 0,0 mm 8,4 km/h (2 Bft) NO 36 ° 0 min 0,000 mm 0,9 UV-I 109 W/m² 10,8 °C 12,1 °C 12,9 km/h (3 Bft)
04.05.2018 13:34 12,1 °C 92 % 1014,3 hPa 0,0 mm 7,0 km/h (2 Bft) O 85 ° 0 min 0,000 mm 0,7 UV-I 86 W/m² 10,8 °C 12,1 °C 9,7 km/h (2 Bft)
04.05.2018 13:35 12,1 °C 92 % 1014,3 hPa 0,0 mm 7,4 km/h (2 Bft) NO 38 ° 0 min 0,000 mm 0,6 UV-I 72 W/m² 10,8 °C 12,1 °C 11,3 km/h (2 Bft)
04.05.2018 13:36 12,1 °C 92 % 1014,2 hPa 0,0 mm 5,8 km/h (2 Bft) O-NO 57 ° 0 min 0,000 mm 0,5 UV-I 60 W/m² 10,8 °C 12,1 °C 8,0 km/h (2 Bft)
04.05.2018 13:37 12,1 °C 92 % 1014,2 hPa 0,0 mm 6,3 km/h (2 Bft) O 86 ° 0 min 0,000 mm 0,5 UV-I 58 W/m² 10,8 °C 12,1 °C 12,9 km/h (3 Bft)
04.05.2018 13:38 12,1 °C 92 % 1014,3 hPa 0,0 mm 5,7 km/h (1 Bft) O 80 ° 0 min 0,000 mm 0,5 UV-I 54 W/m² 10,8 °C 12,1 °C 8,0 km/h (2 Bft)
04.05.2018 13:39 12,1 °C 92 % 1014,2 hPa 0,0 mm 3,8 km/h (1 Bft) O-NO 71 ° 0 min 0,000 mm 0,0 UV-I 49 W/m² 10,8 °C 12,1 °C 6,4 km/h (2 Bft)
04.05.2018 13:40 12,1 °C 92 % 1014,3 hPa 0,0 mm 4,9 km/h (1 Bft) NO 51 ° 0 min 0,000 mm 0,0 UV-I 49 W/m² 10,8 °C 12,1 °C 8,0 km/h (2 Bft)
04.05.2018 13:41 12,1 °C 92 % 1014,3 hPa 0,0 mm 7,6 km/h (2 Bft) O-NO 77 ° 0 min 0,000 mm 0,0 UV-I 51 W/m² 10,8 °C 12,1 °C 14,5 km/h (3 Bft)
04.05.2018 13:42 12,1 °C 92 % 1014,3 hPa 0,0 mm 2,4 km/h (1 Bft) O-NO 69 ° 0 min 0,000 mm 0,0 UV-I 54 W/m² 10,8 °C 12,1 °C 4,8 km/h (1 Bft)
04.05.2018 13:43 12,1 °C 92 % 1014,2 hPa 0,0 mm 5,2 km/h (1 Bft) NO 47 ° 0 min 0,000 mm 0,5 UV-I 56 W/m² 10,8 °C 12,1 °C 8,0 km/h (2 Bft)
04.05.2018 13:44 12,1 °C 92 % 1014,3 hPa 0,0 mm 7,4 km/h (2 Bft) NO 36 ° 0 min 0,000 mm 0,0 UV-I 54 W/m² 10,8 °C 12,1 °C 11,3 km/h (2 Bft)
04.05.2018 13:45 12,1 °C 92 % 1014,3 hPa 0,0 mm 9,8 km/h (2 Bft) NO 40 ° 0 min 0,000 mm 0,5 UV-I 67 W/m² 10,8 °C 12,1 °C 14,5 km/h (3 Bft)
04.05.2018 13:46 12,1 °C 92 % 1014,3 hPa 0,0 mm 7,0 km/h (2 Bft) O-NO 77 ° 0 min 0,000 mm 0,5 UV-I 65 W/m² 10,8 °C 12,1 °C 11,3 km/h (2 Bft)
04.05.2018 13:47 12,1 °C 92 % 1014,2 hPa 0,0 mm 7,6 km/h (2 Bft) NO 56 ° 0 min 0,000 mm 0,5 UV-I 63 W/m² 10,8 °C 12,1 °C 14,5 km/h (3 Bft)
04.05.2018 13:48 12,1 °C 92 % 1014,2 hPa 0,0 mm 9,8 km/h (2 Bft) O-NO 58 ° 0 min 0,000 mm 0,5 UV-I 65 W/m² 10,8 °C 12,1 °C 14,5 km/h (3 Bft)
04.05.2018 13:49 12,1 °C 92 % 1014,3 hPa 0,0 mm 6,0 km/h (2 Bft) O-NO 60 ° 0 min 0,000 mm 0,5 UV-I 67 W/m² 10,8 °C 12,1 °C 8,0 km/h (2 Bft)
04.05.2018 13:50 12,1 °C 92 % 1014,3 hPa 0,0 mm 5,6 km/h (1 Bft) O-NO 63 ° 0 min 0,000 mm 0,5 UV-I 67 W/m² 10,8 °C 12,1 °C 8,0 km/h (2 Bft)
04.05.2018 13:51 12,1 °C 92 % 1014,3 hPa 0,0 mm 5,9 km/h (2 Bft) O-NO 70 ° 0 min 0,000 mm 0,6 UV-I 83 W/m² 10,8 °C 12,1 °C 9,7 km/h (2 Bft)
04.05.2018 13:52 12,1 °C 92 % 1014,3 hPa 0,0 mm 6,1 km/h (2 Bft) O-NO 71 ° 0 min 0,000 mm 0,6 UV-I 81 W/m² 10,8 °C 12,1 °C 9,7 km/h (2 Bft)
04.05.2018 13:53 12,1 °C 92 % 1014,3 hPa 0,0 mm 7,2 km/h (2 Bft) NO 54 ° 0 min 0,000 mm 0,6 UV-I 77 W/m² 10,8 °C 12,1 °C 11,3 km/h (2 Bft)
04.05.2018 13:54 12,1 °C 92 % 1014,3 hPa 0,0 mm 9,3 km/h (2 Bft) NO 54 ° 0 min 0,000 mm 0,8 UV-I 93 W/m² 10,8 °C 12,1 °C 16,1 km/h (3 Bft)
04.05.2018 13:55 12,1 °C 92 % 1014,3 hPa 0,0 mm 5,8 km/h (2 Bft) O-NO 74 ° 0 min 0,000 mm 0,8 UV-I 95 W/m² 10,8 °C 12,1 °C 14,5 km/h (3 Bft)
04.05.2018 13:56 12,1 °C 92 % 1014,3 hPa 0,0 mm 8,6 km/h (2 Bft) O-NO 59 ° 0 min 0,000 mm 0,7 UV-I 90 W/m² 10,8 °C 12,1 °C 11,3 km/h (2 Bft)
04.05.2018 13:57 12,1 °C 92 % 1014,3 hPa 0,0 mm 4,6 km/h (1 Bft) NO 46 ° 0 min 0,000 mm 0,8 UV-I 98 W/m² 10,8 °C 12,1 °C 11,3 km/h (2 Bft)
04.05.2018 13:58 12,1 °C 92 % 1014,3 hPa 0,0 mm 5,8 km/h (2 Bft) O-NO 62 ° 0 min 0,000 mm 0,9 UV-I 111 W/m² 10,8 °C 12,1 °C 8,0 km/h (2 Bft)
04.05.2018 13:59 12,1 °C 92 % 1014,3 hPa 0,0 mm 5,8 km/h (2 Bft) N-NO 29 ° 0 min 0,000 mm 1,1 UV-I 130 W/m² 10,8 °C 12,1 °C 6,4 km/h (2 Bft)
04.05.2018 14:00 12,1 °C 92 % 1014,3 hPa 0,0 mm 6,4 km/h (2 Bft) O 87 ° 0 min 0,000 mm 1,3 UV-I 158 W/m² 10,8 °C 12,1 °C 8,0 km/h (2 Bft)
04.05.2018 14:01 12,2 °C 92 % 1014,3 hPa 0,0 mm 5,8 km/h (2 Bft) NO 45 ° 0 min 0,050 mm 1,5 UV-I 178 W/m² 10,9 °C 12,2 °C 11,3 km/h (2 Bft)
04.05.2018 14:02 12,2 °C 92 % 1014,3 hPa 0,0 mm 3,8 km/h (1 Bft) N-NO 15 ° 0 min 0,000 mm 1,8 UV-I 265 W/m² 10,9 °C 12,2 °C 6,4 km/h (2 Bft)
04.05.2018 14:03 12,2 °C 92 % 1014,3 hPa 0,0 mm 4,7 km/h (1 Bft) NO 49 ° 0 min 0,000 mm 2,2 UV-I 278 W/m² 10,9 °C 12,2 °C 6,4 km/h (2 Bft)
04.05.2018 14:04 12,3 °C 92 % 1014,3 hPa 0,0 mm 5,9 km/h (2 Bft) NO 48 ° 0 min 0,000 mm 2,1 UV-I 260 W/m² 11,0 °C 12,3 °C 11,3 km/h (2 Bft)
04.05.2018 14:05 12,3 °C 92 % 1014,2 hPa 0,0 mm 2,4 km/h (1 Bft) NO 51 ° 0 min 0,000 mm 2,0 UV-I 251 W/m² 11,0 °C 12,3 °C 4,8 km/h (1 Bft)
04.05.2018 14:06 12,4 °C 92 % 1014,3 hPa 0,0 mm 4,8 km/h (1 Bft) NO 37 ° 0 min 0,000 mm 2,0 UV-I 253 W/m² 11,1 °C 12,4 °C 6,4 km/h (2 Bft)
04.05.2018 14:07 12,5 °C 92 % 1014,3 hPa 0,0 mm 8,2 km/h (2 Bft) NO 44 ° 0 min 0,000 mm 1,9 UV-I 244 W/m² 11,2 °C 12,5 °C 12,9 km/h (3 Bft)
04.05.2018 14:08 12,5 °C 92 % 1014,3 hPa 0,0 mm 9,5 km/h (2 Bft) O-SO 105 ° 0 min 0,000 mm 1,7 UV-I 183 W/m² 11,2 °C 12,5 °C 14,5 km/h (3 Bft)
04.05.2018 14:09 12,6 °C 92 % 1014,3 hPa 0,0 mm 8,6 km/h (2 Bft) O-NO 78 ° 0 min 0,000 mm 1,6 UV-I 165 W/m² 11,3 °C 12,6 °C 16,1 km/h (3 Bft)
04.05.2018 14:10 12,6 °C 92 % 1014,4 hPa 0,0 mm 4,9 km/h (1 Bft) NO 52 ° 0 min 0,000 mm 1,4 UV-I 163 W/m² 11,3 °C 12,6 °C 8,0 km/h (2 Bft)
04.05.2018 14:11 12,6 °C 92 % 1014,4 hPa 0,0 mm 4,1 km/h (1 Bft) O 97 ° 0 min 0,000 mm 1,4 UV-I 165 W/m² 11,3 °C 12,6 °C 6,4 km/h (2 Bft)
04.05.2018 14:12 12,6 °C 92 % 1014,4 hPa 0,0 mm 3,2 km/h (1 Bft) N-NO 30 ° 0 min 0,000 mm 1,4 UV-I 165 W/m² 11,3 °C 12,6 °C 8,0 km/h (2 Bft)
04.05.2018 14:13 12,6 °C 92 % 1014,4 hPa 0,0 mm 7,8 km/h (2 Bft) O-NO 59 ° 0 min 0,000 mm 1,3 UV-I 171 W/m² 11,3 °C 12,6 °C 11,3 km/h (2 Bft)
04.05.2018 14:14 12,6 °C 92 % 1014,4 hPa 0,0 mm 6,0 km/h (2 Bft) O-NO 62 ° 0 min 0,000 mm 1,2 UV-I 141 W/m² 11,3 °C 12,6 °C 9,7 km/h (2 Bft)
04.05.2018 14:15 12,6 °C 91 % 1014,4 hPa 0,0 mm 11,5 km/h (2 Bft) O-NO 69 ° 0 min 0,000 mm 1,2 UV-I 146 W/m² 11,2 °C 12,6 °C 20,9 km/h (4 Bft)
04.05.2018 14:16 12,6 °C 91 % 1014,4 hPa 0,0 mm 8,0 km/h (2 Bft) NO 44 ° 0 min 0,000 mm 1,3 UV-I 158 W/m² 11,2 °C 12,6 °C 14,5 km/h (3 Bft)
04.05.2018 14:17 12,6 °C 91 % 1014,4 hPa 0,0 mm 9,9 km/h (2 Bft) O 84 ° 0 min 0,000 mm 1,4 UV-I 172 W/m² 11,2 °C 12,6 °C 17,7 km/h (3 Bft)
04.05.2018 14:18 12,6 °C 91 % 1014,4 hPa 0,0 mm 5,4 km/h (1 Bft) O-NO 68 ° 0 min 0,000 mm 1,6 UV-I 195 W/m² 11,2 °C 12,6 °C 8,0 km/h (2 Bft)
04.05.2018 14:19 12,6 °C 91 % 1014,4 hPa 0,0 mm 6,2 km/h (2 Bft) O 84 ° 0 min 0,000 mm 1,2 UV-I 167 W/m² 11,2 °C 12,6 °C 11,3 km/h (2 Bft)
04.05.2018 14:20 12,6 °C 91 % 1014,4 hPa 0,0 mm 8,3 km/h (2 Bft) NO 44 ° 0 min 0,000 mm 1,4 UV-I 207 W/m² 11,2 °C 12,6 °C 9,7 km/h (2 Bft)
04.05.2018 14:21 12,6 °C 91 % 1014,4 hPa 0,0 mm 4,5 km/h (1 Bft) O-NO 68 ° 0 min 0,000 mm 1,8 UV-I 237 W/m² 11,2 °C 12,6 °C 6,4 km/h (2 Bft)
04.05.2018 14:22 12,6 °C 91 % 1014,4 hPa 0,0 mm 5,8 km/h (2 Bft) O 91 ° 0 min 0,000 mm 1,7 UV-I 236 W/m² 11,2 °C 12,6 °C 9,7 km/h (2 Bft)
04.05.2018 14:23 12,6 °C 91 % 1014,4 hPa 0,0 mm 8,9 km/h (2 Bft) N-NO 27 ° 0 min 0,000 mm 1,3 UV-I 197 W/m² 11,2 °C 12,6 °C 14,5 km/h (3 Bft)
04.05.2018 14:24 12,7 °C 92 % 1014,4 hPa 0,0 mm 7,2 km/h (2 Bft) O-NO 63 ° 0 min 0,000 mm 1,1 UV-I 141 W/m² 11,4 °C 12,7 °C 9,7 km/h (2 Bft)
04.05.2018 14:25 12,7 °C 92 % 1014,4 hPa 0,0 mm 5,2 km/h (1 Bft) NO 48 ° 0 min 0,000 mm 1,0 UV-I 134 W/m² 11,4 °C 12,7 °C 8,0 km/h (2 Bft)
04.05.2018 14:26 12,7 °C 91 % 1014,4 hPa 0,0 mm 8,3 km/h (2 Bft) O 86 ° 0 min 0,000 mm 0,9 UV-I 111 W/m² 11,3 °C 12,7 °C 14,5 km/h (3 Bft)
04.05.2018 14:27 12,7 °C 91 % 1014,5 hPa 0,0 mm 7,6 km/h (2 Bft) O-NO 78 ° 0 min 0,000 mm 0,8 UV-I 105 W/m² 11,3 °C 12,7 °C 11,3 km/h (2 Bft)
04.05.2018 14:28 12,6 °C 91 % 1014,5 hPa 0,0 mm 5,8 km/h (2 Bft) O-NO 67 ° 0 min 0,000 mm 0,9 UV-I 114 W/m² 11,2 °C 12,6 °C 8,0 km/h (2 Bft)
04.05.2018 14:29 12,6 °C 91 % 1014,5 hPa 0,0 mm 8,4 km/h (2 Bft) O-NO 71 ° 0 min 0,000 mm 1,0 UV-I 125 W/m² 11,2 °C 12,6 °C 16,1 km/h (3 Bft)
04.05.2018 14:30 12,6 °C 91 % 1014,4 hPa 0,0 mm 8,4 km/h (2 Bft) O-NO 60 ° 0 min 0,000 mm 1,1 UV-I 139 W/m² 11,2 °C 12,6 °C 11,3 km/h (2 Bft)
04.05.2018 14:31 12,6 °C 91 % 1014,5 hPa 0,0 mm 8,4 km/h (2 Bft) O 88 ° 0 min 0,000 mm 1,0 UV-I 139 W/m² 11,2 °C 12,6 °C 12,9 km/h (3 Bft)
04.05.2018 14:32 12,6 °C 91 % 1014,5 hPa 0,0 mm 9,6 km/h (2 Bft) O-NO 62 ° 0 min 0,000 mm 1,0 UV-I 116 W/m² 11,2 °C 12,6 °C 14,5 km/h (3 Bft)
04.05.2018 14:33 12,6 °C 91 % 1014,4 hPa 0,0 mm 5,4 km/h (1 Bft) O 80 ° 0 min 0,000 mm 0,9 UV-I 113 W/m² 11,2 °C 12,6 °C 8,0 km/h (2 Bft)
04.05.2018 14:34 12,6 °C 91 % 1014,5 hPa 0,0 mm 6,1 km/h (2 Bft) O-NO 65 ° 0 min 0,000 mm 0,9 UV-I 118 W/m² 11,2 °C 12,6 °C 11,3 km/h (2 Bft)
04.05.2018 14:35 12,6 °C 91 % 1014,5 hPa 0,0 mm 7,8 km/h (2 Bft) O 84 ° 0 min 0,000 mm 1,0 UV-I 128 W/m² 11,2 °C 12,6 °C 14,5 km/h (3 Bft)
04.05.2018 14:36 12,6 °C 91 % 1014,5 hPa 0,0 mm 11,1 km/h (2 Bft) O 83 ° 0 min 0,000 mm 1,0 UV-I 128 W/m² 11,2 °C 12,6 °C 14,5 km/h (3 Bft)
04.05.2018 14:37 12,5 °C 91 % 1014,5 hPa 0,0 mm 7,8 km/h (2 Bft) NO 51 ° 0 min 0,000 mm 0,9 UV-I 121 W/m² 11,1 °C 12,5 °C 14,5 km/h (3 Bft)
04.05.2018 14:38 12,5 °C 91 % 1014,5 hPa 0,0 mm 5,9 km/h (2 Bft) O 83 ° 0 min 0,000 mm 0,9 UV-I 120 W/m² 11,1 °C 12,5 °C 9,7 km/h (2 Bft)
04.05.2018 14:39 12,5 °C 91 % 1014,5 hPa 0,0 mm 6,0 km/h (2 Bft) O-NO 71 ° 0 min 0,000 mm 0,9 UV-I 120 W/m² 11,1 °C 12,5 °C 9,7 km/h (2 Bft)
04.05.2018 14:40 12,5 °C 91 % 1014,5 hPa 0,0 mm 5,4 km/h (1 Bft) O-NO 65 ° 0 min 0,000 mm 0,7 UV-I 104 W/m² 11,1 °C 12,5 °C 9,7 km/h (2 Bft)
04.05.2018 14:41 12,6 °C 91 % 1014,5 hPa 0,0 mm 4,7 km/h (1 Bft) O-NO 69 ° 0 min 0,000 mm 0,7 UV-I 91 W/m² 11,2 °C 12,6 °C 6,4 km/h (2 Bft)
04.05.2018 14:42 12,6 °C 91 % 1014,5 hPa 0,0 mm 8,6 km/h (2 Bft) SO 129 ° 0 min 0,000 mm 0,8 UV-I 97 W/m² 11,2 °C 12,6 °C 12,9 km/h (3 Bft)
04.05.2018 14:43 12,5 °C 91 % 1014,5 hPa 0,0 mm 4,0 km/h (1 Bft) N-NO 30 ° 0 min 0,000 mm 0,8 UV-I 104 W/m² 11,1 °C 12,5 °C 11,3 km/h (2 Bft)
04.05.2018 14:44 12,5 °C 91 % 1014,5 hPa 0,0 mm 8,2 km/h (2 Bft) O 90 ° 0 min 0,000 mm 0,7 UV-I 86 W/m² 11,1 °C 12,5 °C 11,3 km/h (2 Bft)
04.05.2018 14:45 12,5 °C 91 % 1014,5 hPa 0,0 mm 9,5 km/h (2 Bft) O-NO 63 ° 0 min 0,000 mm 0,7 UV-I 83 W/m² 11,1 °C 12,5 °C 14,5 km/h (3 Bft)
04.05.2018 14:46 12,4 °C 91 % 1014,5 hPa 0,0 mm 6,1 km/h (2 Bft) O-NO 74 ° 0 min 0,000 mm 0,7 UV-I 83 W/m² 11,0 °C 12,4 °C 8,0 km/h (2 Bft)
04.05.2018 14:47 12,4 °C 91 % 1014,5 hPa 0,0 mm 2,8 km/h (1 Bft) O 80 ° 0 min 0,000 mm 0,8 UV-I 97 W/m² 11,0 °C 12,4 °C 4,8 km/h (1 Bft)
04.05.2018 14:48 12,4 °C 91 % 1014,5 hPa 0,0 mm 5,0 km/h (1 Bft) O 84 ° 0 min 0,000 mm 0,8 UV-I 104 W/m² 11,0 °C 12,4 °C 11,3 km/h (2 Bft)
04.05.2018 14:49 12,4 °C 91 % 1014,5 hPa 0,0 mm 6,3 km/h (2 Bft) NO 55 ° 0 min 0,000 mm 0,9 UV-I 116 W/m² 11,0 °C 12,4 °C 11,3 km/h (2 Bft)
04.05.2018 14:50 12,4 °C 91 % 1014,5 hPa 0,0 mm 5,7 km/h (1 Bft) NO 47 ° 0 min 0,000 mm 0,9 UV-I 123 W/m² 11,0 °C 12,4 °C 9,7 km/h (2 Bft)
04.05.2018 14:51 12,4 °C 92 % 1014,6 hPa 0,0 mm 7,6 km/h (2 Bft) O-NO 63 ° 0 min 0,000 mm 1,1 UV-I 137 W/m² 11,1 °C 12,4 °C 11,3 km/h (2 Bft)
04.05.2018 14:52 12,4 °C 92 % 1014,5 hPa 0,0 mm 6,5 km/h (2 Bft) O 80 ° 0 min 0,000 mm 1,2 UV-I 149 W/m² 11,1 °C 12,4 °C 11,3 km/h (2 Bft)
04.05.2018 14:53 12,4 °C 91 % 1014,6 hPa 0,0 mm 6,0 km/h (2 Bft) O-NO 58 ° 0 min 0,000 mm 1,3 UV-I 163 W/m² 11,0 °C 12,4 °C 11,3 km/h (2 Bft)
04.05.2018 14:54 12,4 °C 92 % 1014,6 hPa 0,0 mm 5,2 km/h (1 Bft) NO 53 ° 0 min 0,000 mm 1,2 UV-I 155 W/m² 11,1 °C 12,4 °C 8,0 km/h (2 Bft)
04.05.2018 14:55 12,4 °C 91 % 1014,6 hPa 0,0 mm 6,8 km/h (2 Bft) O-NO 67 ° 0 min 0,000 mm 1,1 UV-I 125 W/m² 11,0 °C 12,4 °C 8,0 km/h (2 Bft)
04.05.2018 14:56 12,4 °C 91 % 1014,6 hPa 0,0 mm 8,9 km/h (2 Bft) N-NO 31 ° 0 min 0,000 mm 0,8 UV-I 113 W/m² 11,0 °C 12,4 °C 17,7 km/h (3 Bft)
04.05.2018 14:57 12,4 °C 92 % 1014,6 hPa 0,0 mm 5,7 km/h (1 Bft) O-SO 108 ° 0 min 0,000 mm 0,8 UV-I 102 W/m² 11,1 °C 12,4 °C 9,7 km/h (2 Bft)
04.05.2018 14:58 12,4 °C 92 % 1014,6 hPa 0,0 mm 8,2 km/h (2 Bft) O-NO 69 ° 0 min 0,000 mm 0,8 UV-I 102 W/m² 11,1 °C 12,4 °C 14,5 km/h (3 Bft)
04.05.2018 14:59 12,4 °C 91 % 1014,6 hPa 0,0 mm 5,3 km/h (1 Bft) O-NO 66 ° 0 min 0,000 mm 0,8 UV-I 97 W/m² 11,0 °C 12,4 °C 12,9 km/h (3 Bft)
04.05.2018 15:00 12,4 °C 92 % 1014,6 hPa 0,0 mm 6,4 km/h (2 Bft) O-NO 66 ° 0 min 0,000 mm 0,7 UV-I 91 W/m² 11,1 °C 12,4 °C 8,0 km/h (2 Bft)
04.05.2018 15:01 12,4 °C 91 % 1014,6 hPa 0,0 mm 5,2 km/h (1 Bft) O-NO 75 ° 0 min 0,077 mm 0,7 UV-I 88 W/m² 11,0 °C 12,4 °C 9,7 km/h (2 Bft)
04.05.2018 15:02 12,4 °C 92 % 1014,6 hPa 0,0 mm 5,6 km/h (1 Bft) O 94 ° 0 min 0,000 mm 0,7 UV-I 90 W/m² 11,1 °C 12,4 °C 11,3 km/h (2 Bft)
04.05.2018 15:03 12,4 °C 92 % 1014,6 hPa 0,0 mm 3,6 km/h (1 Bft) O 84 ° 0 min 0,000 mm 0,7 UV-I 90 W/m² 11,1 °C 12,4 °C 6,4 km/h (2 Bft)
04.05.2018 15:04 12,4 °C 91 % 1014,6 hPa 0,0 mm 6,2 km/h (2 Bft) NO 48 ° 0 min 0,000 mm 0,7 UV-I 84 W/m² 11,0 °C 12,4 °C 11,3 km/h (2 Bft)
04.05.2018 15:05 12,4 °C 91 % 1014,6 hPa 0,0 mm 8,2 km/h (2 Bft) O 88 ° 0 min 0,000 mm 0,6 UV-I 76 W/m² 11,0 °C 12,4 °C 12,9 km/h (3 Bft)
04.05.2018 15:06 12,4 °C 91 % 1014,6 hPa 0,0 mm 7,6 km/h (2 Bft) O-NO 64 ° 0 min 0,000 mm 0,6 UV-I 77 W/m² 11,0 °C 12,4 °C 16,1 km/h (3 Bft)
04.05.2018 15:07 12,4 °C 91 % 1014,6 hPa 0,0 mm 9,1 km/h (2 Bft) O-NO 69 ° 0 min 0,000 mm 0,8 UV-I 100 W/m² 11,0 °C 12,4 °C 12,9 km/h (3 Bft)
04.05.2018 15:08 12,4 °C 91 % 1014,6 hPa 0,0 mm 5,9 km/h (2 Bft) O-NO 69 ° 0 min 0,000 mm 0,8 UV-I 95 W/m² 11,0 °C 12,4 °C 8,0 km/h (2 Bft)
04.05.2018 15:09 12,4 °C 91 % 1014,6 hPa 0,0 mm 2,7 km/h (1 Bft) O-NO 65 ° 0 min 0,000 mm 0,7 UV-I 90 W/m² 11,0 °C 12,4 °C 4,8 km/h (1 Bft)
04.05.2018 15:10 12,4 °C 92 % 1014,6 hPa 0,0 mm 4,5 km/h (1 Bft) NO 46 ° 0 min 0,000 mm 0,7 UV-I 86 W/m² 11,1 °C 12,4 °C 9,7 km/h (2 Bft)
04.05.2018 15:11 12,4 °C 92 % 1014,5 hPa 0,0 mm 7,7 km/h (2 Bft) O-NO 78 ° 0 min 0,000 mm 0,6 UV-I 77 W/m² 11,1 °C 12,4 °C 14,5 km/h (3 Bft)
04.05.2018 15:12 12,4 °C 92 % 1014,6 hPa 0,0 mm 3,8 km/h (1 Bft) O-NO 76 ° 0 min 0,000 mm 0,6 UV-I 72 W/m² 11,1 °C 12,4 °C 6,4 km/h (2 Bft)
04.05.2018 15:13 12,4 °C 92 % 1014,6 hPa 0,0 mm 3,1 km/h (1 Bft) O-NO 75 ° 0 min 0,000 mm 0,6 UV-I 72 W/m² 11,1 °C 12,4 °C 4,8 km/h (1 Bft)
04.05.2018 15:14 12,4 °C 92 % 1014,6 hPa 0,0 mm 0,9 km/h (0 Bft) O-NO 76 ° 0 min 0,000 mm 0,5 UV-I 67 W/m² 11,1 °C 12,4 °C 3,2 km/h (1 Bft)
04.05.2018 15:15 12,3 °C 92 % 1014,6 hPa 0,0 mm 2,1 km/h (1 Bft) O-NO 76 ° 0 min 0,000 mm 0,5 UV-I 63 W/m² 11,0 °C 12,3 °C 3,2 km/h (1 Bft)
04.05.2018 15:16 12,4 °C 92 % 1014,6 hPa 0,0 mm 4,5 km/h (1 Bft) O-SO 109 ° 0 min 0,000 mm 0,5 UV-I 62 W/m² 11,1 °C 12,4 °C 8,0 km/h (2 Bft)
04.05.2018 15:17 12,4 °C 92 % 1014,6 hPa 0,0 mm 4,8 km/h (1 Bft) NO 53 ° 0 min 0,000 mm 0,5 UV-I 60 W/m² 11,1 °C 12,4 °C 8,0 km/h (2 Bft)
04.05.2018 15:18 12,3 °C 92 % 1014,5 hPa 0,0 mm 7,6 km/h (2 Bft) O-NO 65 ° 0 min 0,000 mm 0,5 UV-I 63 W/m² 11,0 °C 12,3 °C 12,9 km/h (3 Bft)
04.05.2018 15:19 12,3 °C 92 % 1014,6 hPa 0,0 mm 4,0 km/h (1 Bft) O-SO 103 ° 0 min 0,000 mm 0,5 UV-I 62 W/m² 11,0 °C 12,3 °C 6,4 km/h (2 Bft)
04.05.2018 15:20 12,4 °C 92 % 1014,6 hPa 0,0 mm 5,6 km/h (1 Bft) O-NO 70 ° 0 min 0,000 mm 0,5 UV-I 60 W/m² 11,1 °C 12,4 °C 8,0 km/h (2 Bft)
04.05.2018 15:21 12,4 °C 92 % 1014,6 hPa 0,0 mm 2,5 km/h (1 Bft) O 80 ° 0 min 0,000 mm 0,0 UV-I 56 W/m² 11,1 °C 12,4 °C 4,8 km/h (1 Bft)
04.05.2018 15:22 12,4 °C 92 % 1014,5 hPa 0,0 mm 2,3 km/h (1 Bft) O-NO 72 ° 0 min 0,000 mm 0,0 UV-I 51 W/m² 11,1 °C 12,4 °C 4,8 km/h (1 Bft)
04.05.2018 15:23 12,3 °C 92 % 1014,5 hPa 0,0 mm 5,2 km/h (1 Bft) NO 55 ° 0 min 0,000 mm 0,0 UV-I 53 W/m² 11,0 °C 12,3 °C 11,3 km/h (2 Bft)
04.05.2018 15:24 12,4 °C 92 % 1014,6 hPa 0,0 mm 3,2 km/h (1 Bft) NO 55 ° 0 min 0,000 mm 0,5 UV-I 63 W/m² 11,1 °C 12,4 °C 4,8 km/h (1 Bft)
04.05.2018 15:25 12,4 °C 92 % 1014,5 hPa 0,0 mm 3,9 km/h (1 Bft) SO 131 ° 0 min 0,000 mm 0,5 UV-I 63 W/m² 11,1 °C 12,4 °C 6,4 km/h (2 Bft)
04.05.2018 15:26 12,3 °C 92 % 1014,5 hPa 0,0 mm 5,4 km/h (1 Bft) O-NO 60 ° 0 min 0,000 mm 0,6 UV-I 69 W/m² 11,0 °C 12,3 °C 9,7 km/h (2 Bft)
04.05.2018 15:27 12,4 °C 92 % 1014,5 hPa 0,0 mm 3,1 km/h (1 Bft) NO 52 ° 0 min 0,000 mm 0,7 UV-I 83 W/m² 11,1 °C 12,4 °C 8,0 km/h (2 Bft)
04.05.2018 15:28 12,4 °C 92 % 1014,5 hPa 0,0 mm 4,1 km/h (1 Bft) O-NO 65 ° 0 min 0,000 mm 1,0 UV-I 113 W/m² 11,1 °C 12,4 °C 6,4 km/h (2 Bft)
04.05.2018 15:29 12,4 °C 92 % 1014,5 hPa 0,0 mm 1,1 km/h (1 Bft) NO 53 ° 0 min 0,000 mm 1,3 UV-I 149 W/m² 11,1 °C 12,4 °C 3,2 km/h (1 Bft)
04.05.2018 15:30 12,4 °C 92 % 1014,5 hPa 0,0 mm 1,9 km/h (1 Bft) O-NO 76 ° 0 min 0,000 mm 1,4 UV-I 156 W/m² 11,1 °C 12,4 °C 4,8 km/h (1 Bft)
04.05.2018 15:31 12,4 °C 92 % 1014,5 hPa 0,0 mm 2,9 km/h (1 Bft) O 84 ° 0 min 0,000 mm 0,9 UV-I 125 W/m² 11,1 °C 12,4 °C 4,8 km/h (1 Bft)
04.05.2018 15:32 12,4 °C 92 % 1014,5 hPa 0,0 mm 1,9 km/h (1 Bft) O 84 ° 0 min 0,000 mm 0,8 UV-I 105 W/m² 11,1 °C 12,4 °C 3,2 km/h (1 Bft)
04.05.2018 15:33 12,5 °C 92 % 1014,5 hPa 0,0 mm 1,9 km/h (1 Bft) O 88 ° 0 min 0,000 mm 0,6 UV-I 88 W/m² 11,2 °C 12,5 °C 4,8 km/h (1 Bft)
04.05.2018 15:34 12,5 °C 92 % 1014,5 hPa 0,0 mm 3,0 km/h (1 Bft) O-SO 111 ° 0 min 0,000 mm 0,6 UV-I 79 W/m² 11,2 °C 12,5 °C 4,8 km/h (1 Bft)
04.05.2018 15:35 12,5 °C 92 % 1014,5 hPa 0,0 mm 0,7 km/h (0 Bft) O-SO 111 ° 0 min 0,000 mm 0,6 UV-I 79 W/m² 11,2 °C 12,5 °C 1,6 km/h (1 Bft)
04.05.2018 15:36 12,5 °C 92 % 1014,5 hPa 0,0 mm 0,3 km/h (0 Bft) O-SO 111 ° 0 min 0,000 mm 0,7 UV-I 95 W/m² 11,2 °C 12,5 °C 3,2 km/h (1 Bft)
04.05.2018 15:37 12,5 °C 92 % 1014,4 hPa 0,0 mm 1,8 km/h (1 Bft) O-SO 104 ° 0 min 0,000 mm 0,7 UV-I 91 W/m² 11,2 °C 12,5 °C 3,2 km/h (1 Bft)
04.05.2018 15:38 12,5 °C 92 % 1014,5 hPa 0,0 mm 3,6 km/h (1 Bft) O 85 ° 0 min 0,000 mm 0,6 UV-I 86 W/m² 11,2 °C 12,5 °C 6,4 km/h (2 Bft)
04.05.2018 15:39 12,4 °C 92 % 1014,5 hPa 0,0 mm 3,5 km/h (1 Bft) O-NO 60 ° 0 min 0,000 mm 0,6 UV-I 84 W/m² 11,1 °C 12,4 °C 6,4 km/h (2 Bft)
04.05.2018 15:40 12,5 °C 92 % 1014,5 hPa 0,0 mm 2,3 km/h (1 Bft) O 87 ° 0 min 0,000 mm 0,6 UV-I 83 W/m² 11,2 °C 12,5 °C 4,8 km/h (1 Bft)
04.05.2018 15:41 12,5 °C 92 % 1014,5 hPa 0,0 mm 2,8 km/h (1 Bft) O 86 ° 0 min 0,000 mm 0,6 UV-I 83 W/m² 11,2 °C 12,5 °C 3,2 km/h (1 Bft)
04.05.2018 15:42 12,6 °C 92 % 1014,5 hPa 0,0 mm 1,5 km/h (1 Bft) O 87 ° 0 min 0,000 mm 0,6 UV-I 81 W/m² 11,3 °C 12,6 °C 3,2 km/h (1 Bft)
04.05.2018 15:43 12,5 °C 92 % 1014,4 hPa 0,0 mm 0,0 km/h (0 Bft) O 87 ° 0 min 0,000 mm 0,6 UV-I 81 W/m² 11,2 °C 12,5 °C 0,0 km/h (0 Bft)
04.05.2018 15:44 12,5 °C 92 % 1014,5 hPa 0,0 mm 1,5 km/h (1 Bft) O 87 ° 0 min 0,000 mm 0,6 UV-I 83 W/m² 11,2 °C 12,5 °C 4,8 km/h (1 Bft)
04.05.2018 15:45 12,5 °C 92 % 1014,4 hPa 0,0 mm 1,1 km/h (1 Bft) O 87 ° 0 min 0,000 mm 0,6 UV-I 83 W/m² 11,2 °C 12,5 °C 1,6 km/h (1 Bft)
04.05.2018 15:46 12,5 °C 91 % 1014,5 hPa 0,0 mm 1,2 km/h (1 Bft) O 87 ° 0 min 0,000 mm 0,6 UV-I 77 W/m² 11,1 °C 12,5 °C 3,2 km/h (1 Bft)
04.05.2018 15:47 12,5 °C 92 % 1014,4 hPa 0,0 mm 1,5 km/h (1 Bft) O 87 ° 0 min 0,000 mm 0,5 UV-I 72 W/m² 11,2 °C 12,5 °C 3,2 km/h (1 Bft)
04.05.2018 15:48 12,6 °C 92 % 1014,4 hPa 0,0 mm 3,7 km/h (1 Bft) O 87 ° 0 min 0,000 mm 0,5 UV-I 67 W/m² 11,3 °C 12,6 °C 6,4 km/h (2 Bft)
04.05.2018 15:49 12,6 °C 92 % 1014,4 hPa 0,0 mm 3,8 km/h (1 Bft) O-NO 59 ° 0 min 0,000 mm 0,5 UV-I 63 W/m² 11,3 °C 12,6 °C 4,8 km/h (1 Bft)
04.05.2018 15:50 12,6 °C 91 % 1014,4 hPa 0,0 mm 3,6 km/h (1 Bft) NO 41 ° 0 min 0,000 mm 0,5 UV-I 62 W/m² 11,2 °C 12,6 °C 6,4 km/h (2 Bft)
04.05.2018 15:51 12,5 °C 91 % 1014,4 hPa 0,0 mm 2,4 km/h (1 Bft) NO 41 ° 0 min 0,000 mm 0,0 UV-I 60 W/m² 11,1 °C 12,5 °C 4,8 km/h (1 Bft)
04.05.2018 15:52 12,5 °C 91 % 1014,4 hPa 0,0 mm 1,8 km/h (1 Bft) O-NO 63 ° 0 min 0,000 mm 0,0 UV-I 58 W/m² 11,1 °C 12,5 °C 3,2 km/h (1 Bft)
04.05.2018 15:53 12,6 °C 91 % 1014,4 hPa 0,0 mm 1,2 km/h (1 Bft) O-SO 110 ° 0 min 0,000 mm 0,0 UV-I 58 W/m² 11,2 °C 12,6 °C 4,8 km/h (1 Bft)
04.05.2018 15:54 12,6 °C 91 % 1014,5 hPa 0,0 mm 2,3 km/h (1 Bft) O-NO 65 ° 0 min 0,000 mm 0,0 UV-I 63 W/m² 11,2 °C 12,6 °C 4,8 km/h (1 Bft)
04.05.2018 15:55 12,5 °C 91 % 1014,4 hPa 0,0 mm 2,6 km/h (1 Bft) O-NO 63 ° 0 min 0,000 mm 0,5 UV-I 69 W/m² 11,1 °C 12,5 °C 6,4 km/h (2 Bft)
04.05.2018 15:56 12,5 °C 91 % 1014,5 hPa 0,0 mm 4,1 km/h (1 Bft) O-NO 64 ° 0 min 0,000 mm 0,6 UV-I 83 W/m² 11,1 °C 12,5 °C 4,8 km/h (1 Bft)
04.05.2018 15:57 12,6 °C 92 % 1014,4 hPa 0,0 mm 3,3 km/h (1 Bft) O-NO 64 ° 0 min 0,000 mm 0,8 UV-I 105 W/m² 11,3 °C 12,6 °C 4,8 km/h (1 Bft)
04.05.2018 15:58 12,6 °C 91 % 1014,4 hPa 0,0 mm 2,9 km/h (1 Bft) O-NO 64 ° 0 min 0,000 mm 0,9 UV-I 118 W/m² 11,2 °C 12,6 °C 4,8 km/h (1 Bft)
04.05.2018 15:59 12,6 °C 92 % 1014,5 hPa 0,0 mm 3,6 km/h (1 Bft) O 91 ° 0 min 0,000 mm 0,9 UV-I 125 W/m² 11,3 °C 12,6 °C 6,4 km/h (2 Bft)
04.05.2018 16:00 12,6 °C 92 % 1014,4 hPa 0,0 mm 3,7 km/h (1 Bft) O-NO 57 ° 0 min 0,000 mm 0,9 UV-I 114 W/m² 11,3 °C 12,6 °C 4,8 km/h (1 Bft)
04.05.2018 16:01 12,6 °C 91 % 1014,5 hPa 0,0 mm 3,2 km/h (1 Bft) NO 50 ° 0 min 0,050 mm 0,7 UV-I 102 W/m² 11,2 °C 12,6 °C 4,8 km/h (1 Bft)
04.05.2018 16:02 12,6 °C 92 % 1014,5 hPa 0,0 mm 5,4 km/h (1 Bft) O-NO 65 ° 0 min 0,000 mm 0,7 UV-I 98 W/m² 11,3 °C 12,6 °C 8,0 km/h (2 Bft)
04.05.2018 16:03 12,7 °C 92 % 1014,5 hPa 0,0 mm 3,5 km/h (1 Bft) O-NO 61 ° 0 min 0,000 mm 0,7 UV-I 100 W/m² 11,4 °C 12,7 °C 4,8 km/h (1 Bft)
04.05.2018 16:04 12,7 °C 92 % 1014,4 hPa 0,0 mm 3,0 km/h (1 Bft) O-NO 61 ° 0 min 0,000 mm 0,8 UV-I 105 W/m² 11,4 °C 12,7 °C 4,8 km/h (1 Bft)
04.05.2018 16:05 12,7 °C 91 % 1014,5 hPa 0,0 mm 5,4 km/h (1 Bft) O-NO 65 ° 0 min 0,000 mm 0,8 UV-I 127 W/m² 11,3 °C 12,7 °C 6,4 km/h (2 Bft)
04.05.2018 16:06 12,8 °C 91 % 1014,4 hPa 0,0 mm 2,8 km/h (1 Bft) O-NO 65 ° 0 min 0,000 mm 0,9 UV-I 135 W/m² 11,4 °C 12,8 °C 4,8 km/h (1 Bft)
04.05.2018 16:07 12,8 °C 91 % 1014,4 hPa 0,0 mm 3,6 km/h (1 Bft) O-NO 65 ° 0 min 0,000 mm 1,1 UV-I 142 W/m² 11,4 °C 12,8 °C 4,8 km/h (1 Bft)
04.05.2018 16:08 12,8 °C 91 % 1014,4 hPa 0,0 mm 4,2 km/h (1 Bft) O-NO 73 ° 0 min 0,000 mm 1,1 UV-I 153 W/m² 11,4 °C 12,8 °C 6,4 km/h (2 Bft)
04.05.2018 16:09 12,8 °C 91 % 1014,4 hPa 0,0 mm 2,0 km/h (1 Bft) O-NO 73 ° 0 min 0,000 mm 1,1 UV-I 155 W/m² 11,4 °C 12,8 °C 3,2 km/h (1 Bft)
04.05.2018 16:10 12,8 °C 91 % 1014,4 hPa 0,0 mm 4,4 km/h (1 Bft) NO 44 ° 0 min 0,000 mm 1,2 UV-I 155 W/m² 11,4 °C 12,8 °C 6,4 km/h (2 Bft)
04.05.2018 16:11 12,9 °C 91 % 1014,4 hPa 0,0 mm 3,1 km/h (1 Bft) O-NO 69 ° 0 min 0,000 mm 1,3 UV-I 190 W/m² 11,5 °C 12,9 °C 4,8 km/h (1 Bft)
04.05.2018 16:12 12,9 °C 91 % 1014,4 hPa 0,0 mm 4,6 km/h (1 Bft) NO 48 ° 0 min 0,000 mm 1,5 UV-I 197 W/m² 11,5 °C 12,9 °C 6,4 km/h (2 Bft)
04.05.2018 16:13 12,9 °C 91 % 1014,4 hPa 0,0 mm 3,8 km/h (1 Bft) NO 56 ° 0 min 0,000 mm 1,5 UV-I 200 W/m² 11,5 °C 12,9 °C 6,4 km/h (2 Bft)
04.05.2018 16:14 12,9 °C 91 % 1014,4 hPa 0,0 mm 1,9 km/h (1 Bft) NO 56 ° 0 min 0,000 mm 1,5 UV-I 200 W/m² 11,5 °C 12,9 °C 4,8 km/h (1 Bft)
04.05.2018 16:15 13,0 °C 91 % 1014,4 hPa 0,0 mm 2,0 km/h (1 Bft) O-NO 66 ° 0 min 0,000 mm 1,4 UV-I 190 W/m² 11,6 °C 13,0 °C 4,8 km/h (1 Bft)
04.05.2018 16:16 13,0 °C 91 % 1014,3 hPa 0,0 mm 3,4 km/h (1 Bft) O-NO 70 ° 0 min 0,000 mm 1,2 UV-I 165 W/m² 11,6 °C 13,0 °C 4,8 km/h (1 Bft)
04.05.2018 16:17 13,1 °C 91 % 1014,3 hPa 0,0 mm 2,4 km/h (1 Bft) O-NO 67 ° 0 min 0,000 mm 1,1 UV-I 135 W/m² 11,7 °C 13,1 °C 4,8 km/h (1 Bft)
04.05.2018 16:18 13,1 °C 91 % 1014,4 hPa 0,0 mm 4,2 km/h (1 Bft) O-NO 60 ° 0 min 0,000 mm 1,0 UV-I 123 W/m² 11,7 °C 13,1 °C 4,8 km/h (1 Bft)
04.05.2018 16:19 13,1 °C 91 % 1014,3 hPa 0,0 mm 3,4 km/h (1 Bft) O-NO 73 ° 0 min 0,000 mm 0,8 UV-I 109 W/m² 11,7 °C 13,1 °C 6,4 km/h (2 Bft)
04.05.2018 16:20 13,1 °C 90 % 1014,3 hPa 0,0 mm 1,0 km/h (0 Bft) O-NO 73 ° 0 min 0,000 mm 0,8 UV-I 97 W/m² 11,5 °C 13,1 °C 1,6 km/h (1 Bft)
04.05.2018 16:21 13,1 °C 90 % 1014,3 hPa 0,0 mm 0,2 km/h (0 Bft) O-NO 73 ° 0 min 0,000 mm 0,7 UV-I 90 W/m² 11,5 °C 13,1 °C 1,6 km/h (1 Bft)
04.05.2018 16:22 13,1 °C 91 % 1014,3 hPa 0,0 mm 4,1 km/h (1 Bft) O-NO 76 ° 0 min 0,000 mm 0,7 UV-I 83 W/m² 11,7 °C 13,1 °C 6,4 km/h (2 Bft)
04.05.2018 16:23 13,1 °C 90 % 1014,3 hPa 0,0 mm 2,3 km/h (1 Bft) O-NO 76 ° 0 min 0,000 mm 0,6 UV-I 70 W/m² 11,5 °C 13,1 °C 3,2 km/h (1 Bft)
04.05.2018 16:24 13,1 °C 91 % 1014,3 hPa 0,0 mm 0,9 km/h (0 Bft) O-NO 71 ° 0 min 0,000 mm 0,5 UV-I 67 W/m² 11,7 °C 13,1 °C 4,8 km/h (1 Bft)
04.05.2018 16:25 13,0 °C 90 % 1014,4 hPa 0,0 mm 2,4 km/h (1 Bft) O-NO 71 ° 0 min 0,000 mm 0,5 UV-I 60 W/m² 11,4 °C 13,0 °C 3,2 km/h (1 Bft)
04.05.2018 16:26 13,0 °C 90 % 1014,4 hPa 0,0 mm 0,5 km/h (0 Bft) O-NO 71 ° 0 min 0,000 mm 0,0 UV-I 54 W/m² 11,4 °C 13,0 °C 3,2 km/h (1 Bft)
04.05.2018 16:27 13,0 °C 91 % 1014,4 hPa 0,0 mm 2,5 km/h (1 Bft) O-NO 71 ° 0 min 0,000 mm 0,0 UV-I 51 W/m² 11,6 °C 13,0 °C 3,2 km/h (1 Bft)
04.05.2018 16:28 13,0 °C 91 % 1014,4 hPa 0,0 mm 2,1 km/h (1 Bft) O-NO 71 ° 0 min 0,000 mm 0,0 UV-I 49 W/m² 11,6 °C 13,0 °C 3,2 km/h (1 Bft)
04.05.2018 16:29 13,0 °C 91 % 1014,4 hPa 0,0 mm 0,7 km/h (0 Bft) O-NO 71 ° 0 min 0,000 mm 0,0 UV-I 46 W/m² 11,6 °C 13,0 °C 1,6 km/h (1 Bft)
04.05.2018 16:30 13,0 °C 91 % 1014,4 hPa 0,0 mm 0,7 km/h (0 Bft) O-NO 71 ° 0 min 0,000 mm 0,0 UV-I 44 W/m² 11,6 °C 13,0 °C 1,6 km/h (1 Bft)
04.05.2018 16:31 13,0 °C 91 % 1014,4 hPa 0,0 mm 2,7 km/h (1 Bft) O-NO 64 ° 0 min 0,000 mm 0,0 UV-I 44 W/m² 11,6 °C 13,0 °C 4,8 km/h (1 Bft)
04.05.2018 16:32 13,0 °C 91 % 1014,4 hPa 0,0 mm 2,4 km/h (1 Bft) O-NO 63 ° 0 min 0,000 mm 0,0 UV-I 44 W/m² 11,6 °C 13,0 °C 4,8 km/h (1 Bft)
04.05.2018 16:33 13,0 °C 91 % 1014,4 hPa 0,0 mm 2,0 km/h (1 Bft) O-NO 63 ° 0 min 0,000 mm 0,0 UV-I 42 W/m² 11,6 °C 13,0 °C 3,2 km/h (1 Bft)
04.05.2018 16:34 13,1 °C 91 % 1014,4 hPa 0,0 mm 0,8 km/h (0 Bft) O-NO 63 ° 0 min 0,000 mm 0,0 UV-I 40 W/m² 11,7 °C 13,1 °C 3,2 km/h (1 Bft)
04.05.2018 16:35 13,1 °C 91 % 1014,4 hPa 0,0 mm 2,2 km/h (1 Bft) O-NO 63 ° 0 min 0,000 mm 0,0 UV-I 37 W/m² 11,7 °C 13,1 °C 3,2 km/h (1 Bft)
04.05.2018 16:36 13,1 °C 91 % 1014,4 hPa 0,0 mm 0,9 km/h (0 Bft) O-NO 63 ° 0 min 0,000 mm 0,0 UV-I 35 W/m² 11,7 °C 13,1 °C 1,6 km/h (1 Bft)
04.05.2018 16:37 13,0 °C 91 % 1014,4 hPa 0,0 mm 1,7 km/h (1 Bft) O-NO 63 ° 0 min 0,000 mm 0,0 UV-I 35 W/m² 11,6 °C 13,0 °C 3,2 km/h (1 Bft)
04.05.2018 16:38 12,9 °C 91 % 1014,4 hPa 0,0 mm 2,7 km/h (1 Bft) O-NO 63 ° 0 min 0,000 mm 0,0 UV-I 33 W/m² 11,5 °C 12,9 °C 4,8 km/h (1 Bft)
04.05.2018 16:39 12,9 °C 91 % 1014,4 hPa 0,0 mm 4,0 km/h (1 Bft) O-NO 65 ° 0 min 0,000 mm 0,0 UV-I 32 W/m² 11,5 °C 12,9 °C 4,8 km/h (1 Bft)
04.05.2018 16:40 12,9 °C 91 % 1014,4 hPa 0,0 mm 3,4 km/h (1 Bft) O-NO 65 ° 0 min 0,000 mm 0,0 UV-I 32 W/m² 11,5 °C 12,9 °C 4,8 km/h (1 Bft)
04.05.2018 16:41 12,9 °C 91 % 1014,4 hPa 0,0 mm 2,2 km/h (1 Bft) O-NO 65 ° 0 min 0,000 mm 0,0 UV-I 32 W/m² 11,5 °C 12,9 °C 3,2 km/h (1 Bft)
04.05.2018 16:42 12,9 °C 91 % 1014,4 hPa 0,0 mm 1,9 km/h (1 Bft) O-NO 65 ° 0 min 0,000 mm 0,0 UV-I 35 W/m² 11,5 °C 12,9 °C 3,2 km/h (1 Bft)
04.05.2018 16:43 12,8 °C 91 % 1014,4 hPa 0,0 mm 0,0 km/h (0 Bft) O-NO 65 ° 0 min 0,000 mm 0,0 UV-I 37 W/m² 11,4 °C 12,8 °C 0,0 km/h (0 Bft)
04.05.2018 16:44 12,8 °C 91 % 1014,4 hPa 0,0 mm 0,0 km/h (0 Bft) O-NO 65 ° 0 min 0,000 mm 0,0 UV-I 37 W/m² 11,4 °C 12,8 °C 0,0 km/h (0 Bft)
04.05.2018 16:45 12,8 °C 92 % 1014,4 hPa 0,0 mm 0,0 km/h (0 Bft) O-NO 65 ° 0 min 0,000 mm 0,0 UV-I 39 W/m² 11,5 °C 12,8 °C 0,0 km/h (0 Bft)
04.05.2018 16:46 12,8 °C 92 % 1014,4 hPa 0,0 mm 0,0 km/h (0 Bft) O-NO 65 ° 0 min 0,000 mm 0,0 UV-I 37 W/m² 11,5 °C 12,8 °C 0,0 km/h (0 Bft)
04.05.2018 16:47 12,8 °C 91 % 1014,4 hPa 0,0 mm 0,1 km/h (0 Bft) O-NO 65 ° 0 min 0,000 mm 0,0 UV-I 37 W/m² 11,4 °C 12,8 °C 1,6 km/h (1 Bft)
04.05.2018 16:48 12,8 °C 92 % 1014,3 hPa 0,0 mm 0,8 km/h (0 Bft) O-NO 65 ° 0 min 0,000 mm 0,0 UV-I 33 W/m² 11,5 °C 12,8 °C 1,6 km/h (1 Bft)
04.05.2018 16:49 12,8 °C 92 % 1014,4 hPa 0,0 mm 1,7 km/h (1 Bft) O-NO 65 ° 0 min 0,000 mm 0,0 UV-I 30 W/m² 11,5 °C 12,8 °C 3,2 km/h (1 Bft)
04.05.2018 16:50 12,7 °C 92 % 1014,3 hPa 0,0 mm 0,1 km/h (0 Bft) O-NO 65 ° 0 min 0,000 mm 0,0 UV-I 30 W/m² 11,4 °C 12,7 °C 1,6 km/h (1 Bft)
04.05.2018 16:51 12,8 °C 92 % 1014,4 hPa 0,0 mm 0,2 km/h (0 Bft) O-NO 65 ° 0 min 0,000 mm 0,0 UV-I 33 W/m² 11,5 °C 12,8 °C 1,6 km/h (1 Bft)
04.05.2018 16:52 12,8 °C 92 % 1014,4 hPa 0,0 mm 0,1 km/h (0 Bft) O-NO 65 ° 0 min 0,000 mm 0,0 UV-I 42 W/m² 11,5 °C 12,8 °C 1,6 km/h (1 Bft)
04.05.2018 16:53 12,7 °C 92 % 1014,3 hPa 0,0 mm 1,3 km/h (1 Bft) O-NO 65 ° 0 min 0,000 mm 0,0 UV-I 46 W/m² 11,4 °C 12,7 °C 3,2 km/h (1 Bft)
04.05.2018 16:54 12,7 °C 92 % 1014,3 hPa 0,0 mm 0,2 km/h (0 Bft) O-NO 65 ° 0 min 0,000 mm 0,0 UV-I 49 W/m² 11,4 °C 12,7 °C 1,6 km/h (1 Bft)
04.05.2018 16:55 12,8 °C 92 % 1014,4 hPa 0,0 mm 1,7 km/h (1 Bft) O-NO 66 ° 0 min 0,000 mm 0,0 UV-I 46 W/m² 11,5 °C 12,8 °C 4,8 km/h (1 Bft)
04.05.2018 16:56 12,8 °C 92 % 1014,3 hPa 0,0 mm 2,4 km/h (1 Bft) O-NO 67 ° 0 min 0,000 mm 0,0 UV-I 47 W/m² 11,5 °C 12,8 °C 4,8 km/h (1 Bft)
04.05.2018 16:57 12,8 °C 92 % 1014,3 hPa 0,0 mm 4,0 km/h (1 Bft) O-NO 71 ° 0 min 0,000 mm 0,0 UV-I 47 W/m² 11,5 °C 12,8 °C 6,4 km/h (2 Bft)
04.05.2018 16:58 12,8 °C 91 % 1014,4 hPa 0,0 mm 0,5 km/h (0 Bft) O-NO 70 ° 0 min 0,000 mm 0,0 UV-I 46 W/m² 11,4 °C 12,8 °C 1,6 km/h (1 Bft)
04.05.2018 16:59 12,8 °C 91 % 1014,3 hPa 0,0 mm 5,5 km/h (1 Bft) O 80 ° 0 min 0,000 mm 0,0 UV-I 40 W/m² 11,4 °C 12,8 °C 8,0 km/h (2 Bft)
04.05.2018 17:00 12,8 °C 91 % 1014,4 hPa 0,0 mm 4,1 km/h (1 Bft) O-NO 63 ° 0 min 0,000 mm 0,0 UV-I 40 W/m² 11,4 °C 12,8 °C 6,4 km/h (2 Bft)
04.05.2018 17:01 12,9 °C 91 % 1014,4 hPa 0,0 mm 1,7 km/h (1 Bft) O-NO 63 ° 0 min 0,051 mm 0,0 UV-I 42 W/m² 11,5 °C 12,9 °C 4,8 km/h (1 Bft)
04.05.2018 17:02 12,9 °C 91 % 1014,4 hPa 0,0 mm 4,3 km/h (1 Bft) O 80 ° 0 min 0,000 mm 0,0 UV-I 39 W/m² 11,5 °C 12,9 °C 6,4 km/h (2 Bft)
04.05.2018 17:03 12,9 °C 91 % 1014,4 hPa 0,0 mm 3,0 km/h (1 Bft) O 80 ° 0 min 0,000 mm 0,0 UV-I 37 W/m² 11,5 °C 12,9 °C 4,8 km/h (1 Bft)
04.05.2018 17:04 12,9 °C 91 % 1014,4 hPa 0,0 mm 2,6 km/h (1 Bft) O-NO 64 ° 0 min 0,000 mm 0,0 UV-I 42 W/m² 11,5 °C 12,9 °C 4,8 km/h (1 Bft)
04.05.2018 17:05 12,9 °C 91 % 1014,4 hPa 0,0 mm 2,3 km/h (1 Bft) O-NO 64 ° 0 min 0,000 mm 0,0 UV-I 46 W/m² 11,5 °C 12,9 °C 3,2 km/h (1 Bft)
04.05.2018 17:06 12,9 °C 91 % 1014,4 hPa 0,0 mm 0,6 km/h (0 Bft) O-NO 63 ° 0 min 0,000 mm 0,0 UV-I 49 W/m² 11,5 °C 12,9 °C 3,2 km/h (1 Bft)
04.05.2018 17:07 12,9 °C 91 % 1014,4 hPa 0,0 mm 0,9 km/h (0 Bft) O-NO 63 ° 0 min 0,000 mm 0,0 UV-I 47 W/m² 11,5 °C 12,9 °C 3,2 km/h (1 Bft)
04.05.2018 17:08 12,9 °C 91 % 1014,4 hPa 0,0 mm 1,5 km/h (1 Bft) O-NO 63 ° 0 min 0,000 mm 0,0 UV-I 42 W/m² 11,5 °C 12,9 °C 3,2 km/h (1 Bft)
04.05.2018 17:09 12,9 °C 91 % 1014,4 hPa 0,0 mm 0,1 km/h (0 Bft) O-NO 63 ° 0 min 0,000 mm 0,0 UV-I 42 W/m² 11,5 °C 12,9 °C 1,6 km/h (1 Bft)
04.05.2018 17:10 12,9 °C 91 % 1014,4 hPa 0,0 mm 0,4 km/h (0 Bft) O-NO 63 ° 0 min 0,000 mm 0,0 UV-I 54 W/m² 11,5 °C 12,9 °C 1,6 km/h (1 Bft)
04.05.2018 17:11 12,9 °C 91 % 1014,4 hPa 0,0 mm 0,0 km/h (0 Bft) O-NO 63 ° 0 min 0,000 mm 0,0 UV-I 58 W/m² 11,5 °C 12,9 °C 0,0 km/h (0 Bft)
04.05.2018 17:12 12,9 °C 91 % 1014,4 hPa 0,0 mm 0,0 km/h (0 Bft) O-NO 63 ° 0 min 0,000 mm 0,0 UV-I 63 W/m² 11,5 °C 12,9 °C 0,0 km/h (0 Bft)
04.05.2018 17:13 12,9 °C 91 % 1014,4 hPa 0,0 mm 0,7 km/h (0 Bft) O-NO 63 ° 0 min 0,000 mm 0,5 UV-I 69 W/m² 11,5 °C 12,9 °C 1,6 km/h (1 Bft)
04.05.2018 17:14 12,9 °C 91 % 1014,4 hPa 0,0 mm 1,6 km/h (1 Bft) O-NO 63 ° 0 min 0,000 mm 0,0 UV-I 65 W/m² 11,5 °C 12,9 °C 3,2 km/h (1 Bft)
04.05.2018 17:15 12,9 °C 91 % 1014,4 hPa 0,0 mm 1,8 km/h (1 Bft) O-NO 63 ° 0 min 0,000 mm 0,5 UV-I 69 W/m² 11,5 °C 12,9 °C 3,2 km/h (1 Bft)
04.05.2018 17:16 13,0 °C 91 % 1014,4 hPa 0,0 mm 2,2 km/h (1 Bft) NO 55 ° 0 min 0,000 mm 0,5 UV-I 84 W/m² 11,6 °C 13,0 °C 6,4 km/h (2 Bft)
04.05.2018 17:17 13,0 °C 92 % 1014,4 hPa 0,0 mm 2,2 km/h (1 Bft) NO 53 ° 0 min 0,000 mm 0,6 UV-I 91 W/m² 11,7 °C 13,0 °C 4,8 km/h (1 Bft)
04.05.2018 17:18 13,0 °C 91 % 1014,4 hPa 0,0 mm 0,0 km/h (0 Bft) NO 53 ° 0 min 0,000 mm 0,7 UV-I 95 W/m² 11,6 °C 13,0 °C 0,0 km/h (0 Bft)
04.05.2018 17:19 13,1 °C 92 % 1014,4 hPa 0,0 mm 0,0 km/h (0 Bft) NO 53 ° 0 min 0,000 mm 0,7 UV-I 98 W/m² 11,8 °C 13,1 °C 0,0 km/h (0 Bft)
04.05.2018 17:20 13,1 °C 91 % 1014,4 hPa 0,0 mm 3,7 km/h (1 Bft) O-NO 57 ° 0 min 0,000 mm 0,7 UV-I 97 W/m² 11,7 °C 13,1 °C 6,4 km/h (2 Bft)
04.05.2018 17:21 13,1 °C 91 % 1014,4 hPa 0,0 mm 1,6 km/h (1 Bft) O-NO 57 ° 0 min 0,000 mm 0,7 UV-I 95 W/m² 11,7 °C 13,1 °C 4,8 km/h (1 Bft)
04.05.2018 17:22 13,1 °C 91 % 1014,4 hPa 0,0 mm 2,3 km/h (1 Bft) O-NO 57 ° 0 min 0,000 mm 0,7 UV-I 93 W/m² 11,7 °C 13,1 °C 4,8 km/h (1 Bft)
04.05.2018 17:23 13,2 °C 91 % 1014,4 hPa 0,0 mm 0,5 km/h (0 Bft) O-NO 57 ° 0 min 0,000 mm 0,7 UV-I 95 W/m² 11,8 °C 13,2 °C 1,6 km/h (1 Bft)
04.05.2018 17:24 13,2 °C 91 % 1014,5 hPa 0,0 mm 3,0 km/h (1 Bft) NO 42 ° 0 min 0,000 mm 0,7 UV-I 93 W/m² 11,8 °C 13,2 °C 8,0 km/h (2 Bft)
04.05.2018 17:25 13,2 °C 91 % 1014,5 hPa 0,0 mm 3,5 km/h (1 Bft) O 84 ° 0 min 0,000 mm 0,6 UV-I 91 W/m² 11,8 °C 13,2 °C 6,4 km/h (2 Bft)
04.05.2018 17:26 13,2 °C 91 % 1014,5 hPa 0,0 mm 0,9 km/h (0 Bft) O 90 ° 0 min 0,000 mm 0,6 UV-I 88 W/m² 11,8 °C 13,2 °C 4,8 km/h (1 Bft)
04.05.2018 17:27 13,2 °C 91 % 1014,5 hPa 0,0 mm 6,1 km/h (2 Bft) O 87 ° 0 min 0,000 mm 0,6 UV-I 86 W/m² 11,8 °C 13,2 °C 9,7 km/h (2 Bft)
04.05.2018 17:28 13,2 °C 91 % 1014,5 hPa 0,0 mm 2,7 km/h (1 Bft) O 87 ° 0 min 0,000 mm 0,6 UV-I 83 W/m² 11,8 °C 13,2 °C 4,8 km/h (1 Bft)
04.05.2018 17:29 13,2 °C 91 % 1014,6 hPa 0,0 mm 1,2 km/h (1 Bft) O 82 ° 0 min 0,000 mm 0,6 UV-I 79 W/m² 11,8 °C 13,2 °C 3,2 km/h (1 Bft)
04.05.2018 17:30 13,2 °C 90 % 1014,5 hPa 0,0 mm 1,4 km/h (1 Bft) O-NO 76 ° 0 min 0,000 mm 0,5 UV-I 77 W/m² 11,6 °C 13,2 °C 3,2 km/h (1 Bft)
04.05.2018 17:31 13,3 °C 90 % 1014,5 hPa 0,0 mm 3,3 km/h (1 Bft) O-NO 78 ° 0 min 0,000 mm 0,5 UV-I 74 W/m² 11,7 °C 13,3 °C 4,8 km/h (1 Bft)
04.05.2018 17:32 13,3 °C 90 % 1014,6 hPa 0,0 mm 1,8 km/h (1 Bft) O-NO 78 ° 0 min 0,000 mm 0,5 UV-I 69 W/m² 11,7 °C 13,3 °C 3,2 km/h (1 Bft)
04.05.2018 17:33 13,3 °C 90 % 1014,6 hPa 0,0 mm 3,5 km/h (1 Bft) O 82 ° 0 min 0,000 mm 0,5 UV-I 67 W/m² 11,7 °C 13,3 °C 4,8 km/h (1 Bft)
04.05.2018 17:34 13,3 °C 90 % 1014,6 hPa 0,0 mm 1,9 km/h (1 Bft) O-NO 76 ° 0 min 0,000 mm 0,5 UV-I 62 W/m² 11,7 °C 13,3 °C 4,8 km/h (1 Bft)
04.05.2018 17:35 13,3 °C 90 % 1014,6 hPa 0,0 mm 5,8 km/h (2 Bft) O 85 ° 0 min 0,000 mm 0,0 UV-I 62 W/m² 11,7 °C 13,3 °C 12,9 km/h (3 Bft)
04.05.2018 17:36 13,3 °C 90 % 1014,5 hPa 0,0 mm 3,9 km/h (1 Bft) O-NO 60 ° 0 min 0,000 mm 0,0 UV-I 62 W/m² 11,7 °C 13,3 °C 6,4 km/h (2 Bft)
04.05.2018 17:37 13,3 °C 90 % 1014,6 hPa 0,0 mm 4,3 km/h (1 Bft) O 86 ° 0 min 0,000 mm 0,0 UV-I 56 W/m² 11,7 °C 13,3 °C 8,0 km/h (2 Bft)
04.05.2018 17:38 13,3 °C 90 % 1014,6 hPa 0,0 mm 1,8 km/h (1 Bft) NO 46 ° 0 min 0,000 mm 0,0 UV-I 54 W/m² 11,7 °C 13,3 °C 4,8 km/h (1 Bft)
04.05.2018 17:39 13,3 °C 90 % 1014,6 hPa 0,0 mm 6,1 km/h (2 Bft) O-NO 76 ° 0 min 0,000 mm 0,0 UV-I 54 W/m² 11,7 °C 13,3 °C 12,9 km/h (3 Bft)
04.05.2018 17:40 13,3 °C 90 % 1014,5 hPa 0,0 mm 6,5 km/h (2 Bft) N-NO 30 ° 0 min 0,000 mm 0,0 UV-I 53 W/m² 11,7 °C 13,3 °C 11,3 km/h (2 Bft)
04.05.2018 17:41 13,4 °C 90 % 1014,5 hPa 0,0 mm 4,0 km/h (1 Bft) O-NO 57 ° 0 min 0,000 mm 0,0 UV-I 53 W/m² 11,8 °C 13,4 °C 9,7 km/h (2 Bft)
04.05.2018 17:42 13,3 °C 90 % 1014,6 hPa 0,0 mm 7,8 km/h (2 Bft) O 92 ° 0 min 0,000 mm 0,0 UV-I 51 W/m² 11,7 °C 13,3 °C 12,9 km/h (3 Bft)
04.05.2018 17:43 13,3 °C 89 % 1014,6 hPa 0,0 mm 5,7 km/h (1 Bft) NO 36 ° 0 min 0,000 mm 0,0 UV-I 49 W/m² 11,5 °C 13,3 °C 9,7 km/h (2 Bft)
04.05.2018 17:44 13,4 °C 89 % 1014,6 hPa 0,0 mm 4,1 km/h (1 Bft) NO 44 ° 0 min 0,000 mm 0,0 UV-I 47 W/m² 11,6 °C 13,4 °C 8,0 km/h (2 Bft)
04.05.2018 17:45 13,4 °C 89 % 1014,6 hPa 0,0 mm 6,9 km/h (2 Bft) O-NO 61 ° 0 min 0,000 mm 0,0 UV-I 44 W/m² 11,6 °C 13,4 °C 9,7 km/h (2 Bft)
04.05.2018 17:46 13,4 °C 89 % 1014,6 hPa 0,0 mm 2,5 km/h (1 Bft) O-NO 74 ° 0 min 0,000 mm 0,0 UV-I 44 W/m² 11,6 °C 13,4 °C 8,0 km/h (2 Bft)
04.05.2018 17:47 13,4 °C 89 % 1014,6 hPa 0,0 mm 3,6 km/h (1 Bft) O-NO 65 ° 0 min 0,000 mm 0,0 UV-I 44 W/m² 11,6 °C 13,4 °C 8,0 km/h (2 Bft)
04.05.2018 17:48 13,4 °C 89 % 1014,7 hPa 0,0 mm 8,0 km/h (2 Bft) NO 56 ° 0 min 0,000 mm 0,0 UV-I 47 W/m² 11,6 °C 13,4 °C 14,5 km/h (3 Bft)
04.05.2018 17:49 13,4 °C 89 % 1014,6 hPa 0,0 mm 7,2 km/h (2 Bft) NO 46 ° 0 min 0,000 mm 0,0 UV-I 51 W/m² 11,6 °C 13,4 °C 11,3 km/h (2 Bft)
04.05.2018 17:50 13,4 °C 89 % 1014,6 hPa 0,0 mm 5,0 km/h (1 Bft) NO 55 ° 0 min 0,000 mm 0,0 UV-I 54 W/m² 11,6 °C 13,4 °C 8,0 km/h (2 Bft)
04.05.2018 17:51 13,4 °C 89 % 1014,6 hPa 0,0 mm 5,1 km/h (1 Bft) O 85 ° 0 min 0,000 mm 0,0 UV-I 56 W/m² 11,6 °C 13,4 °C 8,0 km/h (2 Bft)
04.05.2018 17:52 13,4 °C 89 % 1014,6 hPa 0,0 mm 5,3 km/h (1 Bft) O-NO 74 ° 0 min 0,000 mm 0,0 UV-I 56 W/m² 11,6 °C 13,4 °C 8,0 km/h (2 Bft)
04.05.2018 17:53 13,4 °C 89 % 1014,7 hPa 0,0 mm 3,6 km/h (1 Bft) O-NO 74 ° 0 min 0,000 mm 0,0 UV-I 51 W/m² 11,6 °C 13,4 °C 6,4 km/h (2 Bft)
04.05.2018 17:54 13,4 °C 89 % 1014,6 hPa 0,0 mm 2,0 km/h (1 Bft) O 83 ° 0 min 0,000 mm 0,0 UV-I 49 W/m² 11,6 °C 13,4 °C 6,4 km/h (2 Bft)
04.05.2018 17:55 13,4 °C 89 % 1014,6 hPa 0,0 mm 2,7 km/h (1 Bft) O 86 ° 0 min 0,000 mm 0,0 UV-I 46 W/m² 11,6 °C 13,4 °C 8,0 km/h (2 Bft)
04.05.2018 17:56 13,4 °C 89 % 1014,7 hPa 0,0 mm 1,3 km/h (1 Bft) O 86 ° 0 min 0,000 mm 0,0 UV-I 44 W/m² 11,6 °C 13,4 °C 3,2 km/h (1 Bft)
04.05.2018 17:57 13,3 °C 89 % 1014,7 hPa 0,0 mm 1,0 km/h (0 Bft) O 86 ° 0 min 0,000 mm 0,0 UV-I 44 W/m² 11,5 °C 13,3 °C 3,2 km/h (1 Bft)
04.05.2018 17:58 13,3 °C 90 % 1014,6 hPa 0,0 mm 3,4 km/h (1 Bft) O 85 ° 0 min 0,000 mm 0,0 UV-I 42 W/m² 11,7 °C 13,3 °C 8,0 km/h (2 Bft)
04.05.2018 17:59 13,3 °C 90 % 1014,7 hPa 0,0 mm 4,6 km/h (1 Bft) O 88 ° 0 min 0,000 mm 0,0 UV-I 40 W/m² 11,7 °C 13,3 °C 6,4 km/h (2 Bft)
04.05.2018 18:00 13,3 °C 89 % 1014,6 hPa 0,0 mm 3,8 km/h (1 Bft) S 174 ° 0 min 0,000 mm 0,0 UV-I 40 W/m² 11,5 °C 13,3 °C 9,7 km/h (2 Bft)
04.05.2018 18:01 13,3 °C 89 % 1014,6 hPa 0,0 mm 2,4 km/h (1 Bft) O 92 ° 0 min 0,026 mm 0,0 UV-I 42 W/m² 11,5 °C 13,3 °C 3,2 km/h (1 Bft)
04.05.2018 18:02 13,3 °C 89 % 1014,7 hPa 0,0 mm 2,6 km/h (1 Bft) O-NO 74 ° 0 min 0,000 mm 0,0 UV-I 44 W/m² 11,5 °C 13,3 °C 4,8 km/h (1 Bft)
04.05.2018 18:03 13,3 °C 89 % 1014,6 hPa 0,0 mm 2,2 km/h (1 Bft) O-NO 78 ° 0 min 0,000 mm 0,0 UV-I 47 W/m² 11,5 °C 13,3 °C 3,2 km/h (1 Bft)
04.05.2018 18:04 13,3 °C 89 % 1014,6 hPa 0,0 mm 0,9 km/h (0 Bft) O-NO 78 ° 0 min 0,000 mm 0,0 UV-I 49 W/m² 11,5 °C 13,3 °C 3,2 km/h (1 Bft)
04.05.2018 18:05 13,3 °C 90 % 1014,6 hPa 0,0 mm 2,4 km/h (1 Bft) O-NO 78 ° 0 min 0,000 mm 0,0 UV-I 51 W/m² 11,7 °C 13,3 °C 4,8 km/h (1 Bft)
04.05.2018 18:06 13,3 °C 90 % 1014,6 hPa 0,0 mm 3,0 km/h (1 Bft) O-NO 78 ° 0 min 0,000 mm 0,0 UV-I 51 W/m² 11,7 °C 13,3 °C 6,4 km/h (2 Bft)
04.05.2018 18:07 13,3 °C 90 % 1014,6 hPa 0,0 mm 1,9 km/h (1 Bft) O-NO 78 ° 0 min 0,000 mm 0,0 UV-I 54 W/m² 11,7 °C 13,3 °C 3,2 km/h (1 Bft)
04.05.2018 18:08 13,3 °C 90 % 1014,6 hPa 0,0 mm 1,6 km/h (1 Bft) O-SO 109 ° 0 min 0,000 mm 0,0 UV-I 60 W/m² 11,7 °C 13,3 °C 4,8 km/h (1 Bft)
04.05.2018 18:09 13,3 °C 90 % 1014,6 hPa 0,0 mm 2,0 km/h (1 Bft) O 90 ° 0 min 0,000 mm 0,0 UV-I 62 W/m² 11,7 °C 13,3 °C 3,2 km/h (1 Bft)
04.05.2018 18:10 13,3 °C 90 % 1014,6 hPa 0,0 mm 4,4 km/h (1 Bft) O 86 ° 0 min 0,000 mm 0,0 UV-I 60 W/m² 11,7 °C 13,3 °C 6,4 km/h (2 Bft)
04.05.2018 18:11 13,3 °C 90 % 1014,6 hPa 0,0 mm 3,1 km/h (1 Bft) O 85 ° 0 min 0,000 mm 0,0 UV-I 62 W/m² 11,7 °C 13,3 °C 4,8 km/h (1 Bft)
04.05.2018 18:12 13,3 °C 90 % 1014,5 hPa 0,0 mm 4,4 km/h (1 Bft) NO 36 ° 0 min 0,000 mm 0,0 UV-I 60 W/m² 11,7 °C 13,3 °C 9,7 km/h (2 Bft)
04.05.2018 18:13 13,3 °C 90 % 1014,5 hPa 0,0 mm 4,5 km/h (1 Bft) SO 135 ° 0 min 0,000 mm 0,0 UV-I 56 W/m² 11,7 °C 13,3 °C 9,7 km/h (2 Bft)
04.05.2018 18:14 13,3 °C 90 % 1014,6 hPa 0,0 mm 3,0 km/h (1 Bft) O 95 ° 0 min 0,000 mm 0,0 UV-I 47 W/m² 11,7 °C 13,3 °C 6,4 km/h (2 Bft)
04.05.2018 18:15 13,3 °C 90 % 1014,5 hPa 0,0 mm 1,4 km/h (1 Bft) O 90 ° 0 min 0,000 mm 0,0 UV-I 49 W/m² 11,7 °C 13,3 °C 4,8 km/h (1 Bft)
04.05.2018 18:16 13,3 °C 90 % 1014,6 hPa 0,0 mm 0,4 km/h (0 Bft) O 90 ° 0 min 0,000 mm 0,0 UV-I 51 W/m² 11,7 °C 13,3 °C 1,6 km/h (1 Bft)
04.05.2018 18:17 13,3 °C 90 % 1014,6 hPa 0,0 mm 2,6 km/h (1 Bft) O 90 ° 0 min 0,000 mm 0,0 UV-I 53 W/m² 11,7 °C 13,3 °C 4,8 km/h (1 Bft)
04.05.2018 18:18 13,3 °C 90 % 1014,6 hPa 0,0 mm 0,5 km/h (0 Bft) O 90 ° 0 min 0,000 mm 0,0 UV-I 54 W/m² 11,7 °C 13,3 °C 1,6 km/h (1 Bft)
04.05.2018 18:19 13,3 °C 90 % 1014,6 hPa 0,0 mm 0,0 km/h (0 Bft) O 90 ° 0 min 0,000 mm 0,0 UV-I 58 W/m² 11,7 °C 13,3 °C 0,0 km/h (0 Bft)
04.05.2018 18:20 13,3 °C 90 % 1014,6 hPa 0,0 mm 0,2 km/h (0 Bft) O 90 ° 0 min 0,000 mm 0,0 UV-I 60 W/m² 11,7 °C 13,3 °C 1,6 km/h (1 Bft)
04.05.2018 18:21 13,3 °C 90 % 1014,6 hPa 0,0 mm 4,7 km/h (1 Bft) NO 56 ° 0 min 0,000 mm 0,0 UV-I 60 W/m² 11,7 °C 13,3 °C 11,3 km/h (2 Bft)
04.05.2018 18:22 13,3 °C 90 % 1014,5 hPa 0,0 mm 5,0 km/h (1 Bft) NO 34 ° 0 min 0,000 mm 0,0 UV-I 58 W/m² 11,7 °C 13,3 °C 14,5 km/h (3 Bft)
04.05.2018 18:23 13,3 °C 90 % 1014,5 hPa 0,0 mm 2,3 km/h (1 Bft) NO 44 ° 0 min 0,000 mm 0,0 UV-I 58 W/m² 11,7 °C 13,3 °C 3,2 km/h (1 Bft)
04.05.2018 18:24 13,4 °C 90 % 1014,6 hPa 0,0 mm 0,3 km/h (0 Bft) NO 44 ° 0 min 0,000 mm 0,0 UV-I 60 W/m² 11,8 °C 13,4 °C 1,6 km/h (1 Bft)
04.05.2018 18:25 13,4 °C 90 % 1014,5 hPa 0,0 mm 0,3 km/h (0 Bft) NO 44 ° 0 min 0,000 mm 0,0 UV-I 60 W/m² 11,8 °C 13,4 °C 1,6 km/h (1 Bft)
04.05.2018 18:26 13,4 °C 90 % 1014,5 hPa 0,0 mm 0,1 km/h (0 Bft) NO 44 ° 0 min 0,000 mm 0,0 UV-I 60 W/m² 11,8 °C 13,4 °C 1,6 km/h (1 Bft)
04.05.2018 18:27 13,4 °C 90 % 1014,5 hPa 0,0 mm 5,2 km/h (1 Bft) O 85 ° 0 min 0,000 mm 0,0 UV-I 63 W/m² 11,8 °C 13,4 °C 8,0 km/h (2 Bft)
04.05.2018 18:28 13,3 °C 90 % 1014,5 hPa 0,0 mm 2,6 km/h (1 Bft) O-NO 77 ° 0 min 0,000 mm 0,0 UV-I 58 W/m² 11,7 °C 13,3 °C 6,4 km/h (2 Bft)
04.05.2018 18:29 13,3 °C 90 % 1014,6 hPa 0,0 mm 1,5 km/h (1 Bft) O-NO 77 ° 0 min 0,000 mm 0,0 UV-I 53 W/m² 11,7 °C 13,3 °C 4,8 km/h (1 Bft)
04.05.2018 18:30 13,3 °C 90 % 1014,5 hPa 0,0 mm 4,4 km/h (1 Bft) NO 51 ° 0 min 0,000 mm 0,0 UV-I 51 W/m² 11,7 °C 13,3 °C 6,4 km/h (2 Bft)
04.05.2018 18:31 13,3 °C 90 % 1014,5 hPa 0,0 mm 3,7 km/h (1 Bft) NO 49 ° 0 min 0,000 mm 0,0 UV-I 47 W/m² 11,7 °C 13,3 °C 4,8 km/h (1 Bft)
04.05.2018 18:32 13,3 °C 90 % 1014,5 hPa 0,0 mm 4,7 km/h (1 Bft) O-NO 66 ° 0 min 0,000 mm 0,0 UV-I 51 W/m² 11,7 °C 13,3 °C 8,0 km/h (2 Bft)
04.05.2018 18:33 13,4 °C 90 % 1014,6 hPa 0,0 mm 5,6 km/h (1 Bft) O 80 ° 0 min 0,000 mm 0,0 UV-I 47 W/m² 11,8 °C 13,4 °C 8,0 km/h (2 Bft)
04.05.2018 18:34 13,4 °C 90 % 1014,5 hPa 0,0 mm 2,7 km/h (1 Bft) O-SO 106 ° 0 min 0,000 mm 0,0 UV-I 42 W/m² 11,8 °C 13,4 °C 6,4 km/h (2 Bft)
04.05.2018 18:35 13,4 °C 90 % 1014,6 hPa 0,0 mm 2,4 km/h (1 Bft) O-NO 62 ° 0 min 0,000 mm 0,0 UV-I 39 W/m² 11,8 °C 13,4 °C 4,8 km/h (1 Bft)
04.05.2018 18:36 13,4 °C 90 % 1014,5 hPa 0,0 mm 1,6 km/h (1 Bft) O-NO 63 ° 0 min 0,000 mm 0,0 UV-I 37 W/m² 11,8 °C 13,4 °C 3,2 km/h (1 Bft)
04.05.2018 18:37 13,3 °C 90 % 1014,6 hPa 0,0 mm 1,7 km/h (1 Bft) O-NO 63 ° 0 min 0,000 mm 0,0 UV-I 35 W/m² 11,7 °C 13,3 °C 3,2 km/h (1 Bft)
04.05.2018 18:38 13,4 °C 90 % 1014,6 hPa 0,0 mm 0,4 km/h (0 Bft) O-NO 63 ° 0 min 0,000 mm 0,0 UV-I 33 W/m² 11,8 °C 13,4 °C 1,6 km/h (1 Bft)
04.05.2018 18:39 13,4 °C 90 % 1014,6 hPa 0,0 mm 1,0 km/h (0 Bft) O-NO 63 ° 0 min 0,000 mm 0,0 UV-I 37 W/m² 11,8 °C 13,4 °C 3,2 km/h (1 Bft)
04.05.2018 18:40 13,3 °C 90 % 1014,6 hPa 0,0 mm 2,4 km/h (1 Bft) NO 55 ° 0 min 0,000 mm 0,0 UV-I 39 W/m² 11,7 °C 13,3 °C 4,8 km/h (1 Bft)
04.05.2018 18:41 13,3 °C 90 % 1014,6 hPa 0,0 mm 2,2 km/h (1 Bft) NO 54 ° 0 min 0,000 mm 0,0 UV-I 37 W/m² 11,7 °C 13,3 °C 4,8 km/h (1 Bft)
04.05.2018 18:42 13,3 °C 90 % 1014,7 hPa 0,0 mm 0,8 km/h (0 Bft) NO 54 ° 0 min 0,000 mm 0,0 UV-I 35 W/m² 11,7 °C 13,3 °C 3,2 km/h (1 Bft)
04.05.2018 18:43 13,4 °C 90 % 1014,7 hPa 0,0 mm 1,4 km/h (1 Bft) O-NO 66 ° 0 min 0,000 mm 0,0 UV-I 37 W/m² 11,8 °C 13,4 °C 4,8 km/h (1 Bft)
04.05.2018 18:44 13,3 °C 90 % 1014,7 hPa 0,0 mm 1,2 km/h (1 Bft) O-NO 66 ° 0 min 0,000 mm 0,0 UV-I 35 W/m² 11,7 °C 13,3 °C 3,2 km/h (1 Bft)
04.05.2018 18:45 13,3 °C 90 % 1014,6 hPa 0,0 mm 1,4 km/h (1 Bft) O-NO 66 ° 0 min 0,000 mm 0,0 UV-I 33 W/m² 11,7 °C 13,3 °C 3,2 km/h (1 Bft)
04.05.2018 18:46 13,3 °C 90 % 1014,6 hPa 0,0 mm 3,8 km/h (1 Bft) O-NO 63 ° 0 min 0,000 mm 0,0 UV-I 33 W/m² 11,7 °C 13,3 °C 6,4 km/h (2 Bft)
04.05.2018 18:47 13,3 °C 90 % 1014,6 hPa 0,0 mm 1,9 km/h (1 Bft) O-NO 64 ° 0 min 0,000 mm 0,0 UV-I 35 W/m² 11,7 °C 13,3 °C 4,8 km/h (1 Bft)
04.05.2018 18:48 13,4 °C 90 % 1014,7 hPa 0,0 mm 0,3 km/h (0 Bft) O-NO 64 ° 0 min 0,000 mm 0,0 UV-I 37 W/m² 11,8 °C 13,4 °C 1,6 km/h (1 Bft)
04.05.2018 18:49 13,4 °C 90 % 1014,7 hPa 0,0 mm 4,0 km/h (1 Bft) O 84 ° 0 min 0,000 mm 0,0 UV-I 37 W/m² 11,8 °C 13,4 °C 9,7 km/h (2 Bft)
04.05.2018 18:50 13,4 °C 90 % 1014,7 hPa 0,0 mm 1,7 km/h (1 Bft) O 84 ° 0 min 0,000 mm 0,0 UV-I 35 W/m² 11,8 °C 13,4 °C 8,0 km/h (2 Bft)
04.05.2018 18:51 13,3 °C 90 % 1014,7 hPa 0,0 mm 0,7 km/h (0 Bft) O-NO 74 ° 0 min 0,000 mm 0,0 UV-I 37 W/m² 11,7 °C 13,3 °C 3,2 km/h (1 Bft)
04.05.2018 18:52 13,3 °C 90 % 1014,7 hPa 0,0 mm 1,7 km/h (1 Bft) O 80 ° 0 min 0,000 mm 0,0 UV-I 37 W/m² 11,7 °C 13,3 °C 3,2 km/h (1 Bft)
04.05.2018 18:53 13,3 °C 90 % 1014,7 hPa 0,0 mm 1,7 km/h (1 Bft) O-NO 58 ° 0 min 0,000 mm 0,0 UV-I 39 W/m² 11,7 °C 13,3 °C 4,8 km/h (1 Bft)
04.05.2018 18:54 13,3 °C 90 % 1014,7 hPa 0,0 mm 0,4 km/h (0 Bft) O-NO 58 ° 0 min 0,000 mm 0,0 UV-I 37 W/m² 11,7 °C 13,3 °C 1,6 km/h (1 Bft)
04.05.2018 18:55 13,3 °C 90 % 1014,7 hPa 0,0 mm 0,9 km/h (0 Bft) O-NO 58 ° 0 min 0,000 mm 0,0 UV-I 32 W/m² 11,7 °C 13,3 °C 3,2 km/h (1 Bft)
04.05.2018 18:56 13,3 °C 90 % 1014,7 hPa 0,0 mm 0,7 km/h (0 Bft) O-NO 58 ° 0 min 0,000 mm 0,0 UV-I 30 W/m² 11,7 °C 13,3 °C 3,2 km/h (1 Bft)
04.05.2018 18:57 13,3 °C 90 % 1014,7 hPa 0,0 mm 1,3 km/h (1 Bft) O-NO 58 ° 0 min 0,000 mm 0,0 UV-I 26 W/m² 11,7 °C 13,3 °C 3,2 km/h (1 Bft)
04.05.2018 18:58 13,3 °C 90 % 1014,6 hPa 0,0 mm 0,6 km/h (0 Bft) O-NO 58 ° 0 min 0,000 mm 0,0 UV-I 25 W/m² 11,7 °C 13,3 °C 3,2 km/h (1 Bft)
04.05.2018 18:59 13,3 °C 90 % 1014,6 hPa 0,0 mm 2,7 km/h (1 Bft) NO 56 ° 0 min 0,000 mm 0,0 UV-I 23 W/m² 11,7 °C 13,3 °C 4,8 km/h (1 Bft)
04.05.2018 19:00 13,3 °C 90 % 1014,6 hPa 0,0 mm 0,5 km/h (0 Bft) NO 56 ° 0 min 0,000 mm 0,0 UV-I 26 W/m² 11,7 °C 13,3 °C 3,2 km/h (1 Bft)
04.05.2018 19:01 13,3 °C 90 % 1014,6 hPa 0,0 mm 2,5 km/h (1 Bft) O-NO 62 ° 0 min 0,025 mm 0,0 UV-I 30 W/m² 11,7 °C 13,3 °C 8,0 km/h (2 Bft)
04.05.2018 19:02 13,3 °C 90 % 1014,6 hPa 0,0 mm 4,4 km/h (1 Bft) NO 53 ° 0 min 0,000 mm 0,0 UV-I 26 W/m² 11,7 °C 13,3 °C 8,0 km/h (2 Bft)
04.05.2018 19:03 13,3 °C 90 % 1014,7 hPa 0,0 mm 1,3 km/h (1 Bft) O-NO 69 ° 0 min 0,000 mm 0,0 UV-I 26 W/m² 11,7 °C 13,3 °C 3,2 km/h (1 Bft)
04.05.2018 19:04 13,3 °C 90 % 1014,7 hPa 0,0 mm 0,6 km/h (0 Bft) O-NO 69 ° 0 min 0,000 mm 0,0 UV-I 23 W/m² 11,7 °C 13,3 °C 3,2 km/h (1 Bft)
04.05.2018 19:05 13,3 °C 90 % 1014,7 hPa 0,0 mm 4,8 km/h (1 Bft) NO 43 ° 0 min 0,000 mm 0,0 UV-I 25 W/m² 11,7 °C 13,3 °C 11,3 km/h (2 Bft)
04.05.2018 19:06 13,3 °C 90 % 1014,7 hPa 0,0 mm 6,6 km/h (2 Bft) O-NO 67 ° 0 min 0,000 mm 0,0 UV-I 26 W/m² 11,7 °C 13,3 °C 12,9 km/h (3 Bft)
04.05.2018 19:07 13,3 °C 90 % 1014,7 hPa 0,0 mm 3,0 km/h (1 Bft) NO 40 ° 0 min 0,000 mm 0,0 UV-I 26 W/m² 11,7 °C 13,3 °C 4,8 km/h (1 Bft)
04.05.2018 19:08 13,2 °C 90 % 1014,7 hPa 0,0 mm 3,8 km/h (1 Bft) O-NO 76 ° 0 min 0,000 mm 0,0 UV-I 23 W/m² 11,6 °C 13,2 °C 6,4 km/h (2 Bft)
04.05.2018 19:09 13,2 °C 90 % 1014,7 hPa 0,0 mm 0,6 km/h (0 Bft) O-NO 76 ° 0 min 0,000 mm 0,0 UV-I 21 W/m² 11,6 °C 13,2 °C 3,2 km/h (1 Bft)
04.05.2018 19:10 13,2 °C 90 % 1014,7 hPa 0,0 mm 3,6 km/h (1 Bft) O-NO 76 ° 0 min 0,000 mm 0,0 UV-I 19 W/m² 11,6 °C 13,2 °C 6,4 km/h (2 Bft)
04.05.2018 19:11 13,2 °C 90 % 1014,7 hPa 0,0 mm 2,5 km/h (1 Bft) O-SO 103 ° 0 min 0,000 mm 0,0 UV-I 19 W/m² 11,6 °C 13,2 °C 4,8 km/h (1 Bft)
04.05.2018 19:12 13,2 °C 90 % 1014,7 hPa 0,0 mm 1,6 km/h (1 Bft) O-SO 106 ° 0 min 0,000 mm 0,0 UV-I 21 W/m² 11,6 °C 13,2 °C 4,8 km/h (1 Bft)
04.05.2018 19:13 13,2 °C 90 % 1014,8 hPa 0,0 mm 2,7 km/h (1 Bft) O-SO 120 ° 0 min 0,000 mm 0,0 UV-I 19 W/m² 11,6 °C 13,2 °C 6,4 km/h (2 Bft)
04.05.2018 19:14 13,2 °C 90 % 1014,8 hPa 0,0 mm 2,4 km/h (1 Bft) O-NO 57 ° 0 min 0,000 mm 0,0 UV-I 21 W/m² 11,6 °C 13,2 °C 3,2 km/h (1 Bft)
04.05.2018 19:15 13,2 °C 90 % 1014,7 hPa 0,0 mm 0,4 km/h (0 Bft) O-NO 67 ° 0 min 0,000 mm 0,0 UV-I 21 W/m² 11,6 °C 13,2 °C 1,6 km/h (1 Bft)
04.05.2018 19:16 13,2 °C 90 % 1014,7 hPa 0,0 mm 3,0 km/h (1 Bft) O 84 ° 0 min 0,000 mm 0,0 UV-I 21 W/m² 11,6 °C 13,2 °C 4,8 km/h (1 Bft)
04.05.2018 19:17 13,2 °C 90 % 1014,8 hPa 0,0 mm 2,6 km/h (1 Bft) O 88 ° 0 min 0,000 mm 0,0 UV-I 21 W/m² 11,6 °C 13,2 °C 4,8 km/h (1 Bft)
04.05.2018 19:18 13,2 °C 90 % 1014,8 hPa 0,0 mm 5,2 km/h (1 Bft) O-NO 63 ° 0 min 0,000 mm 0,0 UV-I 19 W/m² 11,6 °C 13,2 °C 8,0 km/h (2 Bft)
04.05.2018 19:19 13,2 °C 90 % 1014,7 hPa 0,0 mm 2,0 km/h (1 Bft) O-NO 75 ° 0 min 0,000 mm 0,0 UV-I 16 W/m² 11,6 °C 13,2 °C 4,8 km/h (1 Bft)
04.05.2018 19:20 13,2 °C 90 % 1014,7 hPa 0,0 mm 0,1 km/h (0 Bft) O-NO 75 ° 0 min 0,000 mm 0,0 UV-I 18 W/m² 11,6 °C 13,2 °C 1,6 km/h (1 Bft)
04.05.2018 19:21 13,2 °C 90 % 1014,7 hPa 0,0 mm 2,0 km/h (1 Bft) O-NO 71 ° 0 min 0,000 mm 0,0 UV-I 19 W/m² 11,6 °C 13,2 °C 4,8 km/h (1 Bft)
04.05.2018 19:22 13,1 °C 90 % 1014,7 hPa 0,0 mm 2,4 km/h (1 Bft) O 80 ° 0 min 0,000 mm 0,0 UV-I 19 W/m² 11,5 °C 13,1 °C 6,4 km/h (2 Bft)
04.05.2018 19:23 13,1 °C 90 % 1014,7 hPa 0,0 mm 1,5 km/h (1 Bft) O-SO 102 ° 0 min 0,000 mm 0,0 UV-I 21 W/m² 11,5 °C 13,1 °C 4,8 km/h (1 Bft)
04.05.2018 19:24 13,1 °C 90 % 1014,7 hPa 0,0 mm 1,5 km/h (1 Bft) O-NO 60 ° 0 min 0,000 mm 0,0 UV-I 21 W/m² 11,5 °C 13,1 °C 3,2 km/h (1 Bft)
04.05.2018 19:25 13,1 °C 90 % 1014,7 hPa 0,0 mm 1,4 km/h (1 Bft) O-NO 60 ° 0 min 0,000 mm 0,0 UV-I 23 W/m² 11,5 °C 13,1 °C 3,2 km/h (1 Bft)
04.05.2018 19:26 13,1 °C 90 % 1014,7 hPa 0,0 mm 0,7 km/h (0 Bft) O-NO 60 ° 0 min 0,000 mm 0,0 UV-I 21 W/m² 11,5 °C 13,1 °C 3,2 km/h (1 Bft)
04.05.2018 19:27 13,1 °C 90 % 1014,8 hPa 0,0 mm 1,4 km/h (1 Bft) O-NO 60 ° 0 min 0,000 mm 0,0 UV-I 21 W/m² 11,5 °C 13,1 °C 3,2 km/h (1 Bft)
04.05.2018 19:28 13,1 °C 90 % 1014,7 hPa 0,0 mm 0,2 km/h (0 Bft) O-NO 60 ° 0 min 0,000 mm 0,0 UV-I 19 W/m² 11,5 °C 13,1 °C 1,6 km/h (1 Bft)
04.05.2018 19:29 13,1 °C 90 % 1014,8 hPa 0,0 mm 0,5 km/h (0 Bft) O-NO 60 ° 0 min 0,000 mm 0,0 UV-I 19 W/m² 11,5 °C 13,1 °C 3,2 km/h (1 Bft)
04.05.2018 19:30 13,1 °C 90 % 1014,7 hPa 0,0 mm 1,9 km/h (1 Bft) N-NO 16 ° 0 min 0,000 mm 0,0 UV-I 21 W/m² 11,5 °C 13,1 °C 4,8 km/h (1 Bft)
04.05.2018 19:31 13,1 °C 90 % 1014,8 hPa 0,0 mm 0,5 km/h (0 Bft) N-NO 29 ° 0 min 0,000 mm 0,0 UV-I 21 W/m² 11,5 °C 13,1 °C 1,6 km/h (1 Bft)
04.05.2018 19:32 13,1 °C 90 % 1014,7 hPa 0,0 mm 1,6 km/h (1 Bft) N-NO 29 ° 0 min 0,000 mm 0,0 UV-I 21 W/m² 11,5 °C 13,1 °C 3,2 km/h (1 Bft)
04.05.2018 19:33 13,1 °C 90 % 1014,8 hPa 0,0 mm 0,7 km/h (0 Bft) N-NO 29 ° 0 min 0,000 mm 0,0 UV-I 21 W/m² 11,5 °C 13,1 °C 1,6 km/h (1 Bft)
04.05.2018 19:34 13,1 °C 90 % 1014,7 hPa 0,0 mm 1,1 km/h (1 Bft) NO 55 ° 0 min 0,000 mm 0,0 UV-I 23 W/m² 11,5 °C 13,1 °C 3,2 km/h (1 Bft)
04.05.2018 19:35 13,1 °C 90 % 1014,7 hPa 0,0 mm 0,2 km/h (0 Bft) NO 55 ° 0 min 0,000 mm 0,0 UV-I 23 W/m² 11,5 °C 13,1 °C 1,6 km/h (1 Bft)
04.05.2018 19:36 13,1 °C 90 % 1014,8 hPa 0,0 mm 0,1 km/h (0 Bft) NO 55 ° 0 min 0,000 mm 0,0 UV-I 19 W/m² 11,5 °C 13,1 °C 1,6 km/h (1 Bft)
04.05.2018 19:37 13,1 °C 90 % 1014,8 hPa 0,0 mm 2,0 km/h (1 Bft) O-NO 62 ° 0 min 0,000 mm 0,0 UV-I 18 W/m² 11,5 °C 13,1 °C 4,8 km/h (1 Bft)
04.05.2018 19:38 13,1 °C 90 % 1014,9 hPa 0,0 mm 2,1 km/h (1 Bft) O-NO 67 ° 0 min 0,000 mm 0,0 UV-I 16 W/m² 11,5 °C 13,1 °C 6,4 km/h (2 Bft)
04.05.2018 19:39 13,1 °C 90 % 1014,8 hPa 0,0 mm 0,1 km/h (0 Bft) O-NO 67 ° 0 min 0,000 mm 0,0 UV-I 16 W/m² 11,5 °C 13,1 °C 1,6 km/h (1 Bft)
04.05.2018 19:40 13,1 °C 90 % 1014,8 hPa 0,0 mm 0,3 km/h (0 Bft) NW 324 ° 0 min 0,000 mm 0,0 UV-I 16 W/m² 11,5 °C 13,1 °C 1,6 km/h (1 Bft)
04.05.2018 19:41 13,1 °C 90 % 1014,8 hPa 0,0 mm 0,3 km/h (0 Bft) O-NO 68 ° 0 min 0,000 mm 0,0 UV-I 16 W/m² 11,5 °C 13,1 °C 1,6 km/h (1 Bft)
04.05.2018 19:42 13,1 °C 90 % 1014,8 hPa 0,0 mm 2,6 km/h (1 Bft) O-NO 68 ° 0 min 0,000 mm 0,0 UV-I 16 W/m² 11,5 °C 13,1 °C 6,4 km/h (2 Bft)
04.05.2018 19:43 13,1 °C 90 % 1014,8 hPa 0,0 mm 2,8 km/h (1 Bft) O-NO 65 ° 0 min 0,000 mm 0,0 UV-I 16 W/m² 11,5 °C 13,1 °C 6,4 km/h (2 Bft)
04.05.2018 19:44 13,1 °C 90 % 1014,7 hPa 0,0 mm 0,0 km/h (0 Bft) O-NO 65 ° 0 min 0,000 mm 0,0 UV-I 16 W/m² 11,5 °C 13,1 °C 0,0 km/h (0 Bft)
04.05.2018 19:45 13,1 °C 90 % 1014,7 hPa 0,0 mm 0,3 km/h (0 Bft) O-NO 65 ° 0 min 0,000 mm 0,0 UV-I 16 W/m² 11,5 °C 13,1 °C 1,6 km/h (1 Bft)
04.05.2018 19:46 13,1 °C 90 % 1014,7 hPa 0,0 mm 3,0 km/h (1 Bft) O-SO 103 ° 0 min 0,000 mm 0,0 UV-I 14 W/m² 11,5 °C 13,1 °C 4,8 km/h (1 Bft)
04.05.2018 19:47 13,1 °C 90 % 1014,8 hPa 0,0 mm 0,4 km/h (0 Bft) O-SO 103 ° 0 min 0,000 mm 0,0 UV-I 14 W/m² 11,5 °C 13,1 °C 1,6 km/h (1 Bft)
04.05.2018 19:48 13,1 °C 90 % 1014,8 hPa 0,0 mm 0,7 km/h (0 Bft) O-SO 103 ° 0 min 0,000 mm 0,0 UV-I 12 W/m² 11,5 °C 13,1 °C 1,6 km/h (1 Bft)
04.05.2018 19:49 13,0 °C 90 % 1014,7 hPa 0,0 mm 0,0 km/h (0 Bft) O-SO 103 ° 0 min 0,000 mm 0,0 UV-I 12 W/m² 11,4 °C 13,0 °C 0,0 km/h (0 Bft)
04.05.2018 19:50 13,0 °C 90 % 1014,7 hPa 0,0 mm 1,5 km/h (1 Bft) O-NO 63 ° 0 min 0,000 mm 0,0 UV-I 11 W/m² 11,4 °C 13,0 °C 3,2 km/h (1 Bft)
04.05.2018 19:51 13,1 °C 91 % 1014,8 hPa 0,0 mm 0,1 km/h (0 Bft) O-NO 63 ° 0 min 0,000 mm 0,0 UV-I 11 W/m² 11,7 °C 13,1 °C 1,6 km/h (1 Bft)
04.05.2018 19:52 13,0 °C 91 % 1014,8 hPa 0,0 mm 0,0 km/h (0 Bft) O-NO 63 ° 0 min 0,000 mm 0,0 UV-I 12 W/m² 11,6 °C 13,0 °C 0,0 km/h (0 Bft)
04.05.2018 19:53 13,0 °C 91 % 1014,8 hPa 0,0 mm 1,4 km/h (1 Bft) O-NO 63 ° 0 min 0,000 mm 0,0 UV-I 12 W/m² 11,6 °C 13,0 °C 3,2 km/h (1 Bft)
04.05.2018 19:54 13,0 °C 91 % 1014,7 hPa 0,0 mm 0,1 km/h (0 Bft) O-NO 63 ° 0 min 0,000 mm 0,0 UV-I 12 W/m² 11,6 °C 13,0 °C 1,6 km/h (1 Bft)
04.05.2018 19:55 12,9 °C 91 % 1014,8 hPa 0,0 mm 0,0 km/h (0 Bft) O-NO 63 ° 0 min 0,000 mm 0,0 UV-I 12 W/m² 11,5 °C 12,9 °C 0,0 km/h (0 Bft)
04.05.2018 19:56 12,9 °C 91 % 1014,8 hPa 0,0 mm 0,8 km/h (0 Bft) O-NO 63 ° 0 min 0,000 mm 0,0 UV-I 11 W/m² 11,5 °C 12,9 °C 1,6 km/h (1 Bft)
04.05.2018 19:57 12,9 °C 91 % 1014,8 hPa 0,0 mm 0,1 km/h (0 Bft) O-NO 63 ° 0 min 0,000 mm 0,0 UV-I 11 W/m² 11,5 °C 12,9 °C 1,6 km/h (1 Bft)
04.05.2018 19:58 12,9 °C 91 % 1014,7 hPa 0,0 mm 0,9 km/h (0 Bft) O-NO 63 ° 0 min 0,000 mm 0,0 UV-I 11 W/m² 11,5 °C 12,9 °C 3,2 km/h (1 Bft)
04.05.2018 19:59 12,9 °C 91 % 1014,7 hPa 0,0 mm 1,1 km/h (1 Bft) O-NO 63 ° 0 min 0,000 mm 0,0 UV-I 11 W/m² 11,5 °C 12,9 °C 3,2 km/h (1 Bft)
04.05.2018 20:00 12,9 °C 91 % 1014,7 hPa 0,0 mm 0,5 km/h (0 Bft) O-NO 63 ° 0 min 0,000 mm 0,0 UV-I 11 W/m² 11,5 °C 12,9 °C 1,6 km/h (1 Bft)
04.05.2018 20:01 12,9 °C 91 % 1014,7 hPa 0,0 mm 0,2 km/h (0 Bft) O-NO 63 ° 0 min 0,000 mm 0,0 UV-I 11 W/m² 11,5 °C 12,9 °C 1,6 km/h (1 Bft)
04.05.2018 20:02 12,9 °C 91 % 1014,7 hPa 0,0 mm 1,8 km/h (1 Bft) NO 49 ° 0 min 0,000 mm 0,0 UV-I 9 W/m² 11,5 °C 12,9 °C 3,2 km/h (1 Bft)
04.05.2018 20:03 12,9 °C 91 % 1014,8 hPa 0,0 mm 1,7 km/h (1 Bft) NO 50 ° 0 min 0,000 mm 0,0 UV-I 9 W/m² 11,5 °C 12,9 °C 3,2 km/h (1 Bft)
04.05.2018 20:04 12,9 °C 91 % 1014,7 hPa 0,0 mm 1,7 km/h (1 Bft) O-SO 114 ° 0 min 0,000 mm 0,0 UV-I 9 W/m² 11,5 °C 12,9 °C 3,2 km/h (1 Bft)
04.05.2018 20:05 12,9 °C 91 % 1014,7 hPa 0,0 mm 1,4 km/h (1 Bft) O-SO 114 ° 0 min 0,000 mm 0,0 UV-I 9 W/m² 11,5 °C 12,9 °C 3,2 km/h (1 Bft)
04.05.2018 20:06 12,9 °C 91 % 1014,7 hPa 0,0 mm 0,9 km/h (0 Bft) O 85 ° 0 min 0,000 mm 0,0 UV-I 7 W/m² 11,5 °C 12,9 °C 3,2 km/h (1 Bft)
04.05.2018 20:07 12,9 °C 91 % 1014,8 hPa 0,0 mm 0,5 km/h (0 Bft) O 85 ° 0 min 0,000 mm 0,0 UV-I 7 W/m² 11,5 °C 12,9 °C 3,2 km/h (1 Bft)
04.05.2018 20:08 12,9 °C 91 % 1014,8 hPa 0,0 mm 0,3 km/h (0 Bft) O 85 ° 0 min 0,000 mm 0,0 UV-I 7 W/m² 11,5 °C 12,9 °C 1,6 km/h (1 Bft)
04.05.2018 20:09 12,9 °C 91 % 1014,8 hPa 0,0 mm 0,0 km/h (0 Bft) O 85 ° 0 min 0,000 mm 0,0 UV-I 5 W/m² 11,5 °C 12,9 °C 0,0 km/h (0 Bft)
04.05.2018 20:10 12,9 °C 91 % 1014,8 hPa 0,0 mm 0,1 km/h (0 Bft) O 85 ° 0 min 0,000 mm 0,0 UV-I 5 W/m² 11,5 °C 12,9 °C 1,6 km/h (1 Bft)
04.05.2018 20:11 12,9 °C 91 % 1014,8 hPa 0,0 mm 0,0 km/h (0 Bft) O 85 ° 0 min 0,000 mm 0,0 UV-I 5 W/m² 11,5 °C 12,9 °C 0,0 km/h (0 Bft)
04.05.2018 20:12 12,9 °C 91 % 1014,9 hPa 0,0 mm 3,1 km/h (1 Bft) O-NO 63 ° 0 min 0,000 mm 0,0 UV-I 5 W/m² 11,5 °C 12,9 °C 4,8 km/h (1 Bft)
04.05.2018 20:13 12,9 °C 91 % 1014,8 hPa 0,0 mm 3,9 km/h (1 Bft) O-SO 113 ° 0 min 0,000 mm 0,0 UV-I 5 W/m² 11,5 °C 12,9 °C 4,8 km/h (1 Bft)
04.05.2018 20:14 12,9 °C 91 % 1014,9 hPa 0,0 mm 0,0 km/h (0 Bft) O-SO 114 ° 0 min 0,000 mm 0,0 UV-I 5 W/m² 11,5 °C 12,9 °C 0,0 km/h (0 Bft)
04.05.2018 20:15 12,9 °C 91 % 1014,9 hPa 0,0 mm 0,0 km/h (0 Bft) O-SO 114 ° 0 min 0,000 mm 0,0 UV-I 5 W/m² 11,5 °C 12,9 °C 0,0 km/h (0 Bft)
04.05.2018 20:16 12,9 °C 91 % 1014,9 hPa 0,0 mm 0,1 km/h (0 Bft) O-SO 114 ° 0 min 0,000 mm 0,0 UV-I 0 W/m² 11,5 °C 12,9 °C 1,6 km/h (1 Bft)
04.05.2018 20:17 12,9 °C 91 % 1014,9 hPa 0,0 mm 0,0 km/h (0 Bft) O-SO 114 ° 0 min 0,000 mm 0,0 UV-I 0 W/m² 11,5 °C 12,9 °C 0,0 km/h (0 Bft)
04.05.2018 20:18 12,8 °C 91 % 1014,9 hPa 0,0 mm 0,1 km/h (0 Bft) O-SO 113 ° 0 min 0,000 mm 0,0 UV-I 0 W/m² 11,4 °C 12,8 °C 1,6 km/h (1 Bft)
04.05.2018 20:19 12,9 °C 91 % 1014,9 hPa 0,0 mm 0,7 km/h (0 Bft) O-SO 113 ° 0 min 0,000 mm 0,0 UV-I 0 W/m² 11,5 °C 12,9 °C 3,2 km/h (1 Bft)
04.05.2018 20:20 12,9 °C 91 % 1015,0 hPa 0,0 mm 1,5 km/h (1 Bft) O 81 ° 0 min 0,000 mm 0,0 UV-I 0 W/m² 11,5 °C 12,9 °C 4,8 km/h (1 Bft)
04.05.2018 20:21 12,9 °C 91 % 1015,0 hPa 0,0 mm 0,8 km/h (0 Bft) O 80 ° 0 min 0,000 mm 0,0 UV-I 0 W/m² 11,5 °C 12,9 °C 4,8 km/h (1 Bft)
04.05.2018 20:22 12,9 °C 91 % 1015,0 hPa 0,0 mm 0,6 km/h (0 Bft) O 80 ° 0 min 0,000 mm 0,0 UV-I 0 W/m² 11,5 °C 12,9 °C 3,2 km/h (1 Bft)
04.05.2018 20:23 12,9 °C 91 % 1015,0 hPa 0,0 mm 0,0 km/h (0 Bft) O 80 ° 0 min 0,000 mm 0,0 UV-I 0 W/m² 11,5 °C 12,9 °C 0,0 km/h (0 Bft)
04.05.2018 20:24 12,9 °C 91 % 1015,0 hPa 0,0 mm 0,0 km/h (0 Bft) O 80 ° 0 min 0,000 mm 0,0 UV-I 0 W/m² 11,5 °C 12,9 °C 0,0 km/h (0 Bft)
04.05.2018 20:25 12,8 °C 91 % 1015,0 hPa 0,0 mm 0,2 km/h (0 Bft) O 80 ° 0 min 0,000 mm 0,0 UV-I 0 W/m² 11,4 °C 12,8 °C 1,6 km/h (1 Bft)
04.05.2018 20:26 12,8 °C 91 % 1015,0 hPa 0,0 mm 1,4 km/h (1 Bft) O 80 ° 0 min 0,000 mm 0,0 UV-I 0 W/m² 11,4 °C 12,8 °C 3,2 km/h (1 Bft)
04.05.2018 20:27 12,8 °C 91 % 1015,0 hPa 0,0 mm 0,9 km/h (0 Bft) O 80 ° 0 min 0,000 mm 0,0 UV-I 0 W/m² 11,4 °C 12,8 °C 1,6 km/h (1 Bft)
04.05.2018 20:28 12,8 °C 91 % 1015,0 hPa 0,0 mm 0,6 km/h (0 Bft) O 80 ° 0 min 0,000 mm 0,0 UV-I 0 W/m² 11,4 °C 12,8 °C 1,6 km/h (1 Bft)
04.05.2018 20:29 12,8 °C 91 % 1015,0 hPa 0,0 mm 0,4 km/h (0 Bft) O 80 ° 0 min 0,000 mm 0,0 UV-I 0 W/m² 11,4 °C 12,8 °C 3,2 km/h (1 Bft)
04.05.2018 20:30 12,8 °C 91 % 1015,0 hPa 0,0 mm 2,8 km/h (1 Bft) O-SO 109 ° 0 min 0,000 mm 0,0 UV-I 0 W/m² 11,4 °C 12,8 °C 4,8 km/h (1 Bft)
04.05.2018 20:31 12,9 °C 91 % 1015,0 hPa 0,0 mm 0,2 km/h (0 Bft) O-SO 109 ° 0 min 0,000 mm 0,0 UV-I 0 W/m² 11,5 °C 12,9 °C 1,6 km/h (1 Bft)
04.05.2018 20:32 12,8 °C 91 % 1015,0 hPa 0,0 mm 0,0 km/h (0 Bft) O-SO 109 ° 0 min 0,000 mm 0,0 UV-I 0 W/m² 11,4 °C 12,8 °C 0,0 km/h (0 Bft)
04.05.2018 20:33 12,9 °C 91 % 1015,0 hPa 0,0 mm 0,0 km/h (0 Bft) O-SO 109 ° 0 min 0,000 mm 0,0 UV-I 0 W/m² 11,5 °C 12,9 °C 0,0 km/h (0 Bft)
04.05.2018 20:34 12,8 °C 91 % 1015,1 hPa 0,0 mm 0,0 km/h (0 Bft) O-SO 109 ° 0 min 0,000 mm 0,0 UV-I 0 W/m² 11,4 °C 12,8 °C 0,0 km/h (0 Bft)
04.05.2018 20:35 12,8 °C 91 % 1015,1 hPa 0,0 mm 0,9 km/h (0 Bft) O-SO 107 ° 0 min 0,000 mm 0,0 UV-I 0 W/m² 11,4 °C 12,8 °C 3,2 km/h (1 Bft)
04.05.2018 20:36 12,8 °C 91 % 1015,2 hPa 0,0 mm 1,1 km/h (1 Bft) O-SO 107 ° 0 min 0,000 mm 0,0 UV-I 0 W/m² 11,4 °C 12,8 °C 3,2 km/h (1 Bft)
04.05.2018 20:37 12,8 °C 91 % 1015,2 hPa 0,0 mm 1,7 km/h (1 Bft) O 80 ° 0 min 0,000 mm 0,0 UV-I 0 W/m² 11,4 °C 12,8 °C 4,8 km/h (1 Bft)
04.05.2018 20:38 12,9 °C 91 % 1015,2 hPa 0,0 mm 3,8 km/h (1 Bft) O-NO 61 ° 0 min 0,000 mm 0,0 UV-I 0 W/m² 11,5 °C 12,9 °C 8,0 km/h (2 Bft)
04.05.2018 20:39 12,8 °C 91 % 1015,2 hPa 0,0 mm 1,6 km/h (1 Bft) O 79 ° 0 min 0,000 mm 0,0 UV-I 0 W/m² 11,4 °C 12,8 °C 3,2 km/h (1 Bft)
04.05.2018 20:40 12,9 °C 91 % 1015,2 hPa 0,0 mm 1,2 km/h (1 Bft) O 85 ° 0 min 0,000 mm 0,0 UV-I 0 W/m² 11,5 °C 12,9 °C 3,2 km/h (1 Bft)
04.05.2018 20:41 12,9 °C 91 % 1015,2 hPa 0,0 mm 0,5 km/h (0 Bft) O 85 ° 0 min 0,000 mm 0,0 UV-I 0 W/m² 11,5 °C 12,9 °C 3,2 km/h (1 Bft)
04.05.2018 20:42 12,9 °C 91 % 1015,2 hPa 0,0 mm 4,6 km/h (1 Bft) O-NO 77 ° 0 min 0,000 mm 0,0 UV-I 0 W/m² 11,5 °C 12,9 °C 8,0 km/h (2 Bft)
04.05.2018 20:43 12,9 °C 91 % 1015,2 hPa 0,0 mm 2,0 km/h (1 Bft) O 93 ° 0 min 0,000 mm 0,0 UV-I 0 W/m² 11,5 °C 12,9 °C 6,4 km/h (2 Bft)
04.05.2018 20:44 12,9 °C 91 % 1015,2 hPa 0,0 mm 0,1 km/h (0 Bft) O 93 ° 0 min 0,000 mm 0,0 UV-I 0 W/m² 11,5 °C 12,9 °C 1,6 km/h (1 Bft)
04.05.2018 20:45 12,9 °C 91 % 1015,3 hPa 0,0 mm 0,8 km/h (0 Bft) O 92 ° 0 min 0,000 mm 0,0 UV-I 0 W/m² 11,5 °C 12,9 °C 3,2 km/h (1 Bft)
04.05.2018 20:46 12,8 °C 91 % 1015,2 hPa 0,0 mm 2,8 km/h (1 Bft) O-NO 66 ° 0 min 0,000 mm 0,0 UV-I 0 W/m² 11,4 °C 12,8 °C 4,8 km/h (1 Bft)
04.05.2018 20:47 12,8 °C 91 % 1015,2 hPa 0,0 mm 1,9 km/h (1 Bft) O-NO 66 ° 0 min 0,000 mm 0,0 UV-I 0 W/m² 11,4 °C 12,8 °C 3,2 km/h (1 Bft)
04.05.2018 20:48 12,8 °C 91 % 1015,3 hPa 0,0 mm 1,9 km/h (1 Bft) O-NO 74 ° 0 min 0,000 mm 0,0 UV-I 0 W/m² 11,4 °C 12,8 °C 4,8 km/h (1 Bft)
04.05.2018 20:49 12,8 °C 91 % 1015,3 hPa 0,0 mm 0,7 km/h (0 Bft) O-NO 74 ° 0 min 0,000 mm 0,0 UV-I 0 W/m² 11,4 °C 12,8 °C 3,2 km/h (1 Bft)
04.05.2018 20:50 12,8 °C 91 % 1015,3 hPa 0,0 mm 0,3 km/h (0 Bft) O-NO 74 ° 0 min 0,000 mm 0,0 UV-I 0 W/m² 11,4 °C 12,8 °C 1,6 km/h (1 Bft)
04.05.2018 20:51 12,8 °C 91 % 1015,3 hPa 0,0 mm 0,8 km/h (0 Bft) O-NO 74 ° 0 min 0,000 mm 0,0 UV-I 0 W/m² 11,4 °C 12,8 °C 3,2 km/h (1 Bft)
04.05.2018 20:52 12,8 °C 91 % 1015,3 hPa 0,0 mm 0,6 km/h (0 Bft) O 79 ° 0 min 0,000 mm 0,0 UV-I 0 W/m² 11,4 °C 12,8 °C 1,6 km/h (1 Bft)
04.05.2018 20:53 12,8 °C 91 % 1015,3 hPa 0,0 mm 2,1 km/h (1 Bft) NO 42 ° 0 min 0,000 mm 0,0 UV-I 0 W/m² 11,4 °C 12,8 °C 4,8 km/h (1 Bft)
04.05.2018 20:54 12,8 °C 91 % 1015,4 hPa 0,0 mm 6,8 km/h (2 Bft) O 94 ° 0 min 0,000 mm 0,0 UV-I 0 W/m² 11,4 °C 12,8 °C 12,9 km/h (3 Bft)
04.05.2018 20:55 12,8 °C 91 % 1015,3 hPa 0,0 mm 7,5 km/h (2 Bft) O-NO 65 ° 0 min 0,000 mm 0,0 UV-I 0 W/m² 11,4 °C 12,8 °C 12,9 km/h (3 Bft)
04.05.2018 20:56 12,8 °C 91 % 1015,4 hPa 0,0 mm 5,6 km/h (1 Bft) O-NO 76 ° 0 min 0,000 mm 0,0 UV-I 0 W/m² 11,4 °C 12,8 °C 8,0 km/h (2 Bft)
04.05.2018 20:57 12,8 °C 91 % 1015,4 hPa 0,0 mm 1,4 km/h (1 Bft) NO 55 ° 0 min 0,000 mm 0,0 UV-I 0 W/m² 11,4 °C 12,8 °C 4,8 km/h (1 Bft)
04.05.2018 20:58 12,8 °C 91 % 1015,4 hPa 0,0 mm 3,6 km/h (1 Bft) O 94 ° 0 min 0,000 mm 0,0 UV-I 0 W/m² 11,4 °C 12,8 °C 6,4 km/h (2 Bft)
04.05.2018 20:59 12,8 °C 91 % 1015,4 hPa 0,0 mm 3,0 km/h (1 Bft) O-NO 76 ° 0 min 0,000 mm 0,0 UV-I 0 W/m² 11,4 °C 12,8 °C 4,8 km/h (1 Bft)
04.05.2018 21:00 12,8 °C 91 % 1015,3 hPa 0,0 mm 2,5 km/h (1 Bft) NO 56 ° 0 min 0,000 mm 0,0 UV-I 0 W/m² 11,4 °C 12,8 °C 6,4 km/h (2 Bft)
04.05.2018 21:01 12,8 °C 91 % 1015,3 hPa 0,0 mm 1,3 km/h (1 Bft) O 97 ° 0 min 0,000 mm 0,0 UV-I 0 W/m² 11,4 °C 12,8 °C 4,8 km/h (1 Bft)
04.05.2018 21:02 12,8 °C 91 % 1015,3 hPa 0,0 mm 3,0 km/h (1 Bft) NO 53 ° 0 min 0,000 mm 0,0 UV-I 0 W/m² 11,4 °C 12,8 °C 6,4 km/h (2 Bft)
04.05.2018 21:03 12,8 °C 91 % 1015,3 hPa 0,0 mm 4,4 km/h (1 Bft) O 92 ° 0 min 0,000 mm 0,0 UV-I 0 W/m² 11,4 °C 12,8 °C 8,0 km/h (2 Bft)
04.05.2018 21:04 12,8 °C 91 % 1015,4 hPa 0,0 mm 4,0 km/h (1 Bft) O 83 ° 0 min 0,000 mm 0,0 UV-I 0 W/m² 11,4 °C 12,8 °C 6,4 km/h (2 Bft)
04.05.2018 21:05 12,8 °C 91 % 1015,3 hPa 0,0 mm 0,8 km/h (0 Bft) O 82 ° 0 min 0,000 mm 0,0 UV-I 0 W/m² 11,4 °C 12,8 °C 3,2 km/h (1 Bft)
04.05.2018 21:06 12,8 °C 91 % 1015,3 hPa 0,0 mm 3,4 km/h (1 Bft) O 85 ° 0 min 0,000 mm 0,0 UV-I 0 W/m² 11,4 °C 12,8 °C 8,0 km/h (2 Bft)
04.05.2018 21:07 12,8 °C 91 % 1015,3 hPa 0,0 mm 1,5 km/h (1 Bft) N-NO 17 ° 0 min 0,000 mm 0,0 UV-I 0 W/m² 11,4 °C 12,8 °C 3,2 km/h (1 Bft)
04.05.2018 21:08 12,8 °C 91 % 1015,3 hPa 0,0 mm 2,6 km/h (1 Bft) O 80 ° 0 min 0,000 mm 0,0 UV-I 0 W/m² 11,4 °C 12,8 °C 4,8 km/h (1 Bft)
04.05.2018 21:09 12,8 °C 91 % 1015,3 hPa 0,0 mm 4,2 km/h (1 Bft) O-NO 75 ° 0 min 0,000 mm 0,0 UV-I 0 W/m² 11,4 °C 12,8 °C 8,0 km/h (2 Bft)
04.05.2018 21:10 12,7 °C 91 % 1015,3 hPa 0,0 mm 3,8 km/h (1 Bft) O-NO 58 ° 0 min 0,000 mm 0,0 UV-I 0 W/m² 11,3 °C 12,7 °C 6,4 km/h (2 Bft)
04.05.2018 21:11 12,7 °C 91 % 1015,4 hPa 0,0 mm 4,2 km/h (1 Bft) O 95 ° 0 min 0,000 mm 0,0 UV-I 0 W/m² 11,3 °C 12,7 °C 6,4 km/h (2 Bft)
04.05.2018 21:12 12,7 °C 91 % 1015,3 hPa 0,0 mm 1,5 km/h (1 Bft) O-SO 110 ° 0 min 0,000 mm 0,0 UV-I 0 W/m² 11,3 °C 12,7 °C 6,4 km/h (2 Bft)
04.05.2018 21:13 12,7 °C 91 % 1015,4 hPa 0,0 mm 1,4 km/h (1 Bft) O-NO 62 ° 0 min 0,000 mm 0,0 UV-I 0 W/m² 11,3 °C 12,7 °C 4,8 km/h (1 Bft)
04.05.2018 21:14 12,7 °C 91 % 1015,4 hPa 0,0 mm 2,0 km/h (1 Bft) O-NO 62 ° 0 min 0,000 mm 0,0 UV-I 0 W/m² 11,3 °C 12,7 °C 6,4 km/h (2 Bft)
04.05.2018 21:15 12,7 °C 91 % 1015,4 hPa 0,0 mm 2,5 km/h (1 Bft) O 82 ° 0 min 0,000 mm 0,0 UV-I 0 W/m² 11,3 °C 12,7 °C 8,0 km/h (2 Bft)
04.05.2018 21:16 12,6 °C 91 % 1015,3 hPa 0,0 mm 0,0 km/h (0 Bft) O 82 ° 0 min 0,000 mm 0,0 UV-I 0 W/m² 11,2 °C 12,6 °C 0,0 km/h (0 Bft)
04.05.2018 21:17 12,6 °C 91 % 1015,4 hPa 0,0 mm 1,1 km/h (1 Bft) O-NO 75 ° 0 min 0,000 mm 0,0 UV-I 0 W/m² 11,2 °C 12,6 °C 3,2 km/h (1 Bft)
04.05.2018 21:18 12,6 °C 91 % 1015,3 hPa 0,0 mm 2,2 km/h (1 Bft) O-SO 115 ° 0 min 0,000 mm 0,0 UV-I 0 W/m² 11,2 °C 12,6 °C 3,2 km/h (1 Bft)
04.05.2018 21:19 12,6 °C 91 % 1015,4 hPa 0,0 mm 0,9 km/h (0 Bft) O-NO 59 ° 0 min 0,000 mm 0,0 UV-I 0 W/m² 11,2 °C 12,6 °C 3,2 km/h (1 Bft)
04.05.2018 21:20 12,6 °C 91 % 1015,4 hPa 0,0 mm 4,2 km/h (1 Bft) O-NO 63 ° 0 min 0,000 mm 0,0 UV-I 0 W/m² 11,2 °C 12,6 °C 6,4 km/h (2 Bft)
04.05.2018 21:21 12,6 °C 91 % 1015,4 hPa 0,0 mm 2,4 km/h (1 Bft) O-NO 63 ° 0 min 0,000 mm 0,0 UV-I 0 W/m² 11,2 °C 12,6 °C 6,4 km/h (2 Bft)
04.05.2018 21:22 12,6 °C 91 % 1015,5 hPa 0,0 mm 1,0 km/h (0 Bft) O-NO 63 ° 0 min 0,000 mm 0,0 UV-I 0 W/m² 11,2 °C 12,6 °C 4,8 km/h (1 Bft)
04.05.2018 21:23 12,6 °C 91 % 1015,5 hPa 0,0 mm 0,7 km/h (0 Bft) O-NO 63 ° 0 min 0,000 mm 0,0 UV-I 0 W/m² 11,2 °C 12,6 °C 1,6 km/h (1 Bft)
04.05.2018 21:24 12,5 °C 91 % 1015,5 hPa 0,0 mm 0,6 km/h (0 Bft) O-NO 63 ° 0 min 0,000 mm 0,0 UV-I 0 W/m² 11,1 °C 12,5 °C 1,6 km/h (1 Bft)
04.05.2018 21:25 12,5 °C 91 % 1015,5 hPa 0,0 mm 0,2 km/h (0 Bft) O-NO 63 ° 0 min 0,000 mm 0,0 UV-I 0 W/m² 11,1 °C 12,5 °C 1,6 km/h (1 Bft)
04.05.2018 21:26 12,4 °C 91 % 1015,5 hPa 0,0 mm 0,0 km/h (0 Bft) O-NO 63 ° 0 min 0,000 mm 0,0 UV-I 0 W/m² 11,0 °C 12,4 °C 0,0 km/h (0 Bft)
04.05.2018 21:27 12,4 °C 91 % 1015,5 hPa 0,0 mm 3,0 km/h (1 Bft) SO 136 ° 0 min 0,000 mm 0,0 UV-I 0 W/m² 11,0 °C 12,4 °C 6,4 km/h (2 Bft)
04.05.2018 21:28 12,4 °C 91 % 1015,5 hPa 0,0 mm 2,1 km/h (1 Bft) O-SO 104 ° 0 min 0,000 mm 0,0 UV-I 0 W/m² 11,0 °C 12,4 °C 4,8 km/h (1 Bft)
04.05.2018 21:29 12,4 °C 91 % 1015,5 hPa 0,0 mm 0,4 km/h (0 Bft) O-SO 104 ° 0 min 0,000 mm 0,0 UV-I 0 W/m² 11,0 °C 12,4 °C 1,6 km/h (1 Bft)
04.05.2018 21:30 12,4 °C 91 % 1015,5 hPa 0,0 mm 1,0 km/h (0 Bft) O-SO 104 ° 0 min 0,000 mm 0,0 UV-I 0 W/m² 11,0 °C 12,4 °C 1,6 km/h (1 Bft)
04.05.2018 21:31 12,3 °C 91 % 1015,5 hPa 0,0 mm 1,0 km/h (0 Bft) O 90 ° 0 min 0,000 mm 0,0 UV-I 0 W/m² 10,9 °C 12,3 °C 3,2 km/h (1 Bft)
04.05.2018 21:32 12,3 °C 92 % 1015,5 hPa 0,0 mm 0,7 km/h (0 Bft) O-NO 76 ° 0 min 0,000 mm 0,0 UV-I 0 W/m² 11,0 °C 12,3 °C 1,6 km/h (1 Bft)
04.05.2018 21:33 12,3 °C 92 % 1015,5 hPa 0,0 mm 0,0 km/h (0 Bft) O-NO 76 ° 0 min 0,000 mm 0,0 UV-I 0 W/m² 11,0 °C 12,3 °C 0,0 km/h (0 Bft)
04.05.2018 21:34 12,2 °C 92 % 1015,5 hPa 0,0 mm 0,3 km/h (0 Bft) O-NO 76 ° 0 min 0,000 mm 0,0 UV-I 0 W/m² 10,9 °C 12,2 °C 1,6 km/h (1 Bft)
04.05.2018 21:35 12,2 °C 92 % 1015,5 hPa 0,0 mm 0,1 km/h (0 Bft) O-NO 76 ° 0 min 0,000 mm 0,0 UV-I 0 W/m² 10,9 °C 12,2 °C 1,6 km/h (1 Bft)
04.05.2018 21:36 12,2 °C 92 % 1015,5 hPa 0,0 mm 0,9 km/h (0 Bft) O-NO 76 ° 0 min 0,000 mm 0,0 UV-I 0 W/m² 10,9 °C 12,2 °C 3,2 km/h (1 Bft)
04.05.2018 21:37 12,2 °C 92 % 1015,5 hPa 0,0 mm 1,5 km/h (1 Bft) O-NO 76 ° 0 min 0,000 mm 0,0 UV-I 0 W/m² 10,9 °C 12,2 °C 4,8 km/h (1 Bft)
04.05.2018 21:38 12,2 °C 92 % 1015,5 hPa 0,0 mm 0,0 km/h (0 Bft) O-NO 76 ° 0 min 0,000 mm 0,0 UV-I 0 W/m² 10,9 °C 12,2 °C 0,0 km/h (0 Bft)
04.05.2018 21:39 12,2 °C 92 % 1015,5 hPa 0,0 mm 0,0 km/h (0 Bft) O-NO 76 ° 0 min 0,000 mm 0,0 UV-I 0 W/m² 10,9 °C 12,2 °C 0,0 km/h (0 Bft)
04.05.2018 21:40 12,2 °C 92 % 1015,6 hPa 0,0 mm 0,0 km/h (0 Bft) O-NO 76 ° 0 min 0,000 mm 0,0 UV-I 0 W/m² 10,9 °C 12,2 °C 0,0 km/h (0 Bft)
04.05.2018 21:41 12,2 °C 92 % 1015,6 hPa 0,0 mm 0,0 km/h (0 Bft) O-NO 76 ° 0 min 0,000 mm 0,0 UV-I 0 W/m² 10,9 °C 12,2 °C 0,0 km/h (0 Bft)
04.05.2018 21:42 12,1 °C 92 % 1015,7 hPa 0,0 mm 0,1 km/h (0 Bft) O-NO 76 ° 0 min 0,000 mm 0,0 UV-I 0 W/m² 10,8 °C 12,1 °C 1,6 km/h (1 Bft)
04.05.2018 21:43 12,1 °C 92 % 1015,6 hPa 0,0 mm 0,5 km/h (0 Bft) O-NO 76 ° 0 min 0,000 mm 0,0 UV-I 0 W/m² 10,8 °C 12,1 °C 1,6 km/h (1 Bft)
04.05.2018 21:44 12,1 °C 92 % 1015,7 hPa 0,0 mm 0,0 km/h (0 Bft) O-NO 76 ° 0 min 0,000 mm 0,0 UV-I 0 W/m² 10,8 °C 12,1 °C 0,0 km/h (0 Bft)
04.05.2018 21:45 12,1 °C 92 % 1015,7 hPa 0,0 mm 1,5 km/h (1 Bft) O-NO 76 ° 0 min 0,000 mm 0,0 UV-I 0 W/m² 10,8 °C 12,1 °C 4,8 km/h (1 Bft)
04.05.2018 21:46 12,0 °C 92 % 1015,8 hPa 0,0 mm 1,8 km/h (1 Bft) O-NO 76 ° 0 min 0,000 mm 0,0 UV-I 0 W/m² 10,7 °C 12,0 °C 4,8 km/h (1 Bft)
04.05.2018 21:47 12,1 °C 92 % 1015,7 hPa 0,0 mm 0,0 km/h (0 Bft) O-NO 76 ° 0 min 0,000 mm 0,0 UV-I 0 W/m² 10,8 °C 12,1 °C 0,0 km/h (0 Bft)
04.05.2018 21:48 12,0 °C 92 % 1015,7 hPa 0,0 mm 0,2 km/h (0 Bft) O-NO 76 ° 0 min 0,000 mm 0,0 UV-I 0 W/m² 10,7 °C 12,0 °C 1,6 km/h (1 Bft)
04.05.2018 21:49 11,9 °C 92 % 1015,7 hPa 0,0 mm 0,5 km/h (0 Bft) O-NO 76 ° 0 min 0,000 mm 0,0 UV-I 0 W/m² 10,6 °C 11,9 °C 1,6 km/h (1 Bft)
04.05.2018 21:50 11,9 °C 92 % 1015,7 hPa 0,0 mm 0,9 km/h (0 Bft) O-NO 76 ° 0 min 0,000 mm 0,0 UV-I 0 W/m² 10,6 °C 11,9 °C 3,2 km/h (1 Bft)
04.05.2018 21:51 12,0 °C 92 % 1015,7 hPa 0,0 mm 0,3 km/h (0 Bft) O-NO 76 ° 0 min 0,000 mm 0,0 UV-I 0 W/m² 10,7 °C 12,0 °C 1,6 km/h (1 Bft)
04.05.2018 21:52 12,1 °C 92 % 1015,7 hPa 0,0 mm 0,1 km/h (0 Bft) O-NO 76 ° 0 min 0,000 mm 0,0 UV-I 0 W/m² 10,8 °C 12,1 °C 1,6 km/h (1 Bft)
04.05.2018 21:53 12,1 °C 92 % 1015,7 hPa 0,0 mm 0,0 km/h (0 Bft) O-NO 76 ° 0 min 0,000 mm 0,0 UV-I 0 W/m² 10,8 °C 12,1 °C 0,0 km/h (0 Bft)
04.05.2018 21:54 12,1 °C 93 % 1015,7 hPa 0,0 mm 0,6 km/h (0 Bft) O-NO 76 ° 0 min 0,000 mm 0,0 UV-I 0 W/m² 11,0 °C 12,1 °C 1,6 km/h (1 Bft)
04.05.2018 21:55 12,1 °C 93 % 1015,8 hPa 0,0 mm 1,0 km/h (0 Bft) O-NO 76 ° 0 min 0,000 mm 0,0 UV-I 0 W/m² 11,0 °C 12,1 °C 3,2 km/h (1 Bft)
04.05.2018 21:56 12,1 °C 92 % 1015,8 hPa 0,0 mm 0,7 km/h (0 Bft) O-NO 76 ° 0 min 0,000 mm 0,0 UV-I 0 W/m² 10,8 °C 12,1 °C 3,2 km/h (1 Bft)
04.05.2018 21:57 12,1 °C 93 % 1015,8 hPa 0,0 mm 0,0 km/h (0 Bft) O-NO 76 ° 0 min 0,000 mm 0,0 UV-I 0 W/m² 11,0 °C 12,1 °C 0,0 km/h (0 Bft)
04.05.2018 21:58 12,2 °C 93 % 1015,8 hPa 0,0 mm 0,0 km/h (0 Bft) O-NO 76 ° 0 min 0,000 mm 0,0 UV-I 0 W/m² 11,1 °C 12,2 °C 0,0 km/h (0 Bft)
04.05.2018 21:59 12,2 °C 93 % 1015,8 hPa 0,0 mm 0,7 km/h (0 Bft) O 85 ° 0 min 0,000 mm 0,0 UV-I 0 W/m² 11,1 °C 12,2 °C 3,2 km/h (1 Bft)
04.05.2018 22:00 12,2 °C 93 % 1015,7 hPa 0,0 mm 0,6 km/h (0 Bft) O 85 ° 0 min 0,000 mm 0,0 UV-I 0 W/m² 11,1 °C 12,2 °C 3,2 km/h (1 Bft)
04.05.2018 22:01 12,2 °C 92 % 1015,8 hPa 0,0 mm 0,0 km/h (0 Bft) O 85 ° 0 min 0,000 mm 0,0 UV-I 0 W/m² 10,9 °C 12,2 °C 0,0 km/h (0 Bft)
04.05.2018 22:02 12,2 °C 92 % 1015,8 hPa 0,0 mm 2,7 km/h (1 Bft) O 79 ° 0 min 0,000 mm 0,0 UV-I 0 W/m² 10,9 °C 12,2 °C 6,4 km/h (2 Bft)
04.05.2018 22:03 12,2 °C 93 % 1015,8 hPa 0,0 mm 0,9 km/h (0 Bft) O-NO 69 ° 0 min 0,000 mm 0,0 UV-I 0 W/m² 11,1 °C 12,2 °C 4,8 km/h (1 Bft)
04.05.2018 22:04 12,2 °C 93 % 1015,8 hPa 0,0 mm 0,1 km/h (0 Bft) O-NO 69 ° 0 min 0,000 mm 0,0 UV-I 0 W/m² 11,1 °C 12,2 °C 1,6 km/h (1 Bft)
04.05.2018 22:05 12,2 °C 93 % 1015,8 hPa 0,0 mm 0,7 km/h (0 Bft) O-NO 69 ° 0 min 0,000 mm 0,0 UV-I 0 W/m² 11,1 °C 12,2 °C 3,2 km/h (1 Bft)
04.05.2018 22:06 12,2 °C 93 % 1015,8 hPa 0,0 mm 0,1 km/h (0 Bft) O-NO 69 ° 0 min 0,000 mm 0,0 UV-I 0 W/m² 11,1 °C 12,2 °C 1,6 km/h (1 Bft)
04.05.2018 22:07 12,3 °C 93 % 1015,8 hPa 0,0 mm 0,6 km/h (0 Bft) O-NO 69 ° 0 min 0,000 mm 0,0 UV-I 0 W/m² 11,2 °C 12,3 °C 3,2 km/h (1 Bft)
04.05.2018 22:08 12,3 °C 92 % 1015,7 hPa 0,0 mm 2,1 km/h (1 Bft) O-NO 69 ° 0 min 0,000 mm 0,0 UV-I 0 W/m² 11,0 °C 12,3 °C 3,2 km/h (1 Bft)
04.05.2018 22:09 12,3 °C 92 % 1015,7 hPa 0,0 mm 4,9 km/h (1 Bft) O-SO 102 ° 0 min 0,000 mm 0,0 UV-I 0 W/m² 11,0 °C 12,3 °C 6,4 km/h (2 Bft)
04.05.2018 22:10 12,3 °C 92 % 1015,7 hPa 0,0 mm 5,4 km/h (1 Bft) NO 49 ° 0 min 0,000 mm 0,0 UV-I 0 W/m² 11,0 °C 12,3 °C 9,7 km/h (2 Bft)
04.05.2018 22:11 12,3 °C 92 % 1015,6 hPa 0,0 mm 4,1 km/h (1 Bft) O-NO 57 ° 0 min 0,000 mm 0,0 UV-I 0 W/m² 11,0 °C 12,3 °C 9,7 km/h (2 Bft)
04.05.2018 22:12 12,3 °C 92 % 1015,6 hPa 0,0 mm 4,0 km/h (1 Bft) O 101 ° 0 min 0,000 mm 0,0 UV-I 0 W/m² 11,0 °C 12,3 °C 8,0 km/h (2 Bft)
04.05.2018 22:13 12,3 °C 92 % 1015,6 hPa 0,0 mm 1,9 km/h (1 Bft) O 101 ° 0 min 0,000 mm 0,0 UV-I 0 W/m² 11,0 °C 12,3 °C 3,2 km/h (1 Bft)
04.05.2018 22:14 12,2 °C 92 % 1015,6 hPa 0,0 mm 2,1 km/h (1 Bft) O 98 ° 0 min 0,000 mm 0,0 UV-I 0 W/m² 10,9 °C 12,2 °C 4,8 km/h (1 Bft)
04.05.2018 22:15 12,3 °C 92 % 1015,6 hPa 0,0 mm 4,0 km/h (1 Bft) O-NO 77 ° 0 min 0,000 mm 0,0 UV-I 0 W/m² 11,0 °C 12,3 °C 6,4 km/h (2 Bft)
04.05.2018 22:16 12,2 °C 92 % 1015,6 hPa 0,0 mm 2,1 km/h (1 Bft) SO 129 ° 0 min 0,000 mm 0,0 UV-I 0 W/m² 10,9 °C 12,2 °C 4,8 km/h (1 Bft)
04.05.2018 22:17 12,2 °C 92 % 1015,6 hPa 0,0 mm 1,4 km/h (1 Bft) SO 128 ° 0 min 0,000 mm 0,0 UV-I 0 W/m² 10,9 °C 12,2 °C 3,2 km/h (1 Bft)
04.05.2018 22:18 12,2 °C 92 % 1015,6 hPa 0,0 mm 1,6 km/h (1 Bft) S-SO 152 ° 0 min 0,000 mm 0,0 UV-I 0 W/m² 10,9 °C 12,2 °C 3,2 km/h (1 Bft)
04.05.2018 22:19 12,2 °C 92 % 1015,6 hPa 0,0 mm 3,2 km/h (1 Bft) SO 142 ° 0 min 0,000 mm 0,0 UV-I 0 W/m² 10,9 °C 12,2 °C 4,8 km/h (1 Bft)
04.05.2018 22:20 12,2 °C 92 % 1015,6 hPa 0,0 mm 1,9 km/h (1 Bft) SO 142 ° 0 min 0,000 mm 0,0 UV-I 0 W/m² 10,9 °C 12,2 °C 3,2 km/h (1 Bft)
04.05.2018 22:21 12,2 °C 92 % 1015,6 hPa 0,0 mm 2,4 km/h (1 Bft) SO 142 ° 0 min 0,000 mm 0,0 UV-I 0 W/m² 10,9 °C 12,2 °C 3,2 km/h (1 Bft)
04.05.2018 22:22 12,2 °C 92 % 1015,6 hPa 0,0 mm 1,2 km/h (1 Bft) SO 142 ° 0 min 0,000 mm 0,0 UV-I 0 W/m² 10,9 °C 12,2 °C 3,2 km/h (1 Bft)
04.05.2018 22:23 12,2 °C 92 % 1015,6 hPa 0,0 mm 0,9 km/h (0 Bft) SO 142 ° 0 min 0,000 mm 0,0 UV-I 0 W/m² 10,9 °C 12,2 °C 1,6 km/h (1 Bft)
04.05.2018 22:24 12,1 °C 92 % 1015,6 hPa 0,0 mm 2,8 km/h (1 Bft) SO 142 ° 0 min 0,000 mm 0,0 UV-I 0 W/m² 10,8 °C 12,1 °C 4,8 km/h (1 Bft)
04.05.2018 22:25 12,1 °C 92 % 1015,6 hPa 0,0 mm 2,4 km/h (1 Bft) SO 142 ° 0 min 0,000 mm 0,0 UV-I 0 W/m² 10,8 °C 12,1 °C 4,8 km/h (1 Bft)
04.05.2018 22:26 12,0 °C 92 % 1015,6 hPa 0,0 mm 1,3 km/h (1 Bft) SO 142 ° 0 min 0,000 mm 0,0 UV-I 0 W/m² 10,7 °C 12,0 °C 3,2 km/h (1 Bft)
04.05.2018 22:27 11,9 °C 92 % 1015,6 hPa 0,0 mm 2,1 km/h (1 Bft) SO 142 ° 0 min 0,000 mm 0,0 UV-I 0 W/m² 10,6 °C 11,9 °C 3,2 km/h (1 Bft)
04.05.2018 22:28 11,9 °C 92 % 1015,6 hPa 0,0 mm 2,1 km/h (1 Bft) SO 142 ° 0 min 0,000 mm 0,0 UV-I 0 W/m² 10,6 °C 11,9 °C 3,2 km/h (1 Bft)
04.05.2018 22:29 11,9 °C 92 % 1015,6 hPa 0,0 mm 2,4 km/h (1 Bft) SO 142 ° 0 min 0,000 mm 0,0 UV-I 0 W/m² 10,6 °C 11,9 °C 3,2 km/h (1 Bft)
04.05.2018 22:30 11,9 °C 92 % 1015,7 hPa 0,0 mm 1,3 km/h (1 Bft) SO 142 ° 0 min 0,000 mm 0,0 UV-I 0 W/m² 10,6 °C 11,9 °C 3,2 km/h (1 Bft)
04.05.2018 22:31 11,8 °C 92 % 1015,7 hPa 0,0 mm 2,4 km/h (1 Bft) SO 142 ° 0 min 0,000 mm 0,0 UV-I 0 W/m² 10,5 °C 11,8 °C 3,2 km/h (1 Bft)
04.05.2018 22:32 11,8 °C 92 % 1015,6 hPa 0,0 mm 2,3 km/h (1 Bft) SO 142 ° 0 min 0,000 mm 0,0 UV-I 0 W/m² 10,5 °C 11,8 °C 3,2 km/h (1 Bft)
04.05.2018 22:33 11,8 °C 92 % 1015,7 hPa 0,0 mm 2,4 km/h (1 Bft) SO 142 ° 0 min 0,000 mm 0,0 UV-I 0 W/m² 10,5 °C 11,8 °C 3,2 km/h (1 Bft)
04.05.2018 22:34 11,8 °C 92 % 1015,7 hPa 0,0 mm 3,4 km/h (1 Bft) S-SO 154 ° 0 min 0,000 mm 0,0 UV-I 0 W/m² 10,5 °C 11,8 °C 6,4 km/h (2 Bft)
04.05.2018 22:35 11,7 °C 92 % 1015,7 hPa 0,0 mm 2,4 km/h (1 Bft) SO 132 ° 0 min 0,000 mm 0,0 UV-I 0 W/m² 10,4 °C 11,7 °C 4,8 km/h (1 Bft)
04.05.2018 22:36 11,7 °C 92 % 1015,7 hPa 0,0 mm 1,3 km/h (1 Bft) SO 132 ° 0 min 0,000 mm 0,0 UV-I 0 W/m² 10,4 °C 11,7 °C 3,2 km/h (1 Bft)
04.05.2018 22:37 11,7 °C 92 % 1015,7 hPa 0,0 mm 2,1 km/h (1 Bft) SO 133 ° 0 min 0,000 mm 0,0 UV-I 0 W/m² 10,4 °C 11,7 °C 3,2 km/h (1 Bft)
04.05.2018 22:38 11,7 °C 92 % 1015,7 hPa 0,0 mm 0,8 km/h (0 Bft) SO 133 ° 0 min 0,000 mm 0,0 UV-I 0 W/m² 10,4 °C 11,7 °C 1,6 km/h (1 Bft)
04.05.2018 22:39 11,6 °C 92 % 1015,7 hPa 0,0 mm 1,2 km/h (1 Bft) SO 133 ° 0 min 0,000 mm 0,0 UV-I 0 W/m² 10,3 °C 11,6 °C 3,2 km/h (1 Bft)
04.05.2018 22:40 11,6 °C 93 % 1015,6 hPa 0,0 mm 0,8 km/h (0 Bft) SO 133 ° 0 min 0,000 mm 0,0 UV-I 0 W/m² 10,5 °C 11,6 °C 1,6 km/h (1 Bft)
04.05.2018 22:41 11,6 °C 93 % 1015,7 hPa 0,0 mm 2,2 km/h (1 Bft) SO 142 ° 0 min 0,000 mm 0,0 UV-I 0 W/m² 10,5 °C 11,6 °C 3,2 km/h (1 Bft)
04.05.2018 22:42 11,6 °C 93 % 1015,7 hPa 0,0 mm 1,4 km/h (1 Bft) SO 142 ° 0 min 0,000 mm 0,0 UV-I 0 W/m² 10,5 °C 11,6 °C 3,2 km/h (1 Bft)
04.05.2018 22:43 11,7 °C 93 % 1015,7 hPa 0,0 mm 1,5 km/h (1 Bft) SO 142 ° 0 min 0,000 mm 0,0 UV-I 0 W/m² 10,6 °C 11,7 °C 3,2 km/h (1 Bft)
04.05.2018 22:44 11,6 °C 93 % 1015,7 hPa 0,0 mm 0,0 km/h (0 Bft) SO 142 ° 0 min 0,000 mm 0,0 UV-I 0 W/m² 10,5 °C 11,6 °C 0,0 km/h (0 Bft)
04.05.2018 22:45 11,6 °C 93 % 1015,7 hPa 0,0 mm 0,9 km/h (0 Bft) SO 142 ° 0 min 0,000 mm 0,0 UV-I 0 W/m² 10,5 °C 11,6 °C 1,6 km/h (1 Bft)
04.05.2018 22:46 11,6 °C 93 % 1015,7 hPa 0,0 mm 1,1 km/h (1 Bft) SO 142 ° 0 min 0,000 mm 0,0 UV-I 0 W/m² 10,5 °C 11,6 °C 1,6 km/h (1 Bft)
04.05.2018 22:47 11,6 °C 93 % 1015,7 hPa 0,0 mm 1,5 km/h (1 Bft) SO 142 ° 0 min 0,000 mm 0,0 UV-I 0 W/m² 10,5 °C 11,6 °C 3,2 km/h (1 Bft)
04.05.2018 22:48 11,6 °C 93 % 1015,7 hPa 0,0 mm 1,5 km/h (1 Bft) SO 142 ° 0 min 0,000 mm 0,0 UV-I 0 W/m² 10,5 °C 11,6 °C 3,2 km/h (1 Bft)
04.05.2018 22:49 11,6 °C 93 % 1015,7 hPa 0,0 mm 0,8 km/h (0 Bft) SO 142 ° 0 min 0,000 mm 0,0 UV-I 0 W/m² 10,5 °C 11,6 °C 1,6 km/h (1 Bft)
04.05.2018 22:50 11,6 °C 93 % 1015,7 hPa 0,0 mm 2,0 km/h (1 Bft) SO 142 ° 0 min 0,000 mm 0,0 UV-I 0 W/m² 10,5 °C 11,6 °C 4,8 km/h (1 Bft)
04.05.2018 22:51 11,6 °C 93 % 1015,7 hPa 0,0 mm 1,0 km/h (0 Bft) SO 142 ° 0 min 0,000 mm 0,0 UV-I 0 W/m² 10,5 °C 11,6 °C 3,2 km/h (1 Bft)
04.05.2018 22:52 11,6 °C 93 % 1015,7 hPa 0,0 mm 1,2 km/h (1 Bft) SO 142 ° 0 min 0,000 mm 0,0 UV-I 0 W/m² 10,5 °C 11,6 °C 3,2 km/h (1 Bft)
04.05.2018 22:53 11,7 °C 93 % 1015,7 hPa 0,0 mm 0,1 km/h (0 Bft) SO 142 ° 0 min 0,000 mm 0,0 UV-I 0 W/m² 10,6 °C 11,7 °C 1,6 km/h (1 Bft)
04.05.2018 22:54 11,7 °C 93 % 1015,7 hPa 0,0 mm 0,1 km/h (0 Bft) SO 142 ° 0 min 0,000 mm 0,0 UV-I 0 W/m² 10,6 °C 11,7 °C 1,6 km/h (1 Bft)
04.05.2018 22:55 11,7 °C 93 % 1015,7 hPa 0,0 mm 0,6 km/h (0 Bft) SO 142 ° 0 min 0,000 mm 0,0 UV-I 0 W/m² 10,6 °C 11,7 °C 3,2 km/h (1 Bft)
04.05.2018 22:56 11,7 °C 93 % 1015,7 hPa 0,0 mm 0,4 km/h (0 Bft) SO 142 ° 0 min 0,000 mm 0,0 UV-I 0 W/m² 10,6 °C 11,7 °C 3,2 km/h (1 Bft)
04.05.2018 22:57 11,8 °C 93 % 1015,7 hPa 0,0 mm 0,1 km/h (0 Bft) SO 142 ° 0 min 0,000 mm 0,0 UV-I 0 W/m² 10,7 °C 11,8 °C 1,6 km/h (1 Bft)
04.05.2018 22:58 11,8 °C 93 % 1015,7 hPa 0,0 mm 0,0 km/h (0 Bft) SO 142 ° 0 min 0,000 mm 0,0 UV-I 0 W/m² 10,7 °C 11,8 °C 0,0 km/h (0 Bft)
04.05.2018 22:59 11,8 °C 93 % 1015,7 hPa 0,0 mm 0,0 km/h (0 Bft) SO 142 ° 0 min 0,000 mm 0,0 UV-I 0 W/m² 10,7 °C 11,8 °C 0,0 km/h (0 Bft)
04.05.2018 23:00 11,7 °C 93 % 1015,7 hPa 0,0 mm 0,0 km/h (0 Bft) SO 142 ° 0 min 0,000 mm 0,0 UV-I 0 W/m² 10,6 °C 11,7 °C 0,0 km/h (0 Bft)
04.05.2018 23:01 11,7 °C 93 % 1015,7 hPa 0,0 mm 0,0 km/h (0 Bft) SO 142 ° 0 min 0,000 mm 0,0 UV-I 0 W/m² 10,6 °C 11,7 °C 0,0 km/h (0 Bft)
04.05.2018 23:02 11,7 °C 93 % 1015,7 hPa 0,0 mm 0,0 km/h (0 Bft) SO 142 ° 0 min 0,000 mm 0,0 UV-I 0 W/m² 10,6 °C 11,7 °C 0,0 km/h (0 Bft)
04.05.2018 23:03 11,6 °C 93 % 1015,7 hPa 0,0 mm 0,0 km/h (0 Bft) SO 142 ° 0 min 0,000 mm 0,0 UV-I 0 W/m² 10,5 °C 11,6 °C 0,0 km/h (0 Bft)
04.05.2018 23:04 11,7 °C 93 % 1015,7 hPa 0,0 mm 0,0 km/h (0 Bft) SO 142 ° 0 min 0,000 mm 0,0 UV-I 0 W/m² 10,6 °C 11,7 °C 0,0 km/h (0 Bft)
04.05.2018 23:05 11,6 °C 93 % 1015,7 hPa 0,0 mm 0,0 km/h (0 Bft) SO 142 ° 0 min 0,000 mm 0,0 UV-I 0 W/m² 10,5 °C 11,6 °C 0,0 km/h (0 Bft)
04.05.2018 23:06 11,6 °C 93 % 1015,7 hPa 0,0 mm 0,0 km/h (0 Bft) SO 142 ° 0 min 0,000 mm 0,0 UV-I 0 W/m² 10,5 °C 11,6 °C 0,0 km/h (0 Bft)
04.05.2018 23:07 11,6 °C 93 % 1015,7 hPa 0,0 mm 0,0 km/h (0 Bft) SO 142 ° 0 min 0,000 mm 0,0 UV-I 0 W/m² 10,5 °C 11,6 °C 0,0 km/h (0 Bft)
04.05.2018 23:08 11,6 °C 93 % 1015,8 hPa 0,0 mm 0,0 km/h (0 Bft) SO 142 ° 0 min 0,000 mm 0,0 UV-I 0 W/m² 10,5 °C 11,6 °C 0,0 km/h (0 Bft)
04.05.2018 23:09 11,6 °C 93 % 1015,8 hPa 0,0 mm 0,0 km/h (0 Bft) SO 142 ° 0 min 0,000 mm 0,0 UV-I 0 W/m² 10,5 °C 11,6 °C 0,0 km/h (0 Bft)
04.05.2018 23:10 11,6 °C 93 % 1015,8 hPa 0,0 mm 0,0 km/h (0 Bft) SO 142 ° 0 min 0,000 mm 0,0 UV-I 0 W/m² 10,5 °C 11,6 °C 0,0 km/h (0 Bft)
04.05.2018 23:11 11,7 °C 93 % 1015,8 hPa 0,0 mm 0,0 km/h (0 Bft) SO 142 ° 0 min 0,000 mm 0,0 UV-I 0 W/m² 10,6 °C 11,7 °C 0,0 km/h (0 Bft)
04.05.2018 23:12 11,7 °C 94 % 1015,9 hPa 0,0 mm 0,0 km/h (0 Bft) SO 142 ° 0 min 0,000 mm 0,0 UV-I 0 W/m² 10,8 °C 11,7 °C 0,0 km/h (0 Bft)
04.05.2018 23:13 11,7 °C 94 % 1015,8 hPa 0,0 mm 0,0 km/h (0 Bft) SO 142 ° 0 min 0,000 mm 0,0 UV-I 0 W/m² 10,8 °C 11,7 °C 0,0 km/h (0 Bft)
04.05.2018 23:14 11,7 °C 93 % 1015,9 hPa 0,0 mm 0,0 km/h (0 Bft) SO 142 ° 0 min 0,000 mm 0,0 UV-I 0 W/m² 10,6 °C 11,7 °C 0,0 km/h (0 Bft)
04.05.2018 23:15 11,7 °C 93 % 1015,9 hPa 0,0 mm 0,0 km/h (0 Bft) SO 142 ° 0 min 0,000 mm 0,0 UV-I 0 W/m² 10,6 °C 11,7 °C 0,0 km/h (0 Bft)
04.05.2018 23:16 11,7 °C 93 % 1015,9 hPa 0,0 mm 0,0 km/h (0 Bft) SO 142 ° 0 min 0,000 mm 0,0 UV-I 0 W/m² 10,6 °C 11,7 °C 0,0 km/h (0 Bft)
04.05.2018 23:17 11,7 °C 94 % 1015,9 hPa 0,0 mm 0,0 km/h (0 Bft) SO 142 ° 0 min 0,000 mm 0,0 UV-I 0 W/m² 10,8 °C 11,7 °C 0,0 km/h (0 Bft)
04.05.2018 23:18 11,7 °C 94 % 1015,9 hPa 0,0 mm 0,0 km/h (0 Bft) SO 136 ° 0 min 0,000 mm 0,0 UV-I 0 W/m² 10,8 °C 11,7 °C 0,0 km/h (0 Bft)
04.05.2018 23:19 11,7 °C 94 % 1015,9 hPa 0,0 mm 4,0 km/h (1 Bft) O-NO 67 ° 0 min 0,000 mm 0,0 UV-I 0 W/m² 10,8 °C 11,7 °C 8,0 km/h (2 Bft)
04.05.2018 23:20 11,8 °C 94 % 1015,9 hPa 0,0 mm 3,3 km/h (1 Bft) O 82 ° 0 min 0,000 mm 0,0 UV-I 0 W/m² 10,9 °C 11,8 °C 6,4 km/h (2 Bft)
04.05.2018 23:21 11,8 °C 94 % 1015,9 hPa 0,0 mm 5,1 km/h (1 Bft) NO 45 ° 0 min 0,000 mm 0,0 UV-I 0 W/m² 10,9 °C 11,8 °C 6,4 km/h (2 Bft)
04.05.2018 23:22 11,8 °C 94 % 1015,9 hPa 0,0 mm 2,4 km/h (1 Bft) NO 52 ° 0 min 0,000 mm 0,0 UV-I 0 W/m² 10,9 °C 11,8 °C 3,2 km/h (1 Bft)
04.05.2018 23:23 11,8 °C 94 % 1015,9 hPa 0,0 mm 1,6 km/h (1 Bft) NO 52 ° 0 min 0,000 mm 0,0 UV-I 0 W/m² 10,9 °C 11,8 °C 3,2 km/h (1 Bft)
04.05.2018 23:24 11,8 °C 94 % 1015,9 hPa 0,0 mm 0,0 km/h (0 Bft) NO 52 ° 0 min 0,000 mm 0,0 UV-I 0 W/m² 10,9 °C 11,8 °C 0,0 km/h (0 Bft)
04.05.2018 23:25 11,9 °C 94 % 1015,9 hPa 0,0 mm 0,0 km/h (0 Bft) NO 52 ° 0 min 0,000 mm 0,0 UV-I 0 W/m² 11,0 °C 11,9 °C 0,0 km/h (0 Bft)
04.05.2018 23:26 11,9 °C 94 % 1015,9 hPa 0,0 mm 0,1 km/h (0 Bft) NO 52 ° 0 min 0,000 mm 0,0 UV-I 0 W/m² 11,0 °C 11,9 °C 1,6 km/h (1 Bft)
04.05.2018 23:27 11,9 °C 94 % 1015,9 hPa 0,0 mm 0,1 km/h (0 Bft) NO 52 ° 0 min 0,000 mm 0,0 UV-I 0 W/m² 11,0 °C 11,9 °C 1,6 km/h (1 Bft)
04.05.2018 23:28 11,9 °C 94 % 1015,9 hPa 0,0 mm 0,0 km/h (0 Bft) NO 52 ° 0 min 0,000 mm 0,0 UV-I 0 W/m² 11,0 °C 11,9 °C 0,0 km/h (0 Bft)
04.05.2018 23:29 11,9 °C 94 % 1015,9 hPa 0,0 mm 0,0 km/h (0 Bft) NO 52 ° 0 min 0,000 mm 0,0 UV-I 0 W/m² 11,0 °C 11,9 °C 0,0 km/h (0 Bft)
04.05.2018 23:30 12,0 °C 94 % 1015,9 hPa 0,0 mm 0,0 km/h (0 Bft) NO 52 ° 0 min 0,000 mm 0,0 UV-I 0 W/m² 11,1 °C 12,0 °C 0,0 km/h (0 Bft)
04.05.2018 23:31 12,0 °C 93 % 1015,9 hPa 0,0 mm 0,0 km/h (0 Bft) NO 52 ° 0 min 0,000 mm 0,0 UV-I 0 W/m² 10,9 °C 12,0 °C 0,0 km/h (0 Bft)
04.05.2018 23:32 12,1 °C 93 % 1015,9 hPa 0,0 mm 0,0 km/h (0 Bft) NO 52 ° 0 min 0,000 mm 0,0 UV-I 0 W/m² 11,0 °C 12,1 °C 0,0 km/h (0 Bft)
04.05.2018 23:33 12,1 °C 93 % 1015,9 hPa 0,0 mm 0,0 km/h (0 Bft) NO 52 ° 0 min 0,000 mm 0,0 UV-I 0 W/m² 11,0 °C 12,1 °C 0,0 km/h (0 Bft)
04.05.2018 23:34 12,1 °C 93 % 1015,9 hPa 0,0 mm 0,1 km/h (0 Bft) NO 52 ° 0 min 0,000 mm 0,0 UV-I 0 W/m² 11,0 °C 12,1 °C 1,6 km/h (1 Bft)
04.05.2018 23:35 12,1 °C 93 % 1015,9 hPa 0,0 mm 0,0 km/h (0 Bft) NO 52 ° 0 min 0,000 mm 0,0 UV-I 0 W/m² 11,0 °C 12,1 °C 0,0 km/h (0 Bft)
04.05.2018 23:36 12,1 °C 93 % 1016,0 hPa 0,0 mm 0,0 km/h (0 Bft) NO 52 ° 0 min 0,000 mm 0,0 UV-I 0 W/m² 11,0 °C 12,1 °C 0,0 km/h (0 Bft)
04.05.2018 23:37 12,1 °C 93 % 1015,9 hPa 0,0 mm 1,1 km/h (1 Bft) O 92 ° 0 min 0,000 mm 0,0 UV-I 0 W/m² 11,0 °C 12,1 °C 4,8 km/h (1 Bft)
04.05.2018 23:38 12,1 °C 93 % 1016,0 hPa 0,0 mm 0,0 km/h (0 Bft) O 92 ° 0 min 0,000 mm 0,0 UV-I 0 W/m² 11,0 °C 12,1 °C 0,0 km/h (0 Bft)
04.05.2018 23:39 12,1 °C 93 % 1016,0 hPa 0,0 mm 0,0 km/h (0 Bft) O 92 ° 0 min 0,000 mm 0,0 UV-I 0 W/m² 11,0 °C 12,1 °C 0,0 km/h (0 Bft)
04.05.2018 23:40 12,1 °C 93 % 1016,0 hPa 0,0 mm 0,6 km/h (0 Bft) O 92 ° 0 min 0,000 mm 0,0 UV-I 0 W/m² 11,0 °C 12,1 °C 1,6 km/h (1 Bft)
04.05.2018 23:41 12,2 °C 93 % 1016,1 hPa 0,0 mm 0,0 km/h (0 Bft) O 92 ° 0 min 0,000 mm 0,0 UV-I 0 W/m² 11,1 °C 12,2 °C 0,0 km/h (0 Bft)
04.05.2018 23:42 12,1 °C 93 % 1016,1 hPa 0,0 mm 0,7 km/h (0 Bft) O 88 ° 0 min 0,000 mm 0,0 UV-I 0 W/m² 11,0 °C 12,1 °C 3,2 km/h (1 Bft)
04.05.2018 23:43 12,2 °C 93 % 1016,1 hPa 0,0 mm 2,7 km/h (1 Bft) NO 50 ° 0 min 0,000 mm 0,0 UV-I 0 W/m² 11,1 °C 12,2 °C 6,4 km/h (2 Bft)
04.05.2018 23:44 12,1 °C 93 % 1016,1 hPa 0,0 mm 3,3 km/h (1 Bft) NO 50 ° 0 min 0,000 mm 0,0 UV-I 0 W/m² 11,0 °C 12,1 °C 6,4 km/h (2 Bft)
04.05.2018 23:45 12,2 °C 93 % 1016,1 hPa 0,0 mm 0,0 km/h (0 Bft) NO 50 ° 0 min 0,000 mm 0,0 UV-I 0 W/m² 11,1 °C 12,2 °C 0,0 km/h (0 Bft)
04.05.2018 23:46 12,1 °C 93 % 1016,1 hPa 0,0 mm 0,0 km/h (0 Bft) NO 50 ° 0 min 0,000 mm 0,0 UV-I 0 W/m² 11,0 °C 12,1 °C 0,0 km/h (0 Bft)
04.05.2018 23:47 12,2 °C 93 % 1016,1 hPa 0,0 mm 0,0 km/h (0 Bft) NO 50 ° 0 min 0,000 mm 0,0 UV-I 0 W/m² 11,1 °C 12,2 °C 0,0 km/h (0 Bft)
04.05.2018 23:48 12,1 °C 93 % 1016,1 hPa 0,0 mm 0,0 km/h (0 Bft) NO 50 ° 0 min 0,000 mm 0,0 UV-I 0 W/m² 11,0 °C 12,1 °C 0,0 km/h (0 Bft)
04.05.2018 23:49 12,1 °C 93 % 1016,1 hPa 0,0 mm 0,0 km/h (0 Bft) NO 50 ° 0 min 0,000 mm 0,0 UV-I 0 W/m² 11,0 °C 12,1 °C 0,0 km/h (0 Bft)
04.05.2018 23:50 12,2 °C 93 % 1016,0 hPa 0,0 mm 0,0 km/h (0 Bft) NO 50 ° 0 min 0,000 mm 0,0 UV-I 0 W/m² 11,1 °C 12,2 °C 0,0 km/h (0 Bft)
04.05.2018 23:51 12,2 °C 93 % 1016,0 hPa 0,0 mm 0,0 km/h (0 Bft) NO 50 ° 0 min 0,000 mm 0,0 UV-I 0 W/m² 11,1 °C 12,2 °C 0,0 km/h (0 Bft)
04.05.2018 23:52 12,2 °C 93 % 1016,0 hPa 0,0 mm 0,0 km/h (0 Bft) NO 50 ° 0 min 0,000 mm 0,0 UV-I 0 W/m² 11,1 °C 12,2 °C 0,0 km/h (0 Bft)
04.05.2018 23:53 12,1 °C 93 % 1016,0 hPa 0,0 mm 0,0 km/h (0 Bft) NO 50 ° 0 min 0,000 mm 0,0 UV-I 0 W/m² 11,0 °C 12,1 °C 0,0 km/h (0 Bft)
04.05.2018 23:54 12,1 °C 93 % 1016,0 hPa 0,0 mm 0,0 km/h (0 Bft) NO 50 ° 0 min 0,000 mm 0,0 UV-I 0 W/m² 11,0 °C 12,1 °C 0,0 km/h (0 Bft)
04.05.2018 23:55 12,1 °C 93 % 1016,0 hPa 0,0 mm 0,0 km/h (0 Bft) NO 50 ° 0 min 0,000 mm 0,0 UV-I 0 W/m² 11,0 °C 12,1 °C 0,0 km/h (0 Bft)
04.05.2018 23:56 12,1 °C 93 % 1015,9 hPa 0,0 mm 0,0 km/h (0 Bft) NO 50 ° 0 min 0,000 mm 0,0 UV-I 0 W/m² 11,0 °C 12,1 °C 0,0 km/h (0 Bft)
04.05.2018 23:57 12,1 °C 93 % 1016,0 hPa 0,0 mm 0,0 km/h (0 Bft) NO 50 ° 0 min 0,000 mm 0,0 UV-I 0 W/m² 11,0 °C 12,1 °C 0,0 km/h (0 Bft)
04.05.2018 23:58 12,1 °C 93 % 1016,0 hPa 0,0 mm 0,0 km/h (0 Bft) NO 50 ° 0 min 0,000 mm 0,0 UV-I 0 W/m² 11,0 °C 12,1 °C 0,0 km/h (0 Bft)
04.05.2018 23:59 12,1 °C 93 % 1016,0 hPa 0,0 mm 0,0 km/h (0 Bft) NO 50 ° 0 min 0,000 mm 0,0 UV-I 0 W/m² 11,0 °C 12,1 °C 0,0 km/h (0 Bft)
_ Min-Zeit 08:15 18:04 01:06 - 23:59 - - - - - - 08:15 08:15 23:59
Minimum _ 9,4 °C 89 % 1011,8 hPa - 0,0 km/h (0 Bft) - - - - - - 8,5 °C 9,4 °C 0,0 km/h (0 Bft)
_ Max-Zeit 18:50 23:30 23:49 08:20 14:15 - - 23:59 15:01 14:03 14:03 17:19 18:50 14:15
Maximum _ 13,4 °C 94 % 1016,1 hPa 0,2 mm 11,5 km/h
O-NO (2 Bft)
- - 0 min 0,077 mm 2,2 UV-I 278 W/m² 11,8 °C 13,4 °C 20,9 km/h
O (4 Bft)
Durchschnitt _ 11,5 °C 93 % 1013,9 hPa #1,6 mm 2,2 km/h (1 Bft) O-NO - #0 min. #0,508 mm 0,8 UV-I 40 W/m² 10,4 °C 11,5 °C 4,0 km/h (1 Bft)